<?xml version="1.0" encoding="UTF-8" standalone="no" ?>
<gpx xmlns="http://www.topografix.com/GPX/1/1" xmlns:xsi="http://www.w3.org/2001/XMLSchema-instance" xsi:schemaLocation="http://www.topografix.com/GPX/1/1 http://www.topografix.com/GPX/1/1/gpx.xsd" version="1.1" creator="VisuGPX - https://www.visugpx.com">
  <metadata>
    <name>Annecy --&gt; Voreppe</name>
    <desc><![CDATA[Profil de l\'étape Annecy --> Voreppe]]></desc>
  </metadata>
  <trk>
    <name><![CDATA[Toaster Course]]></name>
    <trkseg>
      <trkpt lat="45.90313" lon="6.12215">
        <ele>448</ele>
        <time>2013-09-04T00:00:00Z</time>
      </trkpt>
      <trkpt lat="45.90311" lon="6.12214">
        <ele>447</ele>
        <time>2013-09-04T00:00:00Z</time>
      </trkpt>
      <trkpt lat="45.90314" lon="6.12224">
        <ele>447</ele>
        <time>2013-09-04T00:00:01Z</time>
      </trkpt>
      <trkpt lat="45.90333" lon="6.12211">
        <ele>447</ele>
        <time>2013-09-04T00:00:04Z</time>
      </trkpt>
      <trkpt lat="45.9034" lon="6.12227">
        <ele>447</ele>
        <time>2013-09-04T00:00:05Z</time>
      </trkpt>
      <trkpt lat="45.90348" lon="6.12282">
        <ele>447</ele>
        <time>2013-09-04T00:00:11Z</time>
      </trkpt>
      <trkpt lat="45.90302" lon="6.12329">
        <ele>447</ele>
        <time>2013-09-04T00:00:18Z</time>
      </trkpt>
      <trkpt lat="45.90276" lon="6.12331">
        <ele>447</ele>
        <time>2013-09-04T00:00:22Z</time>
      </trkpt>
      <trkpt lat="45.90276" lon="6.12331">
        <ele>447</ele>
        <time>2013-09-04T00:00:23Z</time>
      </trkpt>
      <trkpt lat="45.90184" lon="6.12205">
        <ele>447</ele>
        <time>2013-09-04T00:00:40Z</time>
      </trkpt>
      <trkpt lat="45.9017" lon="6.12168">
        <ele>446</ele>
        <time>2013-09-04T00:00:44Z</time>
      </trkpt>
      <trkpt lat="45.90159" lon="6.12127">
        <ele>446</ele>
        <time>2013-09-04T00:00:48Z</time>
      </trkpt>
      <trkpt lat="45.90134" lon="6.11972">
        <ele>445</ele>
        <time>2013-09-04T00:01:02Z</time>
      </trkpt>
      <trkpt lat="45.90138" lon="6.11964">
        <ele>444</ele>
        <time>2013-09-04T00:01:03Z</time>
      </trkpt>
      <trkpt lat="45.90137" lon="6.11954">
        <ele>444</ele>
        <time>2013-09-04T00:01:04Z</time>
      </trkpt>
      <trkpt lat="45.90132" lon="6.11948">
        <ele>444</ele>
        <time>2013-09-04T00:01:05Z</time>
      </trkpt>
      <trkpt lat="45.90125" lon="6.11949">
        <ele>444</ele>
        <time>2013-09-04T00:01:06Z</time>
      </trkpt>
      <trkpt lat="45.9012" lon="6.11961">
        <ele>444</ele>
        <time>2013-09-04T00:01:07Z</time>
      </trkpt>
      <trkpt lat="45.90106" lon="6.11972">
        <ele>444</ele>
        <time>2013-09-04T00:01:10Z</time>
      </trkpt>
      <trkpt lat="45.9006" lon="6.12047">
        <ele>444</ele>
        <time>2013-09-04T00:01:19Z</time>
      </trkpt>
      <trkpt lat="45.89965" lon="6.11911">
        <ele>443</ele>
        <time>2013-09-04T00:01:37Z</time>
      </trkpt>
      <trkpt lat="45.89898" lon="6.11832">
        <ele>443</ele>
        <time>2013-09-04T00:01:48Z</time>
      </trkpt>
      <trkpt lat="45.89897" lon="6.11832">
        <ele>443</ele>
        <time>2013-09-04T00:01:48Z</time>
      </trkpt>
      <trkpt lat="45.89893" lon="6.11827">
        <ele>443</ele>
        <time>2013-09-04T00:01:49Z</time>
      </trkpt>
      <trkpt lat="45.89886" lon="6.11809">
        <ele>443</ele>
        <time>2013-09-04T00:01:51Z</time>
      </trkpt>
      <trkpt lat="45.89877" lon="6.11807">
        <ele>443</ele>
        <time>2013-09-04T00:01:52Z</time>
      </trkpt>
      <trkpt lat="45.8987" lon="6.11811">
        <ele>443</ele>
        <time>2013-09-04T00:01:53Z</time>
      </trkpt>
      <trkpt lat="45.89864" lon="6.11822">
        <ele>443</ele>
        <time>2013-09-04T00:01:55Z</time>
      </trkpt>
      <trkpt lat="45.89865" lon="6.11835">
        <ele>443</ele>
        <time>2013-09-04T00:01:56Z</time>
      </trkpt>
      <trkpt lat="45.89843" lon="6.11874">
        <ele>443</ele>
        <time>2013-09-04T00:02:01Z</time>
      </trkpt>
      <trkpt lat="45.8984" lon="6.11887">
        <ele>443</ele>
        <time>2013-09-04T00:02:02Z</time>
      </trkpt>
      <trkpt lat="45.89817" lon="6.11921">
        <ele>443</ele>
        <time>2013-09-04T00:02:06Z</time>
      </trkpt>
      <trkpt lat="45.89704" lon="6.12049">
        <ele>445</ele>
        <time>2013-09-04T00:02:30Z</time>
      </trkpt>
      <trkpt lat="45.89675" lon="6.12077">
        <ele>446</ele>
        <time>2013-09-04T00:02:39Z</time>
      </trkpt>
      <trkpt lat="45.89594" lon="6.12155">
        <ele>451</ele>
        <time>2013-09-04T00:03:02Z</time>
      </trkpt>
      <trkpt lat="45.89517" lon="6.12218">
        <ele>456</ele>
        <time>2013-09-04T00:03:27Z</time>
      </trkpt>
      <trkpt lat="45.89508" lon="6.12224">
        <ele>457</ele>
        <time>2013-09-04T00:03:30Z</time>
      </trkpt>
      <trkpt lat="45.89508" lon="6.12238">
        <ele>457</ele>
        <time>2013-09-04T00:03:33Z</time>
      </trkpt>
      <trkpt lat="45.89524" lon="6.12253">
        <ele>458</ele>
        <time>2013-09-04T00:03:38Z</time>
      </trkpt>
      <trkpt lat="45.89532" lon="6.1227">
        <ele>459</ele>
        <time>2013-09-04T00:03:42Z</time>
      </trkpt>
      <trkpt lat="45.89538" lon="6.12315">
        <ele>461</ele>
        <time>2013-09-04T00:03:50Z</time>
      </trkpt>
      <trkpt lat="45.89536" lon="6.12355">
        <ele>463</ele>
        <time>2013-09-04T00:03:58Z</time>
      </trkpt>
      <trkpt lat="45.89517" lon="6.1243">
        <ele>467</ele>
        <time>2013-09-04T00:04:17Z</time>
      </trkpt>
      <trkpt lat="45.89518" lon="6.12448">
        <ele>469</ele>
        <time>2013-09-04T00:04:22Z</time>
      </trkpt>
      <trkpt lat="45.89518" lon="6.12447">
        <ele>468</ele>
        <time>2013-09-04T00:04:22Z</time>
      </trkpt>
      <trkpt lat="45.89536" lon="6.12544">
        <ele>468</ele>
        <time>2013-09-04T00:04:31Z</time>
      </trkpt>
      <trkpt lat="45.8954" lon="6.12598">
        <ele>468</ele>
        <time>2013-09-04T00:04:36Z</time>
      </trkpt>
      <trkpt lat="45.89527" lon="6.12651">
        <ele>468</ele>
        <time>2013-09-04T00:04:43Z</time>
      </trkpt>
      <trkpt lat="45.89495" lon="6.1274">
        <ele>470</ele>
        <time>2013-09-04T00:04:55Z</time>
      </trkpt>
      <trkpt lat="45.89486" lon="6.12754">
        <ele>470</ele>
        <time>2013-09-04T00:04:59Z</time>
      </trkpt>
      <trkpt lat="45.89472" lon="6.12775">
        <ele>472</ele>
        <time>2013-09-04T00:05:05Z</time>
      </trkpt>
      <trkpt lat="45.8943" lon="6.12818">
        <ele>475</ele>
        <time>2013-09-04T00:05:19Z</time>
      </trkpt>
      <trkpt lat="45.89415" lon="6.12852">
        <ele>477</ele>
        <time>2013-09-04T00:05:27Z</time>
      </trkpt>
      <trkpt lat="45.89409" lon="6.12895">
        <ele>475</ele>
        <time>2013-09-04T00:05:31Z</time>
      </trkpt>
      <trkpt lat="45.89407" lon="6.12985">
        <ele>473</ele>
        <time>2013-09-04T00:05:40Z</time>
      </trkpt>
      <trkpt lat="45.894" lon="6.12998">
        <ele>472</ele>
        <time>2013-09-04T00:05:41Z</time>
      </trkpt>
      <trkpt lat="45.89387" lon="6.13046">
        <ele>472</ele>
        <time>2013-09-04T00:05:46Z</time>
      </trkpt>
      <trkpt lat="45.89378" lon="6.13156">
        <ele>472</ele>
        <time>2013-09-04T00:05:56Z</time>
      </trkpt>
      <trkpt lat="45.89338" lon="6.13245">
        <ele>470</ele>
        <time>2013-09-04T00:06:06Z</time>
      </trkpt>
      <trkpt lat="45.89264" lon="6.13381">
        <ele>469</ele>
        <time>2013-09-04T00:06:22Z</time>
      </trkpt>
      <trkpt lat="45.89241" lon="6.13402">
        <ele>471</ele>
        <time>2013-09-04T00:06:31Z</time>
      </trkpt>
      <trkpt lat="45.89241" lon="6.13402">
        <ele>471</ele>
        <time>2013-09-04T00:06:32Z</time>
      </trkpt>
      <trkpt lat="45.8919" lon="6.13447">
        <ele>477</ele>
        <time>2013-09-04T00:06:54Z</time>
      </trkpt>
      <trkpt lat="45.89169" lon="6.13452">
        <ele>479</ele>
        <time>2013-09-04T00:07:03Z</time>
      </trkpt>
      <trkpt lat="45.89144" lon="6.13447">
        <ele>482</ele>
        <time>2013-09-04T00:07:12Z</time>
      </trkpt>
      <trkpt lat="45.89126" lon="6.13427">
        <ele>488</ele>
        <time>2013-09-04T00:07:31Z</time>
      </trkpt>
      <trkpt lat="45.89088" lon="6.13403">
        <ele>500</ele>
        <time>2013-09-04T00:08:05Z</time>
      </trkpt>
      <trkpt lat="45.89082" lon="6.13396">
        <ele>502</ele>
        <time>2013-09-04T00:08:11Z</time>
      </trkpt>
      <trkpt lat="45.89076" lon="6.13371">
        <ele>507</ele>
        <time>2013-09-04T00:08:26Z</time>
      </trkpt>
      <trkpt lat="45.89083" lon="6.13335">
        <ele>515</ele>
        <time>2013-09-04T00:08:47Z</time>
      </trkpt>
      <trkpt lat="45.89142" lon="6.13297">
        <ele>516</ele>
        <time>2013-09-04T00:08:59Z</time>
      </trkpt>
      <trkpt lat="45.89148" lon="6.13283">
        <ele>516</ele>
        <time>2013-09-04T00:09:01Z</time>
      </trkpt>
      <trkpt lat="45.8915" lon="6.13263">
        <ele>516</ele>
        <time>2013-09-04T00:09:03Z</time>
      </trkpt>
      <trkpt lat="45.89146" lon="6.13246">
        <ele>517</ele>
        <time>2013-09-04T00:09:06Z</time>
      </trkpt>
      <trkpt lat="45.89129" lon="6.13232">
        <ele>517</ele>
        <time>2013-09-04T00:09:09Z</time>
      </trkpt>
      <trkpt lat="45.89052" lon="6.1323">
        <ele>519</ele>
        <time>2013-09-04T00:09:23Z</time>
      </trkpt>
      <trkpt lat="45.89035" lon="6.1324">
        <ele>519</ele>
        <time>2013-09-04T00:09:27Z</time>
      </trkpt>
      <trkpt lat="45.89016" lon="6.13266">
        <ele>519</ele>
        <time>2013-09-04T00:09:32Z</time>
      </trkpt>
      <trkpt lat="45.89008" lon="6.13291">
        <ele>520</ele>
        <time>2013-09-04T00:09:35Z</time>
      </trkpt>
      <trkpt lat="45.88998" lon="6.13351">
        <ele>521</ele>
        <time>2013-09-04T00:09:43Z</time>
      </trkpt>
      <trkpt lat="45.88948" lon="6.13449">
        <ele>523</ele>
        <time>2013-09-04T00:09:58Z</time>
      </trkpt>
      <trkpt lat="45.88917" lon="6.13475">
        <ele>528</ele>
        <time>2013-09-04T00:10:16Z</time>
      </trkpt>
      <trkpt lat="45.88903" lon="6.13474">
        <ele>530</ele>
        <time>2013-09-04T00:10:22Z</time>
      </trkpt>
      <trkpt lat="45.88892" lon="6.13465">
        <ele>532</ele>
        <time>2013-09-04T00:10:28Z</time>
      </trkpt>
      <trkpt lat="45.88883" lon="6.13445">
        <ele>534</ele>
        <time>2013-09-04T00:10:36Z</time>
      </trkpt>
      <trkpt lat="45.88885" lon="6.13419">
        <ele>537</ele>
        <time>2013-09-04T00:10:45Z</time>
      </trkpt>
      <trkpt lat="45.88892" lon="6.13401">
        <ele>539</ele>
        <time>2013-09-04T00:10:52Z</time>
      </trkpt>
      <trkpt lat="45.88923" lon="6.13368">
        <ele>544</ele>
        <time>2013-09-04T00:11:10Z</time>
      </trkpt>
      <trkpt lat="45.8893" lon="6.13342">
        <ele>547</ele>
        <time>2013-09-04T00:11:20Z</time>
      </trkpt>
      <trkpt lat="45.8893" lon="6.13247">
        <ele>557</ele>
        <time>2013-09-04T00:11:51Z</time>
      </trkpt>
      <trkpt lat="45.88914" lon="6.13195">
        <ele>563</ele>
        <time>2013-09-04T00:12:13Z</time>
      </trkpt>
      <trkpt lat="45.88908" lon="6.1316">
        <ele>568</ele>
        <time>2013-09-04T00:12:27Z</time>
      </trkpt>
      <trkpt lat="45.8891" lon="6.13101">
        <ele>575</ele>
        <time>2013-09-04T00:12:49Z</time>
      </trkpt>
      <trkpt lat="45.88922" lon="6.13003">
        <ele>578</ele>
        <time>2013-09-04T00:13:05Z</time>
      </trkpt>
      <trkpt lat="45.88918" lon="6.12984">
        <ele>578</ele>
        <time>2013-09-04T00:13:09Z</time>
      </trkpt>
      <trkpt lat="45.88914" lon="6.12982">
        <ele>578</ele>
        <time>2013-09-04T00:13:10Z</time>
      </trkpt>
      <trkpt lat="45.88906" lon="6.12984">
        <ele>579</ele>
        <time>2013-09-04T00:13:12Z</time>
      </trkpt>
      <trkpt lat="45.88895" lon="6.13008">
        <ele>580</ele>
        <time>2013-09-04T00:13:16Z</time>
      </trkpt>
      <trkpt lat="45.88887" lon="6.13064">
        <ele>581</ele>
        <time>2013-09-04T00:13:26Z</time>
      </trkpt>
      <trkpt lat="45.8888" lon="6.13093">
        <ele>582</ele>
        <time>2013-09-04T00:13:31Z</time>
      </trkpt>
      <trkpt lat="45.88834" lon="6.13179">
        <ele>586</ele>
        <time>2013-09-04T00:13:49Z</time>
      </trkpt>
      <trkpt lat="45.88817" lon="6.1322">
        <ele>584</ele>
        <time>2013-09-04T00:13:53Z</time>
      </trkpt>
      <trkpt lat="45.88807" lon="6.1328">
        <ele>583</ele>
        <time>2013-09-04T00:13:59Z</time>
      </trkpt>
      <trkpt lat="45.88795" lon="6.13317">
        <ele>582</ele>
        <time>2013-09-04T00:14:03Z</time>
      </trkpt>
      <trkpt lat="45.88739" lon="6.13396">
        <ele>586</ele>
        <time>2013-09-04T00:14:23Z</time>
      </trkpt>
      <trkpt lat="45.88723" lon="6.13404">
        <ele>587</ele>
        <time>2013-09-04T00:14:28Z</time>
      </trkpt>
      <trkpt lat="45.8871" lon="6.13398">
        <ele>587</ele>
        <time>2013-09-04T00:14:32Z</time>
      </trkpt>
      <trkpt lat="45.88707" lon="6.13383">
        <ele>588</ele>
        <time>2013-09-04T00:14:35Z</time>
      </trkpt>
      <trkpt lat="45.8871" lon="6.13364">
        <ele>589</ele>
        <time>2013-09-04T00:14:39Z</time>
      </trkpt>
      <trkpt lat="45.88753" lon="6.13304">
        <ele>593</ele>
        <time>2013-09-04T00:14:57Z</time>
      </trkpt>
      <trkpt lat="45.88763" lon="6.13283">
        <ele>595</ele>
        <time>2013-09-04T00:15:02Z</time>
      </trkpt>
      <trkpt lat="45.88797" lon="6.13129">
        <ele>601</ele>
        <time>2013-09-04T00:15:32Z</time>
      </trkpt>
      <trkpt lat="45.88795" lon="6.1309">
        <ele>604</ele>
        <time>2013-09-04T00:15:44Z</time>
      </trkpt>
      <trkpt lat="45.88789" lon="6.13064">
        <ele>606</ele>
        <time>2013-09-04T00:15:52Z</time>
      </trkpt>
      <trkpt lat="45.88755" lon="6.12964">
        <ele>617</ele>
        <time>2013-09-04T00:16:27Z</time>
      </trkpt>
      <trkpt lat="45.88755" lon="6.1294">
        <ele>618</ele>
        <time>2013-09-04T00:16:32Z</time>
      </trkpt>
      <trkpt lat="45.88768" lon="6.12883">
        <ele>621</ele>
        <time>2013-09-04T00:16:45Z</time>
      </trkpt>
      <trkpt lat="45.88765" lon="6.12871">
        <ele>622</ele>
        <time>2013-09-04T00:16:48Z</time>
      </trkpt>
      <trkpt lat="45.88758" lon="6.12861">
        <ele>622</ele>
        <time>2013-09-04T00:16:51Z</time>
      </trkpt>
      <trkpt lat="45.88744" lon="6.1286">
        <ele>623</ele>
        <time>2013-09-04T00:16:55Z</time>
      </trkpt>
      <trkpt lat="45.88733" lon="6.12874">
        <ele>625</ele>
        <time>2013-09-04T00:17:00Z</time>
      </trkpt>
      <trkpt lat="45.88709" lon="6.12997">
        <ele>631</ele>
        <time>2013-09-04T00:17:28Z</time>
      </trkpt>
      <trkpt lat="45.88704" lon="6.13012">
        <ele>632</ele>
        <time>2013-09-04T00:17:32Z</time>
      </trkpt>
      <trkpt lat="45.88682" lon="6.13034">
        <ele>634</ele>
        <time>2013-09-04T00:17:40Z</time>
      </trkpt>
      <trkpt lat="45.88645" lon="6.13063">
        <ele>638</ele>
        <time>2013-09-04T00:17:54Z</time>
      </trkpt>
      <trkpt lat="45.88575" lon="6.13102">
        <ele>650</ele>
        <time>2013-09-04T00:18:33Z</time>
      </trkpt>
      <trkpt lat="45.88516" lon="6.13111">
        <ele>660</ele>
        <time>2013-09-04T00:19:05Z</time>
      </trkpt>
      <trkpt lat="45.88496" lon="6.13106">
        <ele>662</ele>
        <time>2013-09-04T00:19:14Z</time>
      </trkpt>
      <trkpt lat="45.88466" lon="6.13081">
        <ele>667</ele>
        <time>2013-09-04T00:19:29Z</time>
      </trkpt>
      <trkpt lat="45.8845" lon="6.1308">
        <ele>669</ele>
        <time>2013-09-04T00:19:37Z</time>
      </trkpt>
      <trkpt lat="45.88389" lon="6.13111">
        <ele>678</ele>
        <time>2013-09-04T00:20:06Z</time>
      </trkpt>
      <trkpt lat="45.88315" lon="6.13124">
        <ele>682</ele>
        <time>2013-09-04T00:20:27Z</time>
      </trkpt>
      <trkpt lat="45.88297" lon="6.13124">
        <ele>684</ele>
        <time>2013-09-04T00:20:33Z</time>
      </trkpt>
      <trkpt lat="45.88243" lon="6.13109">
        <ele>688</ele>
        <time>2013-09-04T00:20:50Z</time>
      </trkpt>
      <trkpt lat="45.88199" lon="6.13125">
        <ele>692</ele>
        <time>2013-09-04T00:21:05Z</time>
      </trkpt>
      <trkpt lat="45.88183" lon="6.13125">
        <ele>693</ele>
        <time>2013-09-04T00:21:11Z</time>
      </trkpt>
      <trkpt lat="45.88093" lon="6.13113">
        <ele>702</ele>
        <time>2013-09-04T00:21:43Z</time>
      </trkpt>
      <trkpt lat="45.88071" lon="6.13118">
        <ele>703</ele>
        <time>2013-09-04T00:21:50Z</time>
      </trkpt>
      <trkpt lat="45.88034" lon="6.13145">
        <ele>705</ele>
        <time>2013-09-04T00:22:01Z</time>
      </trkpt>
      <trkpt lat="45.88018" lon="6.13142">
        <ele>706</ele>
        <time>2013-09-04T00:22:05Z</time>
      </trkpt>
      <trkpt lat="45.88014" lon="6.13121">
        <ele>707</ele>
        <time>2013-09-04T00:22:09Z</time>
      </trkpt>
      <trkpt lat="45.88016" lon="6.13111">
        <ele>707</ele>
        <time>2013-09-04T00:22:11Z</time>
      </trkpt>
      <trkpt lat="45.8805" lon="6.13085">
        <ele>710</ele>
        <time>2013-09-04T00:22:22Z</time>
      </trkpt>
      <trkpt lat="45.88087" lon="6.13034">
        <ele>713</ele>
        <time>2013-09-04T00:22:36Z</time>
      </trkpt>
      <trkpt lat="45.88101" lon="6.13">
        <ele>714</ele>
        <time>2013-09-04T00:22:44Z</time>
      </trkpt>
      <trkpt lat="45.88106" lon="6.12947">
        <ele>717</ele>
        <time>2013-09-04T00:22:54Z</time>
      </trkpt>
      <trkpt lat="45.88103" lon="6.12882">
        <ele>723</ele>
        <time>2013-09-04T00:23:14Z</time>
      </trkpt>
      <trkpt lat="45.88103" lon="6.12881">
        <ele>723</ele>
        <time>2013-09-04T00:23:14Z</time>
      </trkpt>
      <trkpt lat="45.88099" lon="6.12848">
        <ele>725</ele>
        <time>2013-09-04T00:23:23Z</time>
      </trkpt>
      <trkpt lat="45.88086" lon="6.12834">
        <ele>727</ele>
        <time>2013-09-04T00:23:29Z</time>
      </trkpt>
      <trkpt lat="45.88051" lon="6.12837">
        <ele>730</ele>
        <time>2013-09-04T00:23:43Z</time>
      </trkpt>
      <trkpt lat="45.88008" lon="6.12827">
        <ele>735</ele>
        <time>2013-09-04T00:23:59Z</time>
      </trkpt>
      <trkpt lat="45.87963" lon="6.12844">
        <ele>737</ele>
        <time>2013-09-04T00:24:11Z</time>
      </trkpt>
      <trkpt lat="45.87928" lon="6.12849">
        <ele>739</ele>
        <time>2013-09-04T00:24:20Z</time>
      </trkpt>
      <trkpt lat="45.87917" lon="6.12845">
        <ele>740</ele>
        <time>2013-09-04T00:24:23Z</time>
      </trkpt>
      <trkpt lat="45.87902" lon="6.12829">
        <ele>742</ele>
        <time>2013-09-04T00:24:31Z</time>
      </trkpt>
      <trkpt lat="45.87887" lon="6.12793">
        <ele>745</ele>
        <time>2013-09-04T00:24:42Z</time>
      </trkpt>
      <trkpt lat="45.87877" lon="6.12782">
        <ele>746</ele>
        <time>2013-09-04T00:24:47Z</time>
      </trkpt>
      <trkpt lat="45.87805" lon="6.12745">
        <ele>755</ele>
        <time>2013-09-04T00:25:18Z</time>
      </trkpt>
      <trkpt lat="45.87782" lon="6.12737">
        <ele>756</ele>
        <time>2013-09-04T00:25:25Z</time>
      </trkpt>
      <trkpt lat="45.87719" lon="6.1273">
        <ele>762</ele>
        <time>2013-09-04T00:25:47Z</time>
      </trkpt>
      <trkpt lat="45.87665" lon="6.127">
        <ele>767</ele>
        <time>2013-09-04T00:26:06Z</time>
      </trkpt>
      <trkpt lat="45.8762" lon="6.12666">
        <ele>769</ele>
        <time>2013-09-04T00:26:19Z</time>
      </trkpt>
      <trkpt lat="45.87594" lon="6.12657">
        <ele>770</ele>
        <time>2013-09-04T00:26:25Z</time>
      </trkpt>
      <trkpt lat="45.8757" lon="6.12652">
        <ele>772</ele>
        <time>2013-09-04T00:26:31Z</time>
      </trkpt>
      <trkpt lat="45.87506" lon="6.12651">
        <ele>770</ele>
        <time>2013-09-04T00:26:40Z</time>
      </trkpt>
      <trkpt lat="45.87462" lon="6.12632">
        <ele>770</ele>
        <time>2013-09-04T00:26:46Z</time>
      </trkpt>
      <trkpt lat="45.8744" lon="6.12611">
        <ele>771</ele>
        <time>2013-09-04T00:26:54Z</time>
      </trkpt>
      <trkpt lat="45.87402" lon="6.12553">
        <ele>775</ele>
        <time>2013-09-04T00:27:10Z</time>
      </trkpt>
      <trkpt lat="45.87352" lon="6.12458">
        <ele>781</ele>
        <time>2013-09-04T00:27:34Z</time>
      </trkpt>
      <trkpt lat="45.87329" lon="6.12403">
        <ele>786</ele>
        <time>2013-09-04T00:27:55Z</time>
      </trkpt>
      <trkpt lat="45.87316" lon="6.12383">
        <ele>789</ele>
        <time>2013-09-04T00:28:03Z</time>
      </trkpt>
      <trkpt lat="45.87298" lon="6.12365">
        <ele>792</ele>
        <time>2013-09-04T00:28:13Z</time>
      </trkpt>
      <trkpt lat="45.87244" lon="6.12333">
        <ele>800</ele>
        <time>2013-09-04T00:28:39Z</time>
      </trkpt>
      <trkpt lat="45.87189" lon="6.12326">
        <ele>804</ele>
        <time>2013-09-04T00:28:57Z</time>
      </trkpt>
      <trkpt lat="45.87163" lon="6.12315">
        <ele>806</ele>
        <time>2013-09-04T00:29:06Z</time>
      </trkpt>
      <trkpt lat="45.87135" lon="6.1229">
        <ele>809</ele>
        <time>2013-09-04T00:29:16Z</time>
      </trkpt>
      <trkpt lat="45.87108" lon="6.12257">
        <ele>810</ele>
        <time>2013-09-04T00:29:24Z</time>
      </trkpt>
      <trkpt lat="45.87075" lon="6.12233">
        <ele>811</ele>
        <time>2013-09-04T00:29:32Z</time>
      </trkpt>
      <trkpt lat="45.87001" lon="6.12212">
        <ele>814</ele>
        <time>2013-09-04T00:29:48Z</time>
      </trkpt>
      <trkpt lat="45.86935" lon="6.12172">
        <ele>813</ele>
        <time>2013-09-04T00:29:58Z</time>
      </trkpt>
      <trkpt lat="45.86884" lon="6.12157">
        <ele>813</ele>
        <time>2013-09-04T00:30:05Z</time>
      </trkpt>
      <trkpt lat="45.86791" lon="6.12102">
        <ele>815</ele>
        <time>2013-09-04T00:30:23Z</time>
      </trkpt>
      <trkpt lat="45.8679" lon="6.12102">
        <ele>815</ele>
        <time>2013-09-04T00:30:23Z</time>
      </trkpt>
      <trkpt lat="45.86757" lon="6.12094">
        <ele>815</ele>
        <time>2013-09-04T00:30:29Z</time>
      </trkpt>
      <trkpt lat="45.8668" lon="6.12091">
        <ele>817</ele>
        <time>2013-09-04T00:30:43Z</time>
      </trkpt>
      <trkpt lat="45.86534" lon="6.12111">
        <ele>817</ele>
        <time>2013-09-04T00:31:02Z</time>
      </trkpt>
      <trkpt lat="45.86484" lon="6.12085">
        <ele>818</ele>
        <time>2013-09-04T00:31:12Z</time>
      </trkpt>
      <trkpt lat="45.86454" lon="6.12083">
        <ele>818</ele>
        <time>2013-09-04T00:31:17Z</time>
      </trkpt>
      <trkpt lat="45.86437" lon="6.12089">
        <ele>819</ele>
        <time>2013-09-04T00:31:20Z</time>
      </trkpt>
      <trkpt lat="45.8641" lon="6.12117">
        <ele>819</ele>
        <time>2013-09-04T00:31:25Z</time>
      </trkpt>
      <trkpt lat="45.86322" lon="6.12271">
        <ele>819</ele>
        <time>2013-09-04T00:31:43Z</time>
      </trkpt>
      <trkpt lat="45.86302" lon="6.12287">
        <ele>819</ele>
        <time>2013-09-04T00:31:47Z</time>
      </trkpt>
      <trkpt lat="45.86278" lon="6.12289">
        <ele>819</ele>
        <time>2013-09-04T00:31:51Z</time>
      </trkpt>
      <trkpt lat="45.86256" lon="6.12285">
        <ele>820</ele>
        <time>2013-09-04T00:31:55Z</time>
      </trkpt>
      <trkpt lat="45.86197" lon="6.12253">
        <ele>821</ele>
        <time>2013-09-04T00:32:06Z</time>
      </trkpt>
      <trkpt lat="45.86164" lon="6.12246">
        <ele>823</ele>
        <time>2013-09-04T00:32:15Z</time>
      </trkpt>
      <trkpt lat="45.86076" lon="6.12264">
        <ele>829</ele>
        <time>2013-09-04T00:32:41Z</time>
      </trkpt>
      <trkpt lat="45.85972" lon="6.12271">
        <ele>836</ele>
        <time>2013-09-04T00:33:12Z</time>
      </trkpt>
      <trkpt lat="45.85926" lon="6.12244">
        <ele>837</ele>
        <time>2013-09-04T00:33:22Z</time>
      </trkpt>
      <trkpt lat="45.85871" lon="6.12189">
        <ele>839</ele>
        <time>2013-09-04T00:33:35Z</time>
      </trkpt>
      <trkpt lat="45.8583" lon="6.12158">
        <ele>839</ele>
        <time>2013-09-04T00:33:42Z</time>
      </trkpt>
      <trkpt lat="45.85813" lon="6.12135">
        <ele>839</ele>
        <time>2013-09-04T00:33:45Z</time>
      </trkpt>
      <trkpt lat="45.85754" lon="6.1203">
        <ele>840</ele>
        <time>2013-09-04T00:33:59Z</time>
      </trkpt>
      <trkpt lat="45.85749" lon="6.11998">
        <ele>840</ele>
        <time>2013-09-04T00:34:02Z</time>
      </trkpt>
      <trkpt lat="45.85754" lon="6.1188">
        <ele>840</ele>
        <time>2013-09-04T00:34:13Z</time>
      </trkpt>
      <trkpt lat="45.85742" lon="6.11818">
        <ele>843</ele>
        <time>2013-09-04T00:34:27Z</time>
      </trkpt>
      <trkpt lat="45.85744" lon="6.11748">
        <ele>847</ele>
        <time>2013-09-04T00:34:42Z</time>
      </trkpt>
      <trkpt lat="45.85733" lon="6.11723">
        <ele>848</ele>
        <time>2013-09-04T00:34:48Z</time>
      </trkpt>
      <trkpt lat="45.85703" lon="6.11707">
        <ele>849</ele>
        <time>2013-09-04T00:34:56Z</time>
      </trkpt>
      <trkpt lat="45.85611" lon="6.117">
        <ele>855</ele>
        <time>2013-09-04T00:35:21Z</time>
      </trkpt>
      <trkpt lat="45.85584" lon="6.11686">
        <ele>857</ele>
        <time>2013-09-04T00:35:30Z</time>
      </trkpt>
      <trkpt lat="45.85561" lon="6.11652">
        <ele>859</ele>
        <time>2013-09-04T00:35:40Z</time>
      </trkpt>
      <trkpt lat="45.8554" lon="6.11565">
        <ele>864</ele>
        <time>2013-09-04T00:35:59Z</time>
      </trkpt>
      <trkpt lat="45.85527" lon="6.11541">
        <ele>865</ele>
        <time>2013-09-04T00:36:05Z</time>
      </trkpt>
      <trkpt lat="45.85511" lon="6.11523">
        <ele>866</ele>
        <time>2013-09-04T00:36:11Z</time>
      </trkpt>
      <trkpt lat="45.85496" lon="6.11512">
        <ele>867</ele>
        <time>2013-09-04T00:36:16Z</time>
      </trkpt>
      <trkpt lat="45.85486" lon="6.1151">
        <ele>868</ele>
        <time>2013-09-04T00:36:18Z</time>
      </trkpt>
      <trkpt lat="45.85387" lon="6.11523">
        <ele>874</ele>
        <time>2013-09-04T00:36:46Z</time>
      </trkpt>
      <trkpt lat="45.85339" lon="6.11507">
        <ele>875</ele>
        <time>2013-09-04T00:36:57Z</time>
      </trkpt>
      <trkpt lat="45.85247" lon="6.11448">
        <ele>880</ele>
        <time>2013-09-04T00:37:20Z</time>
      </trkpt>
      <trkpt lat="45.85236" lon="6.11436">
        <ele>880</ele>
        <time>2013-09-04T00:37:22Z</time>
      </trkpt>
      <trkpt lat="45.85194" lon="6.11362">
        <ele>880</ele>
        <time>2013-09-04T00:37:31Z</time>
      </trkpt>
      <trkpt lat="45.85177" lon="6.11338">
        <ele>880</ele>
        <time>2013-09-04T00:37:34Z</time>
      </trkpt>
      <trkpt lat="45.85158" lon="6.11321">
        <ele>880</ele>
        <time>2013-09-04T00:37:38Z</time>
      </trkpt>
      <trkpt lat="45.85068" lon="6.11298">
        <ele>881</ele>
        <time>2013-09-04T00:37:52Z</time>
      </trkpt>
      <trkpt lat="45.8498" lon="6.11236">
        <ele>889</ele>
        <time>2013-09-04T00:38:24Z</time>
      </trkpt>
      <trkpt lat="45.84889" lon="6.11207">
        <ele>899</ele>
        <time>2013-09-04T00:39:00Z</time>
      </trkpt>
      <trkpt lat="45.84825" lon="6.11163">
        <ele>904</ele>
        <time>2013-09-04T00:39:23Z</time>
      </trkpt>
      <trkpt lat="45.84663" lon="6.11131">
        <ele>917</ele>
        <time>2013-09-04T00:40:15Z</time>
      </trkpt>
      <trkpt lat="45.84617" lon="6.11116">
        <ele>922</ele>
        <time>2013-09-04T00:40:35Z</time>
      </trkpt>
      <trkpt lat="45.84553" lon="6.11085">
        <ele>931</ele>
        <time>2013-09-04T00:41:04Z</time>
      </trkpt>
      <trkpt lat="45.84523" lon="6.1106">
        <ele>932</ele>
        <time>2013-09-04T00:41:13Z</time>
      </trkpt>
      <trkpt lat="45.8449" lon="6.11024">
        <ele>935</ele>
        <time>2013-09-04T00:41:24Z</time>
      </trkpt>
      <trkpt lat="45.8449" lon="6.11023">
        <ele>935</ele>
        <time>2013-09-04T00:41:24Z</time>
      </trkpt>
      <trkpt lat="45.84462" lon="6.10994">
        <ele>937</ele>
        <time>2013-09-04T00:41:33Z</time>
      </trkpt>
      <trkpt lat="45.84361" lon="6.10913">
        <ele>944</ele>
        <time>2013-09-04T00:42:05Z</time>
      </trkpt>
      <trkpt lat="45.84277" lon="6.10873">
        <ele>953</ele>
        <time>2013-09-04T00:42:41Z</time>
      </trkpt>
      <trkpt lat="45.84244" lon="6.10846">
        <ele>958</ele>
        <time>2013-09-04T00:42:56Z</time>
      </trkpt>
      <trkpt lat="45.84204" lon="6.10827">
        <ele>961</ele>
        <time>2013-09-04T00:43:11Z</time>
      </trkpt>
      <trkpt lat="45.84121" lon="6.10766">
        <ele>970</ele>
        <time>2013-09-04T00:43:43Z</time>
      </trkpt>
      <trkpt lat="45.84025" lon="6.10725">
        <ele>980</ele>
        <time>2013-09-04T00:44:20Z</time>
      </trkpt>
      <trkpt lat="45.83904" lon="6.10637">
        <ele>988</ele>
        <time>2013-09-04T00:44:58Z</time>
      </trkpt>
      <trkpt lat="45.83818" lon="6.10584">
        <ele>1003</ele>
        <time>2013-09-04T00:45:46Z</time>
      </trkpt>
      <trkpt lat="45.83771" lon="6.10563">
        <ele>1012</ele>
        <time>2013-09-04T00:46:16Z</time>
      </trkpt>
      <trkpt lat="45.83688" lon="6.10504">
        <ele>1031</ele>
        <time>2013-09-04T00:47:12Z</time>
      </trkpt>
      <trkpt lat="45.8365" lon="6.10464">
        <ele>1036</ele>
        <time>2013-09-04T00:47:31Z</time>
      </trkpt>
      <trkpt lat="45.83619" lon="6.10405">
        <ele>1042</ele>
        <time>2013-09-04T00:47:52Z</time>
      </trkpt>
      <trkpt lat="45.8359" lon="6.10367">
        <ele>1046</ele>
        <time>2013-09-04T00:48:09Z</time>
      </trkpt>
      <trkpt lat="45.83545" lon="6.10341">
        <ele>1052</ele>
        <time>2013-09-04T00:48:29Z</time>
      </trkpt>
      <trkpt lat="45.83447" lon="6.10311">
        <ele>1065</ele>
        <time>2013-09-04T00:49:12Z</time>
      </trkpt>
      <trkpt lat="45.83406" lon="6.10282">
        <ele>1066</ele>
        <time>2013-09-04T00:49:23Z</time>
      </trkpt>
      <trkpt lat="45.83345" lon="6.10223">
        <ele>1070</ele>
        <time>2013-09-04T00:49:40Z</time>
      </trkpt>
      <trkpt lat="45.83191" lon="6.10039">
        <ele>1068</ele>
        <time>2013-09-04T00:50:07Z</time>
      </trkpt>
      <trkpt lat="45.831" lon="6.09974">
        <ele>1074</ele>
        <time>2013-09-04T00:50:35Z</time>
      </trkpt>
      <trkpt lat="45.83038" lon="6.0995">
        <ele>1085</ele>
        <time>2013-09-04T00:51:10Z</time>
      </trkpt>
      <trkpt lat="45.83031" lon="6.09952">
        <ele>1086</ele>
        <time>2013-09-04T00:51:14Z</time>
      </trkpt>
      <trkpt lat="45.83028" lon="6.0996">
        <ele>1087</ele>
        <time>2013-09-04T00:51:18Z</time>
      </trkpt>
      <trkpt lat="45.83029" lon="6.09969">
        <ele>1088</ele>
        <time>2013-09-04T00:51:21Z</time>
      </trkpt>
      <trkpt lat="45.83036" lon="6.09976">
        <ele>1090</ele>
        <time>2013-09-04T00:51:26Z</time>
      </trkpt>
      <trkpt lat="45.83063" lon="6.09993">
        <ele>1095</ele>
        <time>2013-09-04T00:51:42Z</time>
      </trkpt>
      <trkpt lat="45.83086" lon="6.10031">
        <ele>1101</ele>
        <time>2013-09-04T00:52:02Z</time>
      </trkpt>
      <trkpt lat="45.83092" lon="6.10053">
        <ele>1104</ele>
        <time>2013-09-04T00:52:11Z</time>
      </trkpt>
      <trkpt lat="45.83108" lon="6.10146">
        <ele>1116</ele>
        <time>2013-09-04T00:52:48Z</time>
      </trkpt>
      <trkpt lat="45.83121" lon="6.10196">
        <ele>1117</ele>
        <time>2013-09-04T00:52:56Z</time>
      </trkpt>
      <trkpt lat="45.83139" lon="6.10237">
        <ele>1118</ele>
        <time>2013-09-04T00:53:03Z</time>
      </trkpt>
      <trkpt lat="45.83171" lon="6.10262">
        <ele>1120</ele>
        <time>2013-09-04T00:53:12Z</time>
      </trkpt>
      <trkpt lat="45.83172" lon="6.10271">
        <ele>1120</ele>
        <time>2013-09-04T00:53:15Z</time>
      </trkpt>
      <trkpt lat="45.83168" lon="6.10282">
        <ele>1122</ele>
        <time>2013-09-04T00:53:19Z</time>
      </trkpt>
      <trkpt lat="45.83158" lon="6.10282">
        <ele>1123</ele>
        <time>2013-09-04T00:53:24Z</time>
      </trkpt>
      <trkpt lat="45.83091" lon="6.10239">
        <ele>1134</ele>
        <time>2013-09-04T00:53:59Z</time>
      </trkpt>
      <trkpt lat="45.83063" lon="6.10215">
        <ele>1139</ele>
        <time>2013-09-04T00:54:15Z</time>
      </trkpt>
      <trkpt lat="45.83022" lon="6.10161">
        <ele>1141</ele>
        <time>2013-09-04T00:54:29Z</time>
      </trkpt>
      <trkpt lat="45.82946" lon="6.10118">
        <ele>1146</ele>
        <time>2013-09-04T00:54:50Z</time>
      </trkpt>
      <trkpt lat="45.82919" lon="6.10087">
        <ele>1145</ele>
        <time>2013-09-04T00:54:54Z</time>
      </trkpt>
      <trkpt lat="45.82919" lon="6.10086">
        <ele>1145</ele>
        <time>2013-09-04T00:54:55Z</time>
      </trkpt>
      <trkpt lat="45.82898" lon="6.1006">
        <ele>1146</ele>
        <time>2013-09-04T00:55:01Z</time>
      </trkpt>
      <trkpt lat="45.82857" lon="6.10034">
        <ele>1148</ele>
        <time>2013-09-04T00:55:12Z</time>
      </trkpt>
      <trkpt lat="45.82835" lon="6.10027">
        <ele>1149</ele>
        <time>2013-09-04T00:55:17Z</time>
      </trkpt>
      <trkpt lat="45.82776" lon="6.10029">
        <ele>1153</ele>
        <time>2013-09-04T00:55:36Z</time>
      </trkpt>
      <trkpt lat="45.82751" lon="6.10016">
        <ele>1155</ele>
        <time>2013-09-04T00:55:45Z</time>
      </trkpt>
      <trkpt lat="45.82662" lon="6.09949">
        <ele>1164</ele>
        <time>2013-09-04T00:56:18Z</time>
      </trkpt>
      <trkpt lat="45.82574" lon="6.0992">
        <ele>1173</ele>
        <time>2013-09-04T00:56:51Z</time>
      </trkpt>
      <trkpt lat="45.82491" lon="6.09866">
        <ele>1174</ele>
        <time>2013-09-04T00:57:06Z</time>
      </trkpt>
      <trkpt lat="45.82431" lon="6.09849">
        <ele>1180</ele>
        <time>2013-09-04T00:57:31Z</time>
      </trkpt>
      <trkpt lat="45.82351" lon="6.09836">
        <ele>1190</ele>
        <time>2013-09-04T00:58:03Z</time>
      </trkpt>
      <trkpt lat="45.82331" lon="6.09824">
        <ele>1190</ele>
        <time>2013-09-04T00:58:08Z</time>
      </trkpt>
      <trkpt lat="45.82295" lon="6.09792">
        <ele>1192</ele>
        <time>2013-09-04T00:58:18Z</time>
      </trkpt>
      <trkpt lat="45.82264" lon="6.09789">
        <ele>1194</ele>
        <time>2013-09-04T00:58:26Z</time>
      </trkpt>
      <trkpt lat="45.8224" lon="6.09796">
        <ele>1201</ele>
        <time>2013-09-04T00:58:47Z</time>
      </trkpt>
      <trkpt lat="45.82197" lon="6.09837">
        <ele>1217</ele>
        <time>2013-09-04T00:59:31Z</time>
      </trkpt>
      <trkpt lat="45.82167" lon="6.09886">
        <ele>1231</ele>
        <time>2013-09-04T01:00:11Z</time>
      </trkpt>
      <trkpt lat="45.82118" lon="6.09897">
        <ele>1242</ele>
        <time>2013-09-04T01:00:45Z</time>
      </trkpt>
      <trkpt lat="45.82088" lon="6.09918">
        <ele>1250</ele>
        <time>2013-09-04T01:01:08Z</time>
      </trkpt>
      <trkpt lat="45.82072" lon="6.09923">
        <ele>1254</ele>
        <time>2013-09-04T01:01:19Z</time>
      </trkpt>
      <trkpt lat="45.82015" lon="6.09904">
        <ele>1263</ele>
        <time>2013-09-04T01:01:51Z</time>
      </trkpt>
      <trkpt lat="45.81974" lon="6.09905">
        <ele>1271</ele>
        <time>2013-09-04T01:02:13Z</time>
      </trkpt>
      <trkpt lat="45.81949" lon="6.09898">
        <ele>1273</ele>
        <time>2013-09-04T01:02:22Z</time>
      </trkpt>
      <trkpt lat="45.81883" lon="6.09854">
        <ele>1279</ele>
        <time>2013-09-04T01:02:45Z</time>
      </trkpt>
      <trkpt lat="45.81843" lon="6.09825">
        <ele>1282</ele>
        <time>2013-09-04T01:03:00Z</time>
      </trkpt>
      <trkpt lat="45.8182" lon="6.098">
        <ele>1284</ele>
        <time>2013-09-04T01:03:09Z</time>
      </trkpt>
      <trkpt lat="45.81809" lon="6.09795">
        <ele>1285</ele>
        <time>2013-09-04T01:03:13Z</time>
      </trkpt>
      <trkpt lat="45.81803" lon="6.09806">
        <ele>1286</ele>
        <time>2013-09-04T01:03:16Z</time>
      </trkpt>
      <trkpt lat="45.81804" lon="6.09815">
        <ele>1286</ele>
        <time>2013-09-04T01:03:18Z</time>
      </trkpt>
      <trkpt lat="45.81847" lon="6.09862">
        <ele>1290</ele>
        <time>2013-09-04T01:03:35Z</time>
      </trkpt>
      <trkpt lat="45.81901" lon="6.09961">
        <ele>1297</ele>
        <time>2013-09-04T01:04:03Z</time>
      </trkpt>
      <trkpt lat="45.81953" lon="6.10025">
        <ele>1303</ele>
        <time>2013-09-04T01:04:25Z</time>
      </trkpt>
      <trkpt lat="45.81974" lon="6.10062">
        <ele>1309</ele>
        <time>2013-09-04T01:04:44Z</time>
      </trkpt>
      <trkpt lat="45.81979" lon="6.10087">
        <ele>1312</ele>
        <time>2013-09-04T01:04:55Z</time>
      </trkpt>
      <trkpt lat="45.81977" lon="6.10142">
        <ele>1319</ele>
        <time>2013-09-04T01:05:17Z</time>
      </trkpt>
      <trkpt lat="45.81982" lon="6.10173">
        <ele>1324</ele>
        <time>2013-09-04T01:05:30Z</time>
      </trkpt>
      <trkpt lat="45.82043" lon="6.10341">
        <ele>1331</ele>
        <time>2013-09-04T01:06:04Z</time>
      </trkpt>
      <trkpt lat="45.82081" lon="6.10413">
        <ele>1336</ele>
        <time>2013-09-04T01:06:26Z</time>
      </trkpt>
      <trkpt lat="45.82077" lon="6.10433">
        <ele>1337</ele>
        <time>2013-09-04T01:06:31Z</time>
      </trkpt>
      <trkpt lat="45.82063" lon="6.10436">
        <ele>1338</ele>
        <time>2013-09-04T01:06:36Z</time>
      </trkpt>
      <trkpt lat="45.82013" lon="6.10377">
        <ele>1344</ele>
        <time>2013-09-04T01:06:58Z</time>
      </trkpt>
      <trkpt lat="45.81986" lon="6.10366">
        <ele>1346</ele>
        <time>2013-09-04T01:07:07Z</time>
      </trkpt>
      <trkpt lat="45.81977" lon="6.10369">
        <ele>1347</ele>
        <time>2013-09-04T01:07:10Z</time>
      </trkpt>
      <trkpt lat="45.81965" lon="6.10382">
        <ele>1349</ele>
        <time>2013-09-04T01:07:16Z</time>
      </trkpt>
      <trkpt lat="45.81959" lon="6.10431">
        <ele>1352</ele>
        <time>2013-09-04T01:07:27Z</time>
      </trkpt>
      <trkpt lat="45.81952" lon="6.10452">
        <ele>1353</ele>
        <time>2013-09-04T01:07:33Z</time>
      </trkpt>
      <trkpt lat="45.81935" lon="6.10465">
        <ele>1355</ele>
        <time>2013-09-04T01:07:40Z</time>
      </trkpt>
      <trkpt lat="45.81923" lon="6.10466">
        <ele>1356</ele>
        <time>2013-09-04T01:07:44Z</time>
      </trkpt>
      <trkpt lat="45.8191" lon="6.10461">
        <ele>1357</ele>
        <time>2013-09-04T01:07:49Z</time>
      </trkpt>
      <trkpt lat="45.8179" lon="6.10343">
        <ele>1371</ele>
        <time>2013-09-04T01:08:41Z</time>
      </trkpt>
      <trkpt lat="45.81771" lon="6.10334">
        <ele>1370</ele>
        <time>2013-09-04T01:08:43Z</time>
      </trkpt>
      <trkpt lat="45.81744" lon="6.10331">
        <ele>1370</ele>
        <time>2013-09-04T01:08:47Z</time>
      </trkpt>
      <trkpt lat="45.81736" lon="6.10323">
        <ele>1370</ele>
        <time>2013-09-04T01:08:48Z</time>
      </trkpt>
      <trkpt lat="45.8173" lon="6.10308">
        <ele>1370</ele>
        <time>2013-09-04T01:08:50Z</time>
      </trkpt>
      <trkpt lat="45.81724" lon="6.10231">
        <ele>1370</ele>
        <time>2013-09-04T01:08:57Z</time>
      </trkpt>
      <trkpt lat="45.81717" lon="6.10201">
        <ele>1368</ele>
        <time>2013-09-04T01:09:00Z</time>
      </trkpt>
      <trkpt lat="45.81694" lon="6.10143">
        <ele>1365</ele>
        <time>2013-09-04T01:09:06Z</time>
      </trkpt>
      <trkpt lat="45.81676" lon="6.10114">
        <ele>1364</ele>
        <time>2013-09-04T01:09:10Z</time>
      </trkpt>
      <trkpt lat="45.8166" lon="6.10097">
        <ele>1366</ele>
        <time>2013-09-04T01:09:18Z</time>
      </trkpt>
      <trkpt lat="45.8164" lon="6.10085">
        <ele>1369</ele>
        <time>2013-09-04T01:09:28Z</time>
      </trkpt>
      <trkpt lat="45.81537" lon="6.10051">
        <ele>1382</ele>
        <time>2013-09-04T01:10:13Z</time>
      </trkpt>
      <trkpt lat="45.81482" lon="6.10068">
        <ele>1392</ele>
        <time>2013-09-04T01:10:45Z</time>
      </trkpt>
      <trkpt lat="45.81466" lon="6.10065">
        <ele>1395</ele>
        <time>2013-09-04T01:10:55Z</time>
      </trkpt>
      <trkpt lat="45.81433" lon="6.1005">
        <ele>1402</ele>
        <time>2013-09-04T01:11:15Z</time>
      </trkpt>
      <trkpt lat="45.81385" lon="6.10047">
        <ele>1405</ele>
        <time>2013-09-04T01:11:30Z</time>
      </trkpt>
      <trkpt lat="45.81363" lon="6.10034">
        <ele>1407</ele>
        <time>2013-09-04T01:11:37Z</time>
      </trkpt>
      <trkpt lat="45.81351" lon="6.1002">
        <ele>1408</ele>
        <time>2013-09-04T01:11:42Z</time>
      </trkpt>
      <trkpt lat="45.81313" lon="6.09953">
        <ele>1413</ele>
        <time>2013-09-04T01:12:01Z</time>
      </trkpt>
      <trkpt lat="45.81295" lon="6.09931">
        <ele>1415</ele>
        <time>2013-09-04T01:12:10Z</time>
      </trkpt>
      <trkpt lat="45.81266" lon="6.09906">
        <ele>1419</ele>
        <time>2013-09-04T01:12:24Z</time>
      </trkpt>
      <trkpt lat="45.81247" lon="6.09905">
        <ele>1421</ele>
        <time>2013-09-04T01:12:31Z</time>
      </trkpt>
      <trkpt lat="45.81207" lon="6.0992">
        <ele>1426</ele>
        <time>2013-09-04T01:12:48Z</time>
      </trkpt>
      <trkpt lat="45.8114" lon="6.09919">
        <ele>1430</ele>
        <time>2013-09-04T01:13:08Z</time>
      </trkpt>
      <trkpt lat="45.81128" lon="6.09915">
        <ele>1431</ele>
        <time>2013-09-04T01:13:11Z</time>
      </trkpt>
      <trkpt lat="45.81101" lon="6.09874">
        <ele>1434</ele>
        <time>2013-09-04T01:13:23Z</time>
      </trkpt>
      <trkpt lat="45.81059" lon="6.09839">
        <ele>1437</ele>
        <time>2013-09-04T01:13:38Z</time>
      </trkpt>
      <trkpt lat="45.81007" lon="6.09835">
        <ele>1441</ele>
        <time>2013-09-04T01:13:53Z</time>
      </trkpt>
      <trkpt lat="45.8095" lon="6.09849">
        <ele>1448</ele>
        <time>2013-09-04T01:14:19Z</time>
      </trkpt>
      <trkpt lat="45.80942" lon="6.0986">
        <ele>1450</ele>
        <time>2013-09-04T01:14:24Z</time>
      </trkpt>
      <trkpt lat="45.80941" lon="6.09877">
        <ele>1451</ele>
        <time>2013-09-04T01:14:30Z</time>
      </trkpt>
      <trkpt lat="45.80972" lon="6.09952">
        <ele>1459</ele>
        <time>2013-09-04T01:14:57Z</time>
      </trkpt>
      <trkpt lat="45.80975" lon="6.09978">
        <ele>1462</ele>
        <time>2013-09-04T01:15:05Z</time>
      </trkpt>
      <trkpt lat="45.80973" lon="6.10001">
        <ele>1464</ele>
        <time>2013-09-04T01:15:14Z</time>
      </trkpt>
      <trkpt lat="45.80957" lon="6.10035">
        <ele>1469</ele>
        <time>2013-09-04T01:15:29Z</time>
      </trkpt>
      <trkpt lat="45.80899" lon="6.10082">
        <ele>1481</ele>
        <time>2013-09-04T01:16:05Z</time>
      </trkpt>
      <trkpt lat="45.80899" lon="6.10082">
        <ele>1481</ele>
        <time>2013-09-04T01:16:06Z</time>
      </trkpt>
      <trkpt lat="45.80844" lon="6.10126">
        <ele>1488</ele>
        <time>2013-09-04T01:16:34Z</time>
      </trkpt>
      <trkpt lat="45.80829" lon="6.10144">
        <ele>1491</ele>
        <time>2013-09-04T01:16:42Z</time>
      </trkpt>
      <trkpt lat="45.80821" lon="6.10175">
        <ele>1494</ele>
        <time>2013-09-04T01:16:52Z</time>
      </trkpt>
      <trkpt lat="45.80821" lon="6.10232">
        <ele>1496</ele>
        <time>2013-09-04T01:17:03Z</time>
      </trkpt>
      <trkpt lat="45.80806" lon="6.10259">
        <ele>1497</ele>
        <time>2013-09-04T01:17:10Z</time>
      </trkpt>
      <trkpt lat="45.80761" lon="6.10291">
        <ele>1501</ele>
        <time>2013-09-04T01:17:24Z</time>
      </trkpt>
      <trkpt lat="45.80741" lon="6.10313">
        <ele>1503</ele>
        <time>2013-09-04T01:17:34Z</time>
      </trkpt>
      <trkpt lat="45.80685" lon="6.10355">
        <ele>1510</ele>
        <time>2013-09-04T01:17:58Z</time>
      </trkpt>
      <trkpt lat="45.80636" lon="6.1038">
        <ele>1516</ele>
        <time>2013-09-04T01:18:19Z</time>
      </trkpt>
      <trkpt lat="45.80605" lon="6.10388">
        <ele>1519</ele>
        <time>2013-09-04T01:18:32Z</time>
      </trkpt>
      <trkpt lat="45.80515" lon="6.10386">
        <ele>1531</ele>
        <time>2013-09-04T01:19:11Z</time>
      </trkpt>
      <trkpt lat="45.8038" lon="6.10326">
        <ele>1535</ele>
        <time>2013-09-04T01:19:39Z</time>
      </trkpt>
      <trkpt lat="45.80239" lon="6.10289">
        <ele>1536</ele>
        <time>2013-09-04T01:20:01Z</time>
      </trkpt>
      <trkpt lat="45.80215" lon="6.10302">
        <ele>1538</ele>
        <time>2013-09-04T01:20:10Z</time>
      </trkpt>
      <trkpt lat="45.8014" lon="6.10393">
        <ele>1548</ele>
        <time>2013-09-04T01:20:46Z</time>
      </trkpt>
      <trkpt lat="45.80114" lon="6.10433">
        <ele>1554</ele>
        <time>2013-09-04T01:21:08Z</time>
      </trkpt>
      <trkpt lat="45.80107" lon="6.10451">
        <ele>1557</ele>
        <time>2013-09-04T01:21:16Z</time>
      </trkpt>
      <trkpt lat="45.80092" lon="6.10596">
        <ele>1576</ele>
        <time>2013-09-04T01:22:14Z</time>
      </trkpt>
      <trkpt lat="45.80096" lon="6.10614">
        <ele>1578</ele>
        <time>2013-09-04T01:22:23Z</time>
      </trkpt>
      <trkpt lat="45.80106" lon="6.10633">
        <ele>1582</ele>
        <time>2013-09-04T01:22:33Z</time>
      </trkpt>
      <trkpt lat="45.80135" lon="6.10662">
        <ele>1589</ele>
        <time>2013-09-04T01:22:56Z</time>
      </trkpt>
      <trkpt lat="45.80155" lon="6.10692">
        <ele>1596</ele>
        <time>2013-09-04T01:23:15Z</time>
      </trkpt>
      <trkpt lat="45.80198" lon="6.10781">
        <ele>1604</ele>
        <time>2013-09-04T01:23:45Z</time>
      </trkpt>
      <trkpt lat="45.80211" lon="6.10824">
        <ele>1608</ele>
        <time>2013-09-04T01:23:58Z</time>
      </trkpt>
      <trkpt lat="45.80214" lon="6.1085">
        <ele>1608</ele>
        <time>2013-09-04T01:24:01Z</time>
      </trkpt>
      <trkpt lat="45.80213" lon="6.1091">
        <ele>1609</ele>
        <time>2013-09-04T01:24:09Z</time>
      </trkpt>
      <trkpt lat="45.80236" lon="6.11034">
        <ele>1611</ele>
        <time>2013-09-04T01:24:25Z</time>
      </trkpt>
      <trkpt lat="45.80232" lon="6.11054">
        <ele>1612</ele>
        <time>2013-09-04T01:24:31Z</time>
      </trkpt>
      <trkpt lat="45.8022" lon="6.11062">
        <ele>1614</ele>
        <time>2013-09-04T01:24:36Z</time>
      </trkpt>
      <trkpt lat="45.80197" lon="6.11052">
        <ele>1616</ele>
        <time>2013-09-04T01:24:46Z</time>
      </trkpt>
      <trkpt lat="45.8007" lon="6.10943">
        <ele>1634</ele>
        <time>2013-09-04T01:25:47Z</time>
      </trkpt>
      <trkpt lat="45.79973" lon="6.10887">
        <ele>1640</ele>
        <time>2013-09-04T01:26:15Z</time>
      </trkpt>
      <trkpt lat="45.79953" lon="6.10849">
        <ele>1640</ele>
        <time>2013-09-04T01:26:21Z</time>
      </trkpt>
      <trkpt lat="45.79925" lon="6.10764">
        <ele>1642</ele>
        <time>2013-09-04T01:26:33Z</time>
      </trkpt>
      <trkpt lat="45.7991" lon="6.10745">
        <ele>1645</ele>
        <time>2013-09-04T01:26:44Z</time>
      </trkpt>
      <trkpt lat="45.79885" lon="6.10725">
        <ele>1649</ele>
        <time>2013-09-04T01:26:58Z</time>
      </trkpt>
      <trkpt lat="45.79856" lon="6.10707">
        <ele>1654</ele>
        <time>2013-09-04T01:27:14Z</time>
      </trkpt>
      <trkpt lat="45.79847" lon="6.10706">
        <ele>1656</ele>
        <time>2013-09-04T01:27:19Z</time>
      </trkpt>
      <trkpt lat="45.79812" lon="6.10726">
        <ele>1662</ele>
        <time>2013-09-04T01:27:38Z</time>
      </trkpt>
      <trkpt lat="45.7978" lon="6.10725">
        <ele>1662</ele>
        <time>2013-09-04T01:27:44Z</time>
      </trkpt>
      <trkpt lat="45.79672" lon="6.10653">
        <ele>1664</ele>
        <time>2013-09-04T01:28:03Z</time>
      </trkpt>
      <trkpt lat="45.79653" lon="6.10625">
        <ele>1666</ele>
        <time>2013-09-04T01:28:14Z</time>
      </trkpt>
      <trkpt lat="45.79624" lon="6.10534">
        <ele>1674</ele>
        <time>2013-09-04T01:28:40Z</time>
      </trkpt>
      <trkpt lat="45.79599" lon="6.10474">
        <ele>1673</ele>
        <time>2013-09-04T01:28:47Z</time>
      </trkpt>
      <trkpt lat="45.79577" lon="6.10395">
        <ele>1672</ele>
        <time>2013-09-04T01:28:55Z</time>
      </trkpt>
      <trkpt lat="45.79551" lon="6.1034">
        <ele>1666</ele>
        <time>2013-09-04T01:29:01Z</time>
      </trkpt>
      <trkpt lat="45.79532" lon="6.10319">
        <ele>1663</ele>
        <time>2013-09-04T01:29:04Z</time>
      </trkpt>
      <trkpt lat="45.79514" lon="6.10306">
        <ele>1660</ele>
        <time>2013-09-04T01:29:07Z</time>
      </trkpt>
      <trkpt lat="45.79453" lon="6.10275">
        <ele>1653</ele>
        <time>2013-09-04T01:29:15Z</time>
      </trkpt>
      <trkpt lat="45.79407" lon="6.10229">
        <ele>1647</ele>
        <time>2013-09-04T01:29:23Z</time>
      </trkpt>
      <trkpt lat="45.79382" lon="6.10221">
        <ele>1645</ele>
        <time>2013-09-04T01:29:26Z</time>
      </trkpt>
      <trkpt lat="45.79357" lon="6.10223">
        <ele>1643</ele>
        <time>2013-09-04T01:29:30Z</time>
      </trkpt>
      <trkpt lat="45.79324" lon="6.10227">
        <ele>1641</ele>
        <time>2013-09-04T01:29:34Z</time>
      </trkpt>
      <trkpt lat="45.79256" lon="6.10203">
        <ele>1637</ele>
        <time>2013-09-04T01:29:43Z</time>
      </trkpt>
      <trkpt lat="45.79252" lon="6.10206">
        <ele>1636</ele>
        <time>2013-09-04T01:29:44Z</time>
      </trkpt>
      <trkpt lat="45.79247" lon="6.10222">
        <ele>1636</ele>
        <time>2013-09-04T01:29:46Z</time>
      </trkpt>
      <trkpt lat="45.7925" lon="6.10232">
        <ele>1636</ele>
        <time>2013-09-04T01:29:47Z</time>
      </trkpt>
      <trkpt lat="45.79268" lon="6.10253">
        <ele>1636</ele>
        <time>2013-09-04T01:29:50Z</time>
      </trkpt>
      <trkpt lat="45.79357" lon="6.10337">
        <ele>1636</ele>
        <time>2013-09-04T01:30:04Z</time>
      </trkpt>
      <trkpt lat="45.79387" lon="6.10392">
        <ele>1636</ele>
        <time>2013-09-04T01:30:10Z</time>
      </trkpt>
      <trkpt lat="45.7942" lon="6.10416">
        <ele>1636</ele>
        <time>2013-09-04T01:30:15Z</time>
      </trkpt>
      <trkpt lat="45.79433" lon="6.10432">
        <ele>1636</ele>
        <time>2013-09-04T01:30:18Z</time>
      </trkpt>
      <trkpt lat="45.79463" lon="6.10494">
        <ele>1628</ele>
        <time>2013-09-04T01:30:25Z</time>
      </trkpt>
      <trkpt lat="45.79493" lon="6.10592">
        <ele>1618</ele>
        <time>2013-09-04T01:30:35Z</time>
      </trkpt>
      <trkpt lat="45.79526" lon="6.10673">
        <ele>1610</ele>
        <time>2013-09-04T01:30:43Z</time>
      </trkpt>
      <trkpt lat="45.7953" lon="6.10714">
        <ele>1607</ele>
        <time>2013-09-04T01:30:47Z</time>
      </trkpt>
      <trkpt lat="45.79522" lon="6.10733">
        <ele>1604</ele>
        <time>2013-09-04T01:30:49Z</time>
      </trkpt>
      <trkpt lat="45.79511" lon="6.10745">
        <ele>1602</ele>
        <time>2013-09-04T01:30:51Z</time>
      </trkpt>
      <trkpt lat="45.79383" lon="6.10797">
        <ele>1584</ele>
        <time>2013-09-04T01:31:09Z</time>
      </trkpt>
      <trkpt lat="45.79366" lon="6.10814">
        <ele>1581</ele>
        <time>2013-09-04T01:31:12Z</time>
      </trkpt>
      <trkpt lat="45.79357" lon="6.10829">
        <ele>1580</ele>
        <time>2013-09-04T01:31:14Z</time>
      </trkpt>
      <trkpt lat="45.79306" lon="6.10937">
        <ele>1571</ele>
        <time>2013-09-04T01:31:26Z</time>
      </trkpt>
      <trkpt lat="45.79296" lon="6.11021">
        <ele>1559</ele>
        <time>2013-09-04T01:31:34Z</time>
      </trkpt>
      <trkpt lat="45.79303" lon="6.1112">
        <ele>1545</ele>
        <time>2013-09-04T01:31:43Z</time>
      </trkpt>
      <trkpt lat="45.79302" lon="6.11139">
        <ele>1544</ele>
        <time>2013-09-04T01:31:45Z</time>
      </trkpt>
      <trkpt lat="45.79296" lon="6.11157">
        <ele>1544</ele>
        <time>2013-09-04T01:31:47Z</time>
      </trkpt>
      <trkpt lat="45.79284" lon="6.11165">
        <ele>1543</ele>
        <time>2013-09-04T01:31:48Z</time>
      </trkpt>
      <trkpt lat="45.79247" lon="6.11165">
        <ele>1542</ele>
        <time>2013-09-04T01:31:53Z</time>
      </trkpt>
      <trkpt lat="45.7921" lon="6.11133">
        <ele>1541</ele>
        <time>2013-09-04T01:31:59Z</time>
      </trkpt>
      <trkpt lat="45.79185" lon="6.11118">
        <ele>1541</ele>
        <time>2013-09-04T01:32:03Z</time>
      </trkpt>
      <trkpt lat="45.79107" lon="6.11102">
        <ele>1542</ele>
        <time>2013-09-04T01:32:16Z</time>
      </trkpt>
      <trkpt lat="45.79059" lon="6.11076">
        <ele>1542</ele>
        <time>2013-09-04T01:32:23Z</time>
      </trkpt>
      <trkpt lat="45.79031" lon="6.11077">
        <ele>1542</ele>
        <time>2013-09-04T01:32:28Z</time>
      </trkpt>
      <trkpt lat="45.78988" lon="6.11068">
        <ele>1543</ele>
        <time>2013-09-04T01:32:34Z</time>
      </trkpt>
      <trkpt lat="45.78932" lon="6.11017">
        <ele>1542</ele>
        <time>2013-09-04T01:32:43Z</time>
      </trkpt>
      <trkpt lat="45.78915" lon="6.11011">
        <ele>1542</ele>
        <time>2013-09-04T01:32:46Z</time>
      </trkpt>
      <trkpt lat="45.789" lon="6.11021">
        <ele>1542</ele>
        <time>2013-09-04T01:32:48Z</time>
      </trkpt>
      <trkpt lat="45.78878" lon="6.11053">
        <ele>1539</ele>
        <time>2013-09-04T01:32:52Z</time>
      </trkpt>
      <trkpt lat="45.78845" lon="6.11062">
        <ele>1535</ele>
        <time>2013-09-04T01:32:56Z</time>
      </trkpt>
      <trkpt lat="45.78825" lon="6.11057">
        <ele>1533</ele>
        <time>2013-09-04T01:32:59Z</time>
      </trkpt>
      <trkpt lat="45.78773" lon="6.11059">
        <ele>1529</ele>
        <time>2013-09-04T01:33:06Z</time>
      </trkpt>
      <trkpt lat="45.78751" lon="6.11041">
        <ele>1529</ele>
        <time>2013-09-04T01:33:10Z</time>
      </trkpt>
      <trkpt lat="45.78719" lon="6.1105">
        <ele>1529</ele>
        <time>2013-09-04T01:33:15Z</time>
      </trkpt>
      <trkpt lat="45.78681" lon="6.11041">
        <ele>1530</ele>
        <time>2013-09-04T01:33:21Z</time>
      </trkpt>
      <trkpt lat="45.78613" lon="6.11072">
        <ele>1517</ele>
        <time>2013-09-04T01:33:31Z</time>
      </trkpt>
      <trkpt lat="45.78553" lon="6.11082">
        <ele>1507</ele>
        <time>2013-09-04T01:33:39Z</time>
      </trkpt>
      <trkpt lat="45.78544" lon="6.11096">
        <ele>1505</ele>
        <time>2013-09-04T01:33:41Z</time>
      </trkpt>
      <trkpt lat="45.78544" lon="6.11114">
        <ele>1504</ele>
        <time>2013-09-04T01:33:42Z</time>
      </trkpt>
      <trkpt lat="45.78586" lon="6.11168">
        <ele>1499</ele>
        <time>2013-09-04T01:33:50Z</time>
      </trkpt>
      <trkpt lat="45.78593" lon="6.11198">
        <ele>1497</ele>
        <time>2013-09-04T01:33:53Z</time>
      </trkpt>
      <trkpt lat="45.78578" lon="6.11312">
        <ele>1481</ele>
        <time>2013-09-04T01:34:04Z</time>
      </trkpt>
      <trkpt lat="45.78591" lon="6.11355">
        <ele>1475</ele>
        <time>2013-09-04T01:34:08Z</time>
      </trkpt>
      <trkpt lat="45.78582" lon="6.11403">
        <ele>1470</ele>
        <time>2013-09-04T01:34:13Z</time>
      </trkpt>
      <trkpt lat="45.78584" lon="6.11439">
        <ele>1466</ele>
        <time>2013-09-04T01:34:16Z</time>
      </trkpt>
      <trkpt lat="45.78579" lon="6.11453">
        <ele>1464</ele>
        <time>2013-09-04T01:34:18Z</time>
      </trkpt>
      <trkpt lat="45.78568" lon="6.11459">
        <ele>1463</ele>
        <time>2013-09-04T01:34:19Z</time>
      </trkpt>
      <trkpt lat="45.7849" lon="6.11444">
        <ele>1452</ele>
        <time>2013-09-04T01:34:30Z</time>
      </trkpt>
      <trkpt lat="45.78469" lon="6.11419">
        <ele>1450</ele>
        <time>2013-09-04T01:34:33Z</time>
      </trkpt>
      <trkpt lat="45.78456" lon="6.11412">
        <ele>1450</ele>
        <time>2013-09-04T01:34:35Z</time>
      </trkpt>
      <trkpt lat="45.78443" lon="6.11412">
        <ele>1449</ele>
        <time>2013-09-04T01:34:37Z</time>
      </trkpt>
      <trkpt lat="45.78418" lon="6.11423">
        <ele>1448</ele>
        <time>2013-09-04T01:34:40Z</time>
      </trkpt>
      <trkpt lat="45.78408" lon="6.11421">
        <ele>1448</ele>
        <time>2013-09-04T01:34:42Z</time>
      </trkpt>
      <trkpt lat="45.78373" lon="6.11401">
        <ele>1447</ele>
        <time>2013-09-04T01:34:47Z</time>
      </trkpt>
      <trkpt lat="45.78363" lon="6.11384">
        <ele>1444</ele>
        <time>2013-09-04T01:34:49Z</time>
      </trkpt>
      <trkpt lat="45.78354" lon="6.11378">
        <ele>1443</ele>
        <time>2013-09-04T01:34:50Z</time>
      </trkpt>
      <trkpt lat="45.78312" lon="6.11384">
        <ele>1437</ele>
        <time>2013-09-04T01:34:56Z</time>
      </trkpt>
      <trkpt lat="45.78253" lon="6.11373">
        <ele>1430</ele>
        <time>2013-09-04T01:35:04Z</time>
      </trkpt>
      <trkpt lat="45.78217" lon="6.11386">
        <ele>1430</ele>
        <time>2013-09-04T01:35:09Z</time>
      </trkpt>
      <trkpt lat="45.78181" lon="6.1139">
        <ele>1430</ele>
        <time>2013-09-04T01:35:14Z</time>
      </trkpt>
      <trkpt lat="45.78172" lon="6.11376">
        <ele>1430</ele>
        <time>2013-09-04T01:35:15Z</time>
      </trkpt>
      <trkpt lat="45.78143" lon="6.11272">
        <ele>1430</ele>
        <time>2013-09-04T01:35:26Z</time>
      </trkpt>
      <trkpt lat="45.78133" lon="6.1126">
        <ele>1428</ele>
        <time>2013-09-04T01:35:27Z</time>
      </trkpt>
      <trkpt lat="45.78117" lon="6.11252">
        <ele>1427</ele>
        <time>2013-09-04T01:35:30Z</time>
      </trkpt>
      <trkpt lat="45.78106" lon="6.11255">
        <ele>1425</ele>
        <time>2013-09-04T01:35:31Z</time>
      </trkpt>
      <trkpt lat="45.78099" lon="6.11263">
        <ele>1425</ele>
        <time>2013-09-04T01:35:32Z</time>
      </trkpt>
      <trkpt lat="45.7808" lon="6.11344">
        <ele>1419</ele>
        <time>2013-09-04T01:35:40Z</time>
      </trkpt>
      <trkpt lat="45.7807" lon="6.11356">
        <ele>1418</ele>
        <time>2013-09-04T01:35:42Z</time>
      </trkpt>
      <trkpt lat="45.78058" lon="6.11355">
        <ele>1417</ele>
        <time>2013-09-04T01:35:44Z</time>
      </trkpt>
      <trkpt lat="45.77981" lon="6.11308">
        <ele>1412</ele>
        <time>2013-09-04T01:35:55Z</time>
      </trkpt>
      <trkpt lat="45.77971" lon="6.11299">
        <ele>1411</ele>
        <time>2013-09-04T01:35:57Z</time>
      </trkpt>
      <trkpt lat="45.77967" lon="6.11288">
        <ele>1411</ele>
        <time>2013-09-04T01:35:58Z</time>
      </trkpt>
      <trkpt lat="45.77951" lon="6.11172">
        <ele>1410</ele>
        <time>2013-09-04T01:36:09Z</time>
      </trkpt>
      <trkpt lat="45.77954" lon="6.11132">
        <ele>1412</ele>
        <time>2013-09-04T01:36:18Z</time>
      </trkpt>
      <trkpt lat="45.77976" lon="6.11089">
        <ele>1415</ele>
        <time>2013-09-04T01:36:30Z</time>
      </trkpt>
      <trkpt lat="45.77979" lon="6.11064">
        <ele>1416</ele>
        <time>2013-09-04T01:36:35Z</time>
      </trkpt>
      <trkpt lat="45.77968" lon="6.11042">
        <ele>1418</ele>
        <time>2013-09-04T01:36:41Z</time>
      </trkpt>
      <trkpt lat="45.77936" lon="6.11029">
        <ele>1419</ele>
        <time>2013-09-04T01:36:49Z</time>
      </trkpt>
      <trkpt lat="45.77908" lon="6.11026">
        <ele>1420</ele>
        <time>2013-09-04T01:36:55Z</time>
      </trkpt>
      <trkpt lat="45.77867" lon="6.11031">
        <ele>1422</ele>
        <time>2013-09-04T01:37:05Z</time>
      </trkpt>
      <trkpt lat="45.77833" lon="6.11059">
        <ele>1417</ele>
        <time>2013-09-04T01:37:10Z</time>
      </trkpt>
      <trkpt lat="45.778" lon="6.11095">
        <ele>1413</ele>
        <time>2013-09-04T01:37:16Z</time>
      </trkpt>
      <trkpt lat="45.77765" lon="6.1111">
        <ele>1410</ele>
        <time>2013-09-04T01:37:20Z</time>
      </trkpt>
      <trkpt lat="45.77711" lon="6.11174">
        <ele>1399</ele>
        <time>2013-09-04T01:37:30Z</time>
      </trkpt>
      <trkpt lat="45.77697" lon="6.1118">
        <ele>1397</ele>
        <time>2013-09-04T01:37:32Z</time>
      </trkpt>
      <trkpt lat="45.77675" lon="6.11175">
        <ele>1394</ele>
        <time>2013-09-04T01:37:35Z</time>
      </trkpt>
      <trkpt lat="45.77586" lon="6.11131">
        <ele>1395</ele>
        <time>2013-09-04T01:37:50Z</time>
      </trkpt>
      <trkpt lat="45.77537" lon="6.11126">
        <ele>1390</ele>
        <time>2013-09-04T01:37:56Z</time>
      </trkpt>
      <trkpt lat="45.77502" lon="6.11102">
        <ele>1386</ele>
        <time>2013-09-04T01:38:01Z</time>
      </trkpt>
      <trkpt lat="45.77483" lon="6.11095">
        <ele>1385</ele>
        <time>2013-09-04T01:38:04Z</time>
      </trkpt>
      <trkpt lat="45.77436" lon="6.11095">
        <ele>1382</ele>
        <time>2013-09-04T01:38:10Z</time>
      </trkpt>
      <trkpt lat="45.77354" lon="6.11082">
        <ele>1378</ele>
        <time>2013-09-04T01:38:21Z</time>
      </trkpt>
      <trkpt lat="45.77312" lon="6.1107">
        <ele>1375</ele>
        <time>2013-09-04T01:38:27Z</time>
      </trkpt>
      <trkpt lat="45.77262" lon="6.11078">
        <ele>1372</ele>
        <time>2013-09-04T01:38:34Z</time>
      </trkpt>
      <trkpt lat="45.77189" lon="6.11062">
        <ele>1366</ele>
        <time>2013-09-04T01:38:44Z</time>
      </trkpt>
      <trkpt lat="45.7703" lon="6.11042">
        <ele>1354</ele>
        <time>2013-09-04T01:39:05Z</time>
      </trkpt>
      <trkpt lat="45.76982" lon="6.11016">
        <ele>1355</ele>
        <time>2013-09-04T01:39:14Z</time>
      </trkpt>
      <trkpt lat="45.76946" lon="6.10976">
        <ele>1356</ele>
        <time>2013-09-04T01:39:23Z</time>
      </trkpt>
      <trkpt lat="45.76846" lon="6.10944">
        <ele>1341</ele>
        <time>2013-09-04T01:39:36Z</time>
      </trkpt>
      <trkpt lat="45.76799" lon="6.10936">
        <ele>1340</ele>
        <time>2013-09-04T01:39:43Z</time>
      </trkpt>
      <trkpt lat="45.76785" lon="6.10928">
        <ele>1340</ele>
        <time>2013-09-04T01:39:45Z</time>
      </trkpt>
      <trkpt lat="45.7677" lon="6.1091">
        <ele>1340</ele>
        <time>2013-09-04T01:39:47Z</time>
      </trkpt>
      <trkpt lat="45.76764" lon="6.10897">
        <ele>1340</ele>
        <time>2013-09-04T01:39:49Z</time>
      </trkpt>
      <trkpt lat="45.76755" lon="6.1084">
        <ele>1340</ele>
        <time>2013-09-04T01:39:54Z</time>
      </trkpt>
      <trkpt lat="45.76743" lon="6.10805">
        <ele>1340</ele>
        <time>2013-09-04T01:40:00Z</time>
      </trkpt>
      <trkpt lat="45.76731" lon="6.10787">
        <ele>1341</ele>
        <time>2013-09-04T01:40:04Z</time>
      </trkpt>
      <trkpt lat="45.76693" lon="6.10758">
        <ele>1342</ele>
        <time>2013-09-04T01:40:13Z</time>
      </trkpt>
      <trkpt lat="45.7668" lon="6.10713">
        <ele>1344</ele>
        <time>2013-09-04T01:40:20Z</time>
      </trkpt>
      <trkpt lat="45.76665" lon="6.10692">
        <ele>1341</ele>
        <time>2013-09-04T01:40:23Z</time>
      </trkpt>
      <trkpt lat="45.76624" lon="6.10672">
        <ele>1335</ele>
        <time>2013-09-04T01:40:29Z</time>
      </trkpt>
      <trkpt lat="45.76567" lon="6.10675">
        <ele>1328</ele>
        <time>2013-09-04T01:40:36Z</time>
      </trkpt>
      <trkpt lat="45.76516" lon="6.10647">
        <ele>1321</ele>
        <time>2013-09-04T01:40:44Z</time>
      </trkpt>
      <trkpt lat="45.76433" lon="6.10663">
        <ele>1312</ele>
        <time>2013-09-04T01:40:55Z</time>
      </trkpt>
      <trkpt lat="45.76323" lon="6.10633">
        <ele>1299</ele>
        <time>2013-09-04T01:41:10Z</time>
      </trkpt>
      <trkpt lat="45.76288" lon="6.10601">
        <ele>1304</ele>
        <time>2013-09-04T01:41:29Z</time>
      </trkpt>
      <trkpt lat="45.76268" lon="6.10535">
        <ele>1311</ele>
        <time>2013-09-04T01:41:52Z</time>
      </trkpt>
      <trkpt lat="45.76256" lon="6.10517">
        <ele>1314</ele>
        <time>2013-09-04T01:42:00Z</time>
      </trkpt>
      <trkpt lat="45.76239" lon="6.10502">
        <ele>1312</ele>
        <time>2013-09-04T01:42:03Z</time>
      </trkpt>
      <trkpt lat="45.76218" lon="6.10493">
        <ele>1310</ele>
        <time>2013-09-04T01:42:06Z</time>
      </trkpt>
      <trkpt lat="45.7619" lon="6.1049">
        <ele>1308</ele>
        <time>2013-09-04T01:42:10Z</time>
      </trkpt>
      <trkpt lat="45.76162" lon="6.10494">
        <ele>1306</ele>
        <time>2013-09-04T01:42:13Z</time>
      </trkpt>
      <trkpt lat="45.76152" lon="6.1049">
        <ele>1305</ele>
        <time>2013-09-04T01:42:15Z</time>
      </trkpt>
      <trkpt lat="45.76104" lon="6.10384">
        <ele>1305</ele>
        <time>2013-09-04T01:42:27Z</time>
      </trkpt>
      <trkpt lat="45.76096" lon="6.10377">
        <ele>1304</ele>
        <time>2013-09-04T01:42:28Z</time>
      </trkpt>
      <trkpt lat="45.76081" lon="6.1038">
        <ele>1302</ele>
        <time>2013-09-04T01:42:30Z</time>
      </trkpt>
      <trkpt lat="45.76076" lon="6.1039">
        <ele>1301</ele>
        <time>2013-09-04T01:42:31Z</time>
      </trkpt>
      <trkpt lat="45.76075" lon="6.10404">
        <ele>1301</ele>
        <time>2013-09-04T01:42:32Z</time>
      </trkpt>
      <trkpt lat="45.76081" lon="6.10425">
        <ele>1299</ele>
        <time>2013-09-04T01:42:34Z</time>
      </trkpt>
      <trkpt lat="45.76126" lon="6.10499">
        <ele>1293</ele>
        <time>2013-09-04T01:42:44Z</time>
      </trkpt>
      <trkpt lat="45.76156" lon="6.10574">
        <ele>1288</ele>
        <time>2013-09-04T01:42:52Z</time>
      </trkpt>
      <trkpt lat="45.76186" lon="6.10607">
        <ele>1282</ele>
        <time>2013-09-04T01:42:57Z</time>
      </trkpt>
      <trkpt lat="45.76246" lon="6.10711">
        <ele>1268</ele>
        <time>2013-09-04T01:43:09Z</time>
      </trkpt>
      <trkpt lat="45.76269" lon="6.10774">
        <ele>1265</ele>
        <time>2013-09-04T01:43:16Z</time>
      </trkpt>
      <trkpt lat="45.76281" lon="6.10793">
        <ele>1263</ele>
        <time>2013-09-04T01:43:18Z</time>
      </trkpt>
      <trkpt lat="45.76292" lon="6.10799">
        <ele>1263</ele>
        <time>2013-09-04T01:43:20Z</time>
      </trkpt>
      <trkpt lat="45.76329" lon="6.10792">
        <ele>1261</ele>
        <time>2013-09-04T01:43:25Z</time>
      </trkpt>
      <trkpt lat="45.76379" lon="6.10805">
        <ele>1261</ele>
        <time>2013-09-04T01:43:32Z</time>
      </trkpt>
      <trkpt lat="45.76396" lon="6.10815">
        <ele>1261</ele>
        <time>2013-09-04T01:43:34Z</time>
      </trkpt>
      <trkpt lat="45.76419" lon="6.1084">
        <ele>1261</ele>
        <time>2013-09-04T01:43:38Z</time>
      </trkpt>
      <trkpt lat="45.76445" lon="6.10889">
        <ele>1257</ele>
        <time>2013-09-04T01:43:44Z</time>
      </trkpt>
      <trkpt lat="45.76467" lon="6.1092">
        <ele>1255</ele>
        <time>2013-09-04T01:43:48Z</time>
      </trkpt>
      <trkpt lat="45.76521" lon="6.10976">
        <ele>1251</ele>
        <time>2013-09-04T01:43:57Z</time>
      </trkpt>
      <trkpt lat="45.76556" lon="6.11036">
        <ele>1249</ele>
        <time>2013-09-04T01:44:04Z</time>
      </trkpt>
      <trkpt lat="45.76597" lon="6.11066">
        <ele>1248</ele>
        <time>2013-09-04T01:44:10Z</time>
      </trkpt>
      <trkpt lat="45.7664" lon="6.11089">
        <ele>1247</ele>
        <time>2013-09-04T01:44:16Z</time>
      </trkpt>
      <trkpt lat="45.76683" lon="6.11135">
        <ele>1247</ele>
        <time>2013-09-04T01:44:23Z</time>
      </trkpt>
      <trkpt lat="45.76766" lon="6.11202">
        <ele>1243</ele>
        <time>2013-09-04T01:44:36Z</time>
      </trkpt>
      <trkpt lat="45.76837" lon="6.1127">
        <ele>1235</ele>
        <time>2013-09-04T01:44:48Z</time>
      </trkpt>
      <trkpt lat="45.76917" lon="6.11333">
        <ele>1228</ele>
        <time>2013-09-04T01:45:00Z</time>
      </trkpt>
      <trkpt lat="45.76968" lon="6.11389">
        <ele>1221</ele>
        <time>2013-09-04T01:45:08Z</time>
      </trkpt>
      <trkpt lat="45.77013" lon="6.11414">
        <ele>1217</ele>
        <time>2013-09-04T01:45:15Z</time>
      </trkpt>
      <trkpt lat="45.77047" lon="6.11441">
        <ele>1217</ele>
        <time>2013-09-04T01:45:20Z</time>
      </trkpt>
      <trkpt lat="45.77087" lon="6.11455">
        <ele>1217</ele>
        <time>2013-09-04T01:45:26Z</time>
      </trkpt>
      <trkpt lat="45.77127" lon="6.11481">
        <ele>1217</ele>
        <time>2013-09-04T01:45:31Z</time>
      </trkpt>
      <trkpt lat="45.77181" lon="6.11492">
        <ele>1216</ele>
        <time>2013-09-04T01:45:39Z</time>
      </trkpt>
      <trkpt lat="45.77276" lon="6.11574">
        <ele>1215</ele>
        <time>2013-09-04T01:45:53Z</time>
      </trkpt>
      <trkpt lat="45.77313" lon="6.11585">
        <ele>1211</ele>
        <time>2013-09-04T01:45:59Z</time>
      </trkpt>
      <trkpt lat="45.77367" lon="6.11632">
        <ele>1205</ele>
        <time>2013-09-04T01:46:07Z</time>
      </trkpt>
      <trkpt lat="45.77402" lon="6.11648">
        <ele>1203</ele>
        <time>2013-09-04T01:46:12Z</time>
      </trkpt>
      <trkpt lat="45.77402" lon="6.11664">
        <ele>1203</ele>
        <time>2013-09-04T01:46:13Z</time>
      </trkpt>
      <trkpt lat="45.77392" lon="6.11667">
        <ele>1202</ele>
        <time>2013-09-04T01:46:15Z</time>
      </trkpt>
      <trkpt lat="45.77308" lon="6.11619">
        <ele>1199</ele>
        <time>2013-09-04T01:46:27Z</time>
      </trkpt>
      <trkpt lat="45.77251" lon="6.11607">
        <ele>1197</ele>
        <time>2013-09-04T01:46:35Z</time>
      </trkpt>
      <trkpt lat="45.77182" lon="6.11565">
        <ele>1188</ele>
        <time>2013-09-04T01:46:45Z</time>
      </trkpt>
      <trkpt lat="45.77129" lon="6.11556">
        <ele>1183</ele>
        <time>2013-09-04T01:46:52Z</time>
      </trkpt>
      <trkpt lat="45.77073" lon="6.11538">
        <ele>1174</ele>
        <time>2013-09-04T01:46:59Z</time>
      </trkpt>
      <trkpt lat="45.76989" lon="6.11519">
        <ele>1163</ele>
        <time>2013-09-04T01:47:11Z</time>
      </trkpt>
      <trkpt lat="45.76783" lon="6.11421">
        <ele>1156</ele>
        <time>2013-09-04T01:47:40Z</time>
      </trkpt>
      <trkpt lat="45.7675" lon="6.11411">
        <ele>1154</ele>
        <time>2013-09-04T01:47:44Z</time>
      </trkpt>
      <trkpt lat="45.76686" lon="6.11382">
        <ele>1152</ele>
        <time>2013-09-04T01:47:53Z</time>
      </trkpt>
      <trkpt lat="45.76477" lon="6.11311">
        <ele>1138</ele>
        <time>2013-09-04T01:48:22Z</time>
      </trkpt>
      <trkpt lat="45.76375" lon="6.11266">
        <ele>1134</ele>
        <time>2013-09-04T01:48:36Z</time>
      </trkpt>
      <trkpt lat="45.76334" lon="6.11264">
        <ele>1130</ele>
        <time>2013-09-04T01:48:42Z</time>
      </trkpt>
      <trkpt lat="45.76288" lon="6.11253">
        <ele>1126</ele>
        <time>2013-09-04T01:48:48Z</time>
      </trkpt>
      <trkpt lat="45.76209" lon="6.11223">
        <ele>1119</ele>
        <time>2013-09-04T01:48:59Z</time>
      </trkpt>
      <trkpt lat="45.76139" lon="6.11208">
        <ele>1112</ele>
        <time>2013-09-04T01:49:08Z</time>
      </trkpt>
      <trkpt lat="45.76101" lon="6.11182">
        <ele>1108</ele>
        <time>2013-09-04T01:49:14Z</time>
      </trkpt>
      <trkpt lat="45.7609" lon="6.11186">
        <ele>1107</ele>
        <time>2013-09-04T01:49:15Z</time>
      </trkpt>
      <trkpt lat="45.76089" lon="6.112">
        <ele>1107</ele>
        <time>2013-09-04T01:49:17Z</time>
      </trkpt>
      <trkpt lat="45.76094" lon="6.11207">
        <ele>1107</ele>
        <time>2013-09-04T01:49:18Z</time>
      </trkpt>
      <trkpt lat="45.76158" lon="6.11234">
        <ele>1106</ele>
        <time>2013-09-04T01:49:26Z</time>
      </trkpt>
      <trkpt lat="45.76212" lon="6.11265">
        <ele>1105</ele>
        <time>2013-09-04T01:49:34Z</time>
      </trkpt>
      <trkpt lat="45.76295" lon="6.11329">
        <ele>1101</ele>
        <time>2013-09-04T01:49:47Z</time>
      </trkpt>
      <trkpt lat="45.76376" lon="6.11372">
        <ele>1099</ele>
        <time>2013-09-04T01:49:58Z</time>
      </trkpt>
      <trkpt lat="45.76415" lon="6.11403">
        <ele>1098</ele>
        <time>2013-09-04T01:50:04Z</time>
      </trkpt>
      <trkpt lat="45.76463" lon="6.11451">
        <ele>1092</ele>
        <time>2013-09-04T01:50:12Z</time>
      </trkpt>
      <trkpt lat="45.76636" lon="6.11558">
        <ele>1076</ele>
        <time>2013-09-04T01:50:37Z</time>
      </trkpt>
      <trkpt lat="45.76732" lon="6.11631">
        <ele>1061</ele>
        <time>2013-09-04T01:50:52Z</time>
      </trkpt>
      <trkpt lat="45.76815" lon="6.11727">
        <ele>1042</ele>
        <time>2013-09-04T01:51:06Z</time>
      </trkpt>
      <trkpt lat="45.7686" lon="6.11759">
        <ele>1039</ele>
        <time>2013-09-04T01:51:13Z</time>
      </trkpt>
      <trkpt lat="45.76886" lon="6.11792">
        <ele>1037</ele>
        <time>2013-09-04T01:51:17Z</time>
      </trkpt>
      <trkpt lat="45.76929" lon="6.11826">
        <ele>1035</ele>
        <time>2013-09-04T01:51:24Z</time>
      </trkpt>
      <trkpt lat="45.76959" lon="6.11866">
        <ele>1030</ele>
        <time>2013-09-04T01:51:29Z</time>
      </trkpt>
      <trkpt lat="45.76976" lon="6.11901">
        <ele>1027</ele>
        <time>2013-09-04T01:51:33Z</time>
      </trkpt>
      <trkpt lat="45.76988" lon="6.11918">
        <ele>1025</ele>
        <time>2013-09-04T01:51:36Z</time>
      </trkpt>
      <trkpt lat="45.7704" lon="6.11973">
        <ele>1019</ele>
        <time>2013-09-04T01:51:44Z</time>
      </trkpt>
      <trkpt lat="45.77067" lon="6.12009">
        <ele>1016</ele>
        <time>2013-09-04T01:51:49Z</time>
      </trkpt>
      <trkpt lat="45.77098" lon="6.12029">
        <ele>1014</ele>
        <time>2013-09-04T01:51:54Z</time>
      </trkpt>
      <trkpt lat="45.77139" lon="6.12074">
        <ele>1012</ele>
        <time>2013-09-04T01:52:01Z</time>
      </trkpt>
      <trkpt lat="45.77145" lon="6.12089">
        <ele>1011</ele>
        <time>2013-09-04T01:52:02Z</time>
      </trkpt>
      <trkpt lat="45.77141" lon="6.12102">
        <ele>1010</ele>
        <time>2013-09-04T01:52:04Z</time>
      </trkpt>
      <trkpt lat="45.77125" lon="6.12103">
        <ele>1009</ele>
        <time>2013-09-04T01:52:06Z</time>
      </trkpt>
      <trkpt lat="45.77099" lon="6.12071">
        <ele>1006</ele>
        <time>2013-09-04T01:52:10Z</time>
      </trkpt>
      <trkpt lat="45.7707" lon="6.12045">
        <ele>1004</ele>
        <time>2013-09-04T01:52:15Z</time>
      </trkpt>
      <trkpt lat="45.77005" lon="6.12019">
        <ele>999</ele>
        <time>2013-09-04T01:52:24Z</time>
      </trkpt>
      <trkpt lat="45.76952" lon="6.11984">
        <ele>997</ele>
        <time>2013-09-04T01:52:32Z</time>
      </trkpt>
      <trkpt lat="45.76873" lon="6.1192">
        <ele>994</ele>
        <time>2013-09-04T01:52:44Z</time>
      </trkpt>
      <trkpt lat="45.76671" lon="6.11838">
        <ele>976</ele>
        <time>2013-09-04T01:53:12Z</time>
      </trkpt>
      <trkpt lat="45.76626" lon="6.11814">
        <ele>968</ele>
        <time>2013-09-04T01:53:18Z</time>
      </trkpt>
      <trkpt lat="45.7662" lon="6.11815">
        <ele>967</ele>
        <time>2013-09-04T01:53:19Z</time>
      </trkpt>
      <trkpt lat="45.76614" lon="6.11824">
        <ele>966</ele>
        <time>2013-09-04T01:53:20Z</time>
      </trkpt>
      <trkpt lat="45.76617" lon="6.1184">
        <ele>964</ele>
        <time>2013-09-04T01:53:22Z</time>
      </trkpt>
      <trkpt lat="45.76687" lon="6.11903">
        <ele>952</ele>
        <time>2013-09-04T01:53:33Z</time>
      </trkpt>
      <trkpt lat="45.76751" lon="6.1201">
        <ele>938</ele>
        <time>2013-09-04T01:53:46Z</time>
      </trkpt>
      <trkpt lat="45.76759" lon="6.1203">
        <ele>935</ele>
        <time>2013-09-04T01:53:48Z</time>
      </trkpt>
      <trkpt lat="45.76762" lon="6.12067">
        <ele>931</ele>
        <time>2013-09-04T01:53:52Z</time>
      </trkpt>
      <trkpt lat="45.76779" lon="6.12121">
        <ele>925</ele>
        <time>2013-09-04T01:53:57Z</time>
      </trkpt>
      <trkpt lat="45.7678" lon="6.1214">
        <ele>924</ele>
        <time>2013-09-04T01:53:59Z</time>
      </trkpt>
      <trkpt lat="45.76747" lon="6.12115">
        <ele>919</ele>
        <time>2013-09-04T01:54:04Z</time>
      </trkpt>
      <trkpt lat="45.76712" lon="6.121">
        <ele>914</ele>
        <time>2013-09-04T01:54:09Z</time>
      </trkpt>
      <trkpt lat="45.76698" lon="6.12083">
        <ele>912</ele>
        <time>2013-09-04T01:54:11Z</time>
      </trkpt>
      <trkpt lat="45.76687" lon="6.12085">
        <ele>911</ele>
        <time>2013-09-04T01:54:13Z</time>
      </trkpt>
      <trkpt lat="45.76681" lon="6.12093">
        <ele>910</ele>
        <time>2013-09-04T01:54:14Z</time>
      </trkpt>
      <trkpt lat="45.76687" lon="6.12115">
        <ele>909</ele>
        <time>2013-09-04T01:54:16Z</time>
      </trkpt>
      <trkpt lat="45.76707" lon="6.12127">
        <ele>908</ele>
        <time>2013-09-04T01:54:19Z</time>
      </trkpt>
      <trkpt lat="45.76712" lon="6.12136">
        <ele>907</ele>
        <time>2013-09-04T01:54:20Z</time>
      </trkpt>
      <trkpt lat="45.76714" lon="6.12181">
        <ele>905</ele>
        <time>2013-09-04T01:54:24Z</time>
      </trkpt>
      <trkpt lat="45.76709" lon="6.12248">
        <ele>903</ele>
        <time>2013-09-04T01:54:30Z</time>
      </trkpt>
      <trkpt lat="45.76752" lon="6.12551">
        <ele>885</ele>
        <time>2013-09-04T01:54:59Z</time>
      </trkpt>
      <trkpt lat="45.7676" lon="6.12567">
        <ele>884</ele>
        <time>2013-09-04T01:55:01Z</time>
      </trkpt>
      <trkpt lat="45.76811" lon="6.12636">
        <ele>884</ele>
        <time>2013-09-04T01:55:10Z</time>
      </trkpt>
      <trkpt lat="45.76875" lon="6.12684">
        <ele>884</ele>
        <time>2013-09-04T01:55:20Z</time>
      </trkpt>
      <trkpt lat="45.76879" lon="6.12693">
        <ele>883</ele>
        <time>2013-09-04T01:55:21Z</time>
      </trkpt>
      <trkpt lat="45.76882" lon="6.12712">
        <ele>881</ele>
        <time>2013-09-04T01:55:23Z</time>
      </trkpt>
      <trkpt lat="45.76799" lon="6.12717">
        <ele>873</ele>
        <time>2013-09-04T01:55:34Z</time>
      </trkpt>
      <trkpt lat="45.76764" lon="6.12704">
        <ele>870</ele>
        <time>2013-09-04T01:55:39Z</time>
      </trkpt>
      <trkpt lat="45.76646" lon="6.12637">
        <ele>864</ele>
        <time>2013-09-04T01:55:56Z</time>
      </trkpt>
      <trkpt lat="45.76507" lon="6.12532">
        <ele>854</ele>
        <time>2013-09-04T01:56:17Z</time>
      </trkpt>
      <trkpt lat="45.76485" lon="6.12507">
        <ele>852</ele>
        <time>2013-09-04T01:56:21Z</time>
      </trkpt>
      <trkpt lat="45.76414" lon="6.12394">
        <ele>849</ele>
        <time>2013-09-04T01:56:35Z</time>
      </trkpt>
      <trkpt lat="45.76408" lon="6.12371">
        <ele>849</ele>
        <time>2013-09-04T01:56:39Z</time>
      </trkpt>
      <trkpt lat="45.764" lon="6.12266">
        <ele>854</ele>
        <time>2013-09-04T01:56:59Z</time>
      </trkpt>
      <trkpt lat="45.76387" lon="6.12232">
        <ele>852</ele>
        <time>2013-09-04T01:57:02Z</time>
      </trkpt>
      <trkpt lat="45.76365" lon="6.12194">
        <ele>851</ele>
        <time>2013-09-04T01:57:07Z</time>
      </trkpt>
      <trkpt lat="45.76316" lon="6.1216">
        <ele>849</ele>
        <time>2013-09-04T01:57:14Z</time>
      </trkpt>
      <trkpt lat="45.76134" lon="6.12065">
        <ele>832</ele>
        <time>2013-09-04T01:57:40Z</time>
      </trkpt>
      <trkpt lat="45.76134" lon="6.12065">
        <ele>832</ele>
        <time>2013-09-04T01:57:41Z</time>
      </trkpt>
      <trkpt lat="45.76087" lon="6.12033">
        <ele>831</ele>
        <time>2013-09-04T01:57:48Z</time>
      </trkpt>
      <trkpt lat="45.7606" lon="6.12008">
        <ele>831</ele>
        <time>2013-09-04T01:57:52Z</time>
      </trkpt>
      <trkpt lat="45.75955" lon="6.11881">
        <ele>830</ele>
        <time>2013-09-04T01:58:11Z</time>
      </trkpt>
      <trkpt lat="45.75835" lon="6.11801">
        <ele>827</ele>
        <time>2013-09-04T01:58:28Z</time>
      </trkpt>
      <trkpt lat="45.75781" lon="6.11778">
        <ele>823</ele>
        <time>2013-09-04T01:58:36Z</time>
      </trkpt>
      <trkpt lat="45.75552" lon="6.11711">
        <ele>811</ele>
        <time>2013-09-04T01:59:07Z</time>
      </trkpt>
      <trkpt lat="45.7553" lon="6.11699">
        <ele>810</ele>
        <time>2013-09-04T01:59:10Z</time>
      </trkpt>
      <trkpt lat="45.7548" lon="6.11656">
        <ele>809</ele>
        <time>2013-09-04T01:59:18Z</time>
      </trkpt>
      <trkpt lat="45.75393" lon="6.11626">
        <ele>807</ele>
        <time>2013-09-04T01:59:30Z</time>
      </trkpt>
      <trkpt lat="45.75069" lon="6.11454">
        <ele>803</ele>
        <time>2013-09-04T02:00:16Z</time>
      </trkpt>
      <trkpt lat="45.74912" lon="6.11412">
        <ele>791</ele>
        <time>2013-09-04T02:00:38Z</time>
      </trkpt>
      <trkpt lat="45.74803" lon="6.11435">
        <ele>783</ele>
        <time>2013-09-04T02:00:52Z</time>
      </trkpt>
      <trkpt lat="45.74731" lon="6.11437">
        <ele>781</ele>
        <time>2013-09-04T02:01:02Z</time>
      </trkpt>
      <trkpt lat="45.74691" lon="6.11432">
        <ele>780</ele>
        <time>2013-09-04T02:01:07Z</time>
      </trkpt>
      <trkpt lat="45.74643" lon="6.11407">
        <ele>776</ele>
        <time>2013-09-04T02:01:14Z</time>
      </trkpt>
      <trkpt lat="45.7463" lon="6.11413">
        <ele>775</ele>
        <time>2013-09-04T02:01:16Z</time>
      </trkpt>
      <trkpt lat="45.74608" lon="6.11444">
        <ele>773</ele>
        <time>2013-09-04T02:01:20Z</time>
      </trkpt>
      <trkpt lat="45.74595" lon="6.1145">
        <ele>772</ele>
        <time>2013-09-04T02:01:22Z</time>
      </trkpt>
      <trkpt lat="45.74458" lon="6.11427">
        <ele>767</ele>
        <time>2013-09-04T02:01:40Z</time>
      </trkpt>
      <trkpt lat="45.74356" lon="6.11431">
        <ele>758</ele>
        <time>2013-09-04T02:01:54Z</time>
      </trkpt>
      <trkpt lat="45.74261" lon="6.11384">
        <ele>753</ele>
        <time>2013-09-04T02:02:07Z</time>
      </trkpt>
      <trkpt lat="45.74118" lon="6.11262">
        <ele>747</ele>
        <time>2013-09-04T02:02:30Z</time>
      </trkpt>
      <trkpt lat="45.74097" lon="6.1126">
        <ele>743</ele>
        <time>2013-09-04T02:02:32Z</time>
      </trkpt>
      <trkpt lat="45.74029" lon="6.1128">
        <ele>734</ele>
        <time>2013-09-04T02:02:42Z</time>
      </trkpt>
      <trkpt lat="45.73937" lon="6.1127">
        <ele>723</ele>
        <time>2013-09-04T02:02:54Z</time>
      </trkpt>
      <trkpt lat="45.73915" lon="6.11259">
        <ele>723</ele>
        <time>2013-09-04T02:02:58Z</time>
      </trkpt>
      <trkpt lat="45.73872" lon="6.11224">
        <ele>724</ele>
        <time>2013-09-04T02:03:07Z</time>
      </trkpt>
      <trkpt lat="45.73861" lon="6.11207">
        <ele>724</ele>
        <time>2013-09-04T02:03:10Z</time>
      </trkpt>
      <trkpt lat="45.73854" lon="6.11178">
        <ele>725</ele>
        <time>2013-09-04T02:03:13Z</time>
      </trkpt>
      <trkpt lat="45.73841" lon="6.11088">
        <ele>720</ele>
        <time>2013-09-04T02:03:22Z</time>
      </trkpt>
      <trkpt lat="45.73832" lon="6.11078">
        <ele>719</ele>
        <time>2013-09-04T02:03:24Z</time>
      </trkpt>
      <trkpt lat="45.73818" lon="6.11089">
        <ele>718</ele>
        <time>2013-09-04T02:03:26Z</time>
      </trkpt>
      <trkpt lat="45.73805" lon="6.11159">
        <ele>715</ele>
        <time>2013-09-04T02:03:32Z</time>
      </trkpt>
      <trkpt lat="45.73776" lon="6.11244">
        <ele>711</ele>
        <time>2013-09-04T02:03:41Z</time>
      </trkpt>
      <trkpt lat="45.73765" lon="6.11261">
        <ele>709</ele>
        <time>2013-09-04T02:03:43Z</time>
      </trkpt>
      <trkpt lat="45.7375" lon="6.11266">
        <ele>708</ele>
        <time>2013-09-04T02:03:45Z</time>
      </trkpt>
      <trkpt lat="45.73663" lon="6.11263">
        <ele>701</ele>
        <time>2013-09-04T02:03:57Z</time>
      </trkpt>
      <trkpt lat="45.73606" lon="6.11295">
        <ele>697</ele>
        <time>2013-09-04T02:04:05Z</time>
      </trkpt>
      <trkpt lat="45.73573" lon="6.11291">
        <ele>695</ele>
        <time>2013-09-04T02:04:10Z</time>
      </trkpt>
      <trkpt lat="45.73531" lon="6.1127">
        <ele>692</ele>
        <time>2013-09-04T02:04:16Z</time>
      </trkpt>
      <trkpt lat="45.7353" lon="6.1127">
        <ele>692</ele>
        <time>2013-09-04T02:04:16Z</time>
      </trkpt>
      <trkpt lat="45.73487" lon="6.11233">
        <ele>692</ele>
        <time>2013-09-04T02:04:22Z</time>
      </trkpt>
      <trkpt lat="45.73444" lon="6.11146">
        <ele>692</ele>
        <time>2013-09-04T02:04:32Z</time>
      </trkpt>
      <trkpt lat="45.7342" lon="6.11111">
        <ele>689</ele>
        <time>2013-09-04T02:04:37Z</time>
      </trkpt>
      <trkpt lat="45.73366" lon="6.11063">
        <ele>684</ele>
        <time>2013-09-04T02:04:45Z</time>
      </trkpt>
      <trkpt lat="45.73338" lon="6.11045">
        <ele>679</ele>
        <time>2013-09-04T02:04:50Z</time>
      </trkpt>
      <trkpt lat="45.73215" lon="6.10994">
        <ele>662</ele>
        <time>2013-09-04T02:05:07Z</time>
      </trkpt>
      <trkpt lat="45.73091" lon="6.10919">
        <ele>650</ele>
        <time>2013-09-04T02:05:25Z</time>
      </trkpt>
      <trkpt lat="45.73061" lon="6.10874">
        <ele>651</ele>
        <time>2013-09-04T02:05:33Z</time>
      </trkpt>
      <trkpt lat="45.73029" lon="6.10781">
        <ele>653</ele>
        <time>2013-09-04T02:05:47Z</time>
      </trkpt>
      <trkpt lat="45.72845" lon="6.10529">
        <ele>650</ele>
        <time>2013-09-04T02:06:21Z</time>
      </trkpt>
      <trkpt lat="45.72826" lon="6.10508">
        <ele>647</ele>
        <time>2013-09-04T02:06:25Z</time>
      </trkpt>
      <trkpt lat="45.72806" lon="6.10508">
        <ele>645</ele>
        <time>2013-09-04T02:06:27Z</time>
      </trkpt>
      <trkpt lat="45.72631" lon="6.1057">
        <ele>628</ele>
        <time>2013-09-04T02:06:51Z</time>
      </trkpt>
      <trkpt lat="45.72605" lon="6.10571">
        <ele>627</ele>
        <time>2013-09-04T02:06:55Z</time>
      </trkpt>
      <trkpt lat="45.7241" lon="6.10495">
        <ele>622</ele>
        <time>2013-09-04T02:07:22Z</time>
      </trkpt>
      <trkpt lat="45.72303" lon="6.10459">
        <ele>613</ele>
        <time>2013-09-04T02:07:36Z</time>
      </trkpt>
      <trkpt lat="45.72283" lon="6.10448">
        <ele>610</ele>
        <time>2013-09-04T02:07:39Z</time>
      </trkpt>
      <trkpt lat="45.7224" lon="6.10379">
        <ele>603</ele>
        <time>2013-09-04T02:07:48Z</time>
      </trkpt>
      <trkpt lat="45.72231" lon="6.1034">
        <ele>600</ele>
        <time>2013-09-04T02:07:52Z</time>
      </trkpt>
      <trkpt lat="45.72231" lon="6.10324">
        <ele>600</ele>
        <time>2013-09-04T02:07:55Z</time>
      </trkpt>
      <trkpt lat="45.7224" lon="6.1029">
        <ele>601</ele>
        <time>2013-09-04T02:08:01Z</time>
      </trkpt>
      <trkpt lat="45.72253" lon="6.10273">
        <ele>602</ele>
        <time>2013-09-04T02:08:05Z</time>
      </trkpt>
      <trkpt lat="45.72275" lon="6.1026">
        <ele>603</ele>
        <time>2013-09-04T02:08:11Z</time>
      </trkpt>
      <trkpt lat="45.72281" lon="6.1025">
        <ele>604</ele>
        <time>2013-09-04T02:08:13Z</time>
      </trkpt>
      <trkpt lat="45.72283" lon="6.10236">
        <ele>604</ele>
        <time>2013-09-04T02:08:16Z</time>
      </trkpt>
      <trkpt lat="45.7228" lon="6.10224">
        <ele>605</ele>
        <time>2013-09-04T02:08:18Z</time>
      </trkpt>
      <trkpt lat="45.72262" lon="6.10205">
        <ele>602</ele>
        <time>2013-09-04T02:08:21Z</time>
      </trkpt>
      <trkpt lat="45.72252" lon="6.10226">
        <ele>600</ele>
        <time>2013-09-04T02:08:23Z</time>
      </trkpt>
      <trkpt lat="45.72186" lon="6.10305">
        <ele>591</ele>
        <time>2013-09-04T02:08:35Z</time>
      </trkpt>
      <trkpt lat="45.72178" lon="6.10325">
        <ele>592</ele>
        <time>2013-09-04T02:08:40Z</time>
      </trkpt>
      <trkpt lat="45.72179" lon="6.10348">
        <ele>593</ele>
        <time>2013-09-04T02:08:45Z</time>
      </trkpt>
      <trkpt lat="45.72189" lon="6.10388">
        <ele>595</ele>
        <time>2013-09-04T02:08:54Z</time>
      </trkpt>
      <trkpt lat="45.72204" lon="6.10418">
        <ele>597</ele>
        <time>2013-09-04T02:09:02Z</time>
      </trkpt>
      <trkpt lat="45.7223" lon="6.10454">
        <ele>600</ele>
        <time>2013-09-04T02:09:13Z</time>
      </trkpt>
      <trkpt lat="45.72229" lon="6.10466">
        <ele>599</ele>
        <time>2013-09-04T02:09:14Z</time>
      </trkpt>
      <trkpt lat="45.72217" lon="6.10467">
        <ele>598</ele>
        <time>2013-09-04T02:09:16Z</time>
      </trkpt>
      <trkpt lat="45.72187" lon="6.10437">
        <ele>595</ele>
        <time>2013-09-04T02:09:21Z</time>
      </trkpt>
      <trkpt lat="45.72135" lon="6.10347">
        <ele>589</ele>
        <time>2013-09-04T02:09:31Z</time>
      </trkpt>
      <trkpt lat="45.72126" lon="6.10338">
        <ele>589</ele>
        <time>2013-09-04T02:09:34Z</time>
      </trkpt>
      <trkpt lat="45.72116" lon="6.10336">
        <ele>589</ele>
        <time>2013-09-04T02:09:36Z</time>
      </trkpt>
      <trkpt lat="45.72111" lon="6.10345">
        <ele>589</ele>
        <time>2013-09-04T02:09:37Z</time>
      </trkpt>
      <trkpt lat="45.72113" lon="6.10362">
        <ele>590</ele>
        <time>2013-09-04T02:09:40Z</time>
      </trkpt>
      <trkpt lat="45.72143" lon="6.10411">
        <ele>591</ele>
        <time>2013-09-04T02:09:49Z</time>
      </trkpt>
      <trkpt lat="45.72155" lon="6.10442">
        <ele>592</ele>
        <time>2013-09-04T02:09:54Z</time>
      </trkpt>
      <trkpt lat="45.72147" lon="6.10485">
        <ele>593</ele>
        <time>2013-09-04T02:10:00Z</time>
      </trkpt>
      <trkpt lat="45.72132" lon="6.10505">
        <ele>592</ele>
        <time>2013-09-04T02:10:03Z</time>
      </trkpt>
      <trkpt lat="45.71983" lon="6.10601">
        <ele>591</ele>
        <time>2013-09-04T02:10:25Z</time>
      </trkpt>
      <trkpt lat="45.71915" lon="6.10635">
        <ele>591</ele>
        <time>2013-09-04T02:10:34Z</time>
      </trkpt>
      <trkpt lat="45.71884" lon="6.10657">
        <ele>591</ele>
        <time>2013-09-04T02:10:39Z</time>
      </trkpt>
      <trkpt lat="45.71822" lon="6.10687">
        <ele>591</ele>
        <time>2013-09-04T02:10:48Z</time>
      </trkpt>
      <trkpt lat="45.71757" lon="6.10708">
        <ele>591</ele>
        <time>2013-09-04T02:10:57Z</time>
      </trkpt>
      <trkpt lat="45.71757" lon="6.10708">
        <ele>591</ele>
        <time>2013-09-04T02:10:58Z</time>
      </trkpt>
      <trkpt lat="45.71619" lon="6.10734">
        <ele>592</ele>
        <time>2013-09-04T02:11:19Z</time>
      </trkpt>
      <trkpt lat="45.71607" lon="6.10726">
        <ele>591</ele>
        <time>2013-09-04T02:11:20Z</time>
      </trkpt>
      <trkpt lat="45.71562" lon="6.10664">
        <ele>590</ele>
        <time>2013-09-04T02:11:29Z</time>
      </trkpt>
      <trkpt lat="45.71547" lon="6.10649">
        <ele>590</ele>
        <time>2013-09-04T02:11:31Z</time>
      </trkpt>
      <trkpt lat="45.71469" lon="6.10621">
        <ele>588</ele>
        <time>2013-09-04T02:11:42Z</time>
      </trkpt>
      <trkpt lat="45.71419" lon="6.10616">
        <ele>588</ele>
        <time>2013-09-04T02:11:49Z</time>
      </trkpt>
      <trkpt lat="45.7139" lon="6.10546">
        <ele>589</ele>
        <time>2013-09-04T02:11:59Z</time>
      </trkpt>
      <trkpt lat="45.71367" lon="6.10512">
        <ele>590</ele>
        <time>2013-09-04T02:12:05Z</time>
      </trkpt>
      <trkpt lat="45.71302" lon="6.10434">
        <ele>592</ele>
        <time>2013-09-04T02:12:21Z</time>
      </trkpt>
      <trkpt lat="45.71277" lon="6.10423">
        <ele>593</ele>
        <time>2013-09-04T02:12:27Z</time>
      </trkpt>
      <trkpt lat="45.71259" lon="6.10431">
        <ele>593</ele>
        <time>2013-09-04T02:12:32Z</time>
      </trkpt>
      <trkpt lat="45.71218" lon="6.10464">
        <ele>595</ele>
        <time>2013-09-04T02:12:42Z</time>
      </trkpt>
      <trkpt lat="45.71209" lon="6.10464">
        <ele>596</ele>
        <time>2013-09-04T02:12:45Z</time>
      </trkpt>
      <trkpt lat="45.71203" lon="6.10456">
        <ele>595</ele>
        <time>2013-09-04T02:12:46Z</time>
      </trkpt>
      <trkpt lat="45.71203" lon="6.1044">
        <ele>595</ele>
        <time>2013-09-04T02:12:47Z</time>
      </trkpt>
      <trkpt lat="45.71242" lon="6.10396">
        <ele>594</ele>
        <time>2013-09-04T02:12:54Z</time>
      </trkpt>
      <trkpt lat="45.71252" lon="6.1039">
        <ele>594</ele>
        <time>2013-09-04T02:12:55Z</time>
      </trkpt>
      <trkpt lat="45.71287" lon="6.10389">
        <ele>594</ele>
        <time>2013-09-04T02:13:00Z</time>
      </trkpt>
      <trkpt lat="45.71297" lon="6.10384">
        <ele>594</ele>
        <time>2013-09-04T02:13:02Z</time>
      </trkpt>
      <trkpt lat="45.71296" lon="6.1037">
        <ele>594</ele>
        <time>2013-09-04T02:13:05Z</time>
      </trkpt>
      <trkpt lat="45.71289" lon="6.10364">
        <ele>595</ele>
        <time>2013-09-04T02:13:07Z</time>
      </trkpt>
      <trkpt lat="45.71195" lon="6.10378">
        <ele>599</ele>
        <time>2013-09-04T02:13:28Z</time>
      </trkpt>
      <trkpt lat="45.71169" lon="6.10389">
        <ele>602</ele>
        <time>2013-09-04T02:13:40Z</time>
      </trkpt>
      <trkpt lat="45.71108" lon="6.10427">
        <ele>611</ele>
        <time>2013-09-04T02:14:10Z</time>
      </trkpt>
      <trkpt lat="45.71088" lon="6.10423">
        <ele>614</ele>
        <time>2013-09-04T02:14:21Z</time>
      </trkpt>
      <trkpt lat="45.7104" lon="6.10391">
        <ele>623</ele>
        <time>2013-09-04T02:14:49Z</time>
      </trkpt>
      <trkpt lat="45.71019" lon="6.10391">
        <ele>627</ele>
        <time>2013-09-04T02:15:01Z</time>
      </trkpt>
      <trkpt lat="45.70999" lon="6.10406">
        <ele>628</ele>
        <time>2013-09-04T02:15:08Z</time>
      </trkpt>
      <trkpt lat="45.70957" lon="6.10452">
        <ele>633</ele>
        <time>2013-09-04T02:15:25Z</time>
      </trkpt>
      <trkpt lat="45.70887" lon="6.10484">
        <ele>639</ele>
        <time>2013-09-04T02:15:49Z</time>
      </trkpt>
      <trkpt lat="45.70855" lon="6.10532">
        <ele>640</ele>
        <time>2013-09-04T02:15:58Z</time>
      </trkpt>
      <trkpt lat="45.7082" lon="6.10571">
        <ele>641</ele>
        <time>2013-09-04T02:16:06Z</time>
      </trkpt>
      <trkpt lat="45.70786" lon="6.1059">
        <ele>642</ele>
        <time>2013-09-04T02:16:14Z</time>
      </trkpt>
      <trkpt lat="45.70743" lon="6.10596">
        <ele>643</ele>
        <time>2013-09-04T02:16:23Z</time>
      </trkpt>
      <trkpt lat="45.70705" lon="6.10593">
        <ele>645</ele>
        <time>2013-09-04T02:16:32Z</time>
      </trkpt>
      <trkpt lat="45.70685" lon="6.10561">
        <ele>647</ele>
        <time>2013-09-04T02:16:41Z</time>
      </trkpt>
      <trkpt lat="45.70668" lon="6.10544">
        <ele>648</ele>
        <time>2013-09-04T02:16:48Z</time>
      </trkpt>
      <trkpt lat="45.7052" lon="6.10453">
        <ele>661</ele>
        <time>2013-09-04T02:17:38Z</time>
      </trkpt>
      <trkpt lat="45.7051" lon="6.10439">
        <ele>662</ele>
        <time>2013-09-04T02:17:43Z</time>
      </trkpt>
      <trkpt lat="45.70512" lon="6.10406">
        <ele>664</ele>
        <time>2013-09-04T02:17:51Z</time>
      </trkpt>
      <trkpt lat="45.70632" lon="6.10159">
        <ele>684</ele>
        <time>2013-09-04T02:19:06Z</time>
      </trkpt>
      <trkpt lat="45.70668" lon="6.10063">
        <ele>688</ele>
        <time>2013-09-04T02:19:28Z</time>
      </trkpt>
      <trkpt lat="45.70673" lon="6.10033">
        <ele>690</ele>
        <time>2013-09-04T02:19:34Z</time>
      </trkpt>
      <trkpt lat="45.70668" lon="6.10001">
        <ele>691</ele>
        <time>2013-09-04T02:19:41Z</time>
      </trkpt>
      <trkpt lat="45.70659" lon="6.09971">
        <ele>693</ele>
        <time>2013-09-04T02:19:49Z</time>
      </trkpt>
      <trkpt lat="45.70635" lon="6.09918">
        <ele>697</ele>
        <time>2013-09-04T02:20:03Z</time>
      </trkpt>
      <trkpt lat="45.70602" lon="6.09871">
        <ele>701</ele>
        <time>2013-09-04T02:20:19Z</time>
      </trkpt>
      <trkpt lat="45.70502" lon="6.0976">
        <ele>707</ele>
        <time>2013-09-04T02:20:50Z</time>
      </trkpt>
      <trkpt lat="45.70468" lon="6.09731">
        <ele>709</ele>
        <time>2013-09-04T02:21:01Z</time>
      </trkpt>
      <trkpt lat="45.70408" lon="6.09698">
        <ele>713</ele>
        <time>2013-09-04T02:21:18Z</time>
      </trkpt>
      <trkpt lat="45.70361" lon="6.09674">
        <ele>716</ele>
        <time>2013-09-04T02:21:33Z</time>
      </trkpt>
      <trkpt lat="45.70325" lon="6.09663">
        <ele>718</ele>
        <time>2013-09-04T02:21:43Z</time>
      </trkpt>
      <trkpt lat="45.7023" lon="6.09647">
        <ele>725</ele>
        <time>2013-09-04T02:22:11Z</time>
      </trkpt>
      <trkpt lat="45.70131" lon="6.09648">
        <ele>736</ele>
        <time>2013-09-04T02:22:51Z</time>
      </trkpt>
      <trkpt lat="45.70115" lon="6.09637">
        <ele>737</ele>
        <time>2013-09-04T02:22:56Z</time>
      </trkpt>
      <trkpt lat="45.70099" lon="6.09601">
        <ele>739</ele>
        <time>2013-09-04T02:23:05Z</time>
      </trkpt>
      <trkpt lat="45.70077" lon="6.09446">
        <ele>747</ele>
        <time>2013-09-04T02:23:38Z</time>
      </trkpt>
      <trkpt lat="45.70068" lon="6.09413">
        <ele>749</ele>
        <time>2013-09-04T02:23:47Z</time>
      </trkpt>
      <trkpt lat="45.70047" lon="6.09385">
        <ele>751</ele>
        <time>2013-09-04T02:23:58Z</time>
      </trkpt>
      <trkpt lat="45.6997" lon="6.09331">
        <ele>760</ele>
        <time>2013-09-04T02:24:28Z</time>
      </trkpt>
      <trkpt lat="45.6997" lon="6.09331">
        <ele>760</ele>
        <time>2013-09-04T02:24:29Z</time>
      </trkpt>
      <trkpt lat="45.69941" lon="6.09286">
        <ele>762</ele>
        <time>2013-09-04T02:24:40Z</time>
      </trkpt>
      <trkpt lat="45.69754" lon="6.08919">
        <ele>777</ele>
        <time>2013-09-04T02:25:58Z</time>
      </trkpt>
      <trkpt lat="45.69701" lon="6.08839">
        <ele>777</ele>
        <time>2013-09-04T02:26:10Z</time>
      </trkpt>
      <trkpt lat="45.69662" lon="6.08797">
        <ele>778</ele>
        <time>2013-09-04T02:26:17Z</time>
      </trkpt>
      <trkpt lat="45.69632" lon="6.08773">
        <ele>780</ele>
        <time>2013-09-04T02:26:29Z</time>
      </trkpt>
      <trkpt lat="45.69526" lon="6.08726">
        <ele>790</ele>
        <time>2013-09-04T02:27:06Z</time>
      </trkpt>
      <trkpt lat="45.69503" lon="6.08701">
        <ele>791</ele>
        <time>2013-09-04T02:27:14Z</time>
      </trkpt>
      <trkpt lat="45.69437" lon="6.08604">
        <ele>798</ele>
        <time>2013-09-04T02:27:41Z</time>
      </trkpt>
      <trkpt lat="45.69419" lon="6.08559">
        <ele>797</ele>
        <time>2013-09-04T02:27:46Z</time>
      </trkpt>
      <trkpt lat="45.69397" lon="6.08416">
        <ele>797</ele>
        <time>2013-09-04T02:28:00Z</time>
      </trkpt>
      <trkpt lat="45.69388" lon="6.0838">
        <ele>798</ele>
        <time>2013-09-04T02:28:06Z</time>
      </trkpt>
      <trkpt lat="45.69374" lon="6.08346">
        <ele>799</ele>
        <time>2013-09-04T02:28:13Z</time>
      </trkpt>
      <trkpt lat="45.69303" lon="6.08234">
        <ele>805</ele>
        <time>2013-09-04T02:28:40Z</time>
      </trkpt>
      <trkpt lat="45.69027" lon="6.07856">
        <ele>815</ele>
        <time>2013-09-04T02:29:55Z</time>
      </trkpt>
      <trkpt lat="45.6888" lon="6.07676">
        <ele>815</ele>
        <time>2013-09-04T02:30:21Z</time>
      </trkpt>
      <trkpt lat="45.68821" lon="6.07583">
        <ele>813</ele>
        <time>2013-09-04T02:30:33Z</time>
      </trkpt>
      <trkpt lat="45.6877" lon="6.0752">
        <ele>812</ele>
        <time>2013-09-04T02:30:42Z</time>
      </trkpt>
      <trkpt lat="45.68735" lon="6.07458">
        <ele>809</ele>
        <time>2013-09-04T02:30:49Z</time>
      </trkpt>
      <trkpt lat="45.68659" lon="6.07304">
        <ele>803</ele>
        <time>2013-09-04T02:31:07Z</time>
      </trkpt>
      <trkpt lat="45.68602" lon="6.0721">
        <ele>805</ele>
        <time>2013-09-04T02:31:24Z</time>
      </trkpt>
      <trkpt lat="45.68553" lon="6.07107">
        <ele>808</ele>
        <time>2013-09-04T02:31:42Z</time>
      </trkpt>
      <trkpt lat="45.68533" lon="6.07029">
        <ele>807</ele>
        <time>2013-09-04T02:31:50Z</time>
      </trkpt>
      <trkpt lat="45.68525" lon="6.07011">
        <ele>807</ele>
        <time>2013-09-04T02:31:52Z</time>
      </trkpt>
      <trkpt lat="45.68507" lon="6.06986">
        <ele>807</ele>
        <time>2013-09-04T02:31:55Z</time>
      </trkpt>
      <trkpt lat="45.68476" lon="6.06957">
        <ele>809</ele>
        <time>2013-09-04T02:32:06Z</time>
      </trkpt>
      <trkpt lat="45.68405" lon="6.0687">
        <ele>816</ele>
        <time>2013-09-04T02:32:34Z</time>
      </trkpt>
      <trkpt lat="45.68367" lon="6.06777">
        <ele>815</ele>
        <time>2013-09-04T02:32:44Z</time>
      </trkpt>
      <trkpt lat="45.68345" lon="6.06734">
        <ele>815</ele>
        <time>2013-09-04T02:32:49Z</time>
      </trkpt>
      <trkpt lat="45.68313" lon="6.06684">
        <ele>814</ele>
        <time>2013-09-04T02:32:56Z</time>
      </trkpt>
      <trkpt lat="45.68279" lon="6.06602">
        <ele>814</ele>
        <time>2013-09-04T02:33:04Z</time>
      </trkpt>
      <trkpt lat="45.6825" lon="6.06564">
        <ele>816</ele>
        <time>2013-09-04T02:33:15Z</time>
      </trkpt>
      <trkpt lat="45.68196" lon="6.06514">
        <ele>820</ele>
        <time>2013-09-04T02:33:33Z</time>
      </trkpt>
      <trkpt lat="45.68158" lon="6.06423">
        <ele>817</ele>
        <time>2013-09-04T02:33:43Z</time>
      </trkpt>
      <trkpt lat="45.68123" lon="6.06369">
        <ele>815</ele>
        <time>2013-09-04T02:33:50Z</time>
      </trkpt>
      <trkpt lat="45.67965" lon="6.0621">
        <ele>825</ele>
        <time>2013-09-04T02:34:39Z</time>
      </trkpt>
      <trkpt lat="45.67958" lon="6.06192">
        <ele>824</ele>
        <time>2013-09-04T02:34:41Z</time>
      </trkpt>
      <trkpt lat="45.67954" lon="6.0616">
        <ele>822</ele>
        <time>2013-09-04T02:34:44Z</time>
      </trkpt>
      <trkpt lat="45.67949" lon="6.06081">
        <ele>820</ele>
        <time>2013-09-04T02:34:52Z</time>
      </trkpt>
      <trkpt lat="45.67941" lon="6.06055">
        <ele>822</ele>
        <time>2013-09-04T02:35:01Z</time>
      </trkpt>
      <trkpt lat="45.67922" lon="6.06047">
        <ele>825</ele>
        <time>2013-09-04T02:35:11Z</time>
      </trkpt>
      <trkpt lat="45.67868" lon="6.06096">
        <ele>835</ele>
        <time>2013-09-04T02:35:43Z</time>
      </trkpt>
      <trkpt lat="45.67852" lon="6.06103">
        <ele>838</ele>
        <time>2013-09-04T02:35:51Z</time>
      </trkpt>
      <trkpt lat="45.67836" lon="6.06088">
        <ele>837</ele>
        <time>2013-09-04T02:35:53Z</time>
      </trkpt>
      <trkpt lat="45.67814" lon="6.06013">
        <ele>837</ele>
        <time>2013-09-04T02:36:01Z</time>
      </trkpt>
      <trkpt lat="45.67804" lon="6.05994">
        <ele>837</ele>
        <time>2013-09-04T02:36:03Z</time>
      </trkpt>
      <trkpt lat="45.67788" lon="6.05975">
        <ele>839</ele>
        <time>2013-09-04T02:36:12Z</time>
      </trkpt>
      <trkpt lat="45.67743" lon="6.05952">
        <ele>845</ele>
        <time>2013-09-04T02:36:34Z</time>
      </trkpt>
      <trkpt lat="45.67643" lon="6.05917">
        <ele>859</ele>
        <time>2013-09-04T02:37:19Z</time>
      </trkpt>
      <trkpt lat="45.67622" lon="6.05897">
        <ele>861</ele>
        <time>2013-09-04T02:37:29Z</time>
      </trkpt>
      <trkpt lat="45.67597" lon="6.05843">
        <ele>866</ele>
        <time>2013-09-04T02:37:47Z</time>
      </trkpt>
      <trkpt lat="45.67583" lon="6.05824">
        <ele>868</ele>
        <time>2013-09-04T02:37:54Z</time>
      </trkpt>
      <trkpt lat="45.67471" lon="6.05726">
        <ele>883</ele>
        <time>2013-09-04T02:38:46Z</time>
      </trkpt>
      <trkpt lat="45.67387" lon="6.05672">
        <ele>898</ele>
        <time>2013-09-04T02:39:34Z</time>
      </trkpt>
      <trkpt lat="45.67247" lon="6.05439">
        <ele>910</ele>
        <time>2013-09-04T02:40:32Z</time>
      </trkpt>
      <trkpt lat="45.67219" lon="6.05418">
        <ele>916</ele>
        <time>2013-09-04T02:40:51Z</time>
      </trkpt>
      <trkpt lat="45.67218" lon="6.05418">
        <ele>916</ele>
        <time>2013-09-04T02:40:51Z</time>
      </trkpt>
      <trkpt lat="45.672" lon="6.05409">
        <ele>916</ele>
        <time>2013-09-04T02:40:55Z</time>
      </trkpt>
      <trkpt lat="45.67191" lon="6.05399">
        <ele>917</ele>
        <time>2013-09-04T02:40:58Z</time>
      </trkpt>
      <trkpt lat="45.67104" lon="6.05106">
        <ele>926</ele>
        <time>2013-09-04T02:41:48Z</time>
      </trkpt>
      <trkpt lat="45.67093" lon="6.05047">
        <ele>921</ele>
        <time>2013-09-04T02:41:54Z</time>
      </trkpt>
      <trkpt lat="45.67107" lon="6.04974">
        <ele>917</ele>
        <time>2013-09-04T02:42:01Z</time>
      </trkpt>
      <trkpt lat="45.67104" lon="6.04935">
        <ele>917</ele>
        <time>2013-09-04T02:42:05Z</time>
      </trkpt>
      <trkpt lat="45.671" lon="6.04917">
        <ele>917</ele>
        <time>2013-09-04T02:42:07Z</time>
      </trkpt>
      <trkpt lat="45.67086" lon="6.04887">
        <ele>917</ele>
        <time>2013-09-04T02:42:10Z</time>
      </trkpt>
      <trkpt lat="45.67019" lon="6.04781">
        <ele>917</ele>
        <time>2013-09-04T02:42:23Z</time>
      </trkpt>
      <trkpt lat="45.66986" lon="6.04708">
        <ele>919</ele>
        <time>2013-09-04T02:42:38Z</time>
      </trkpt>
      <trkpt lat="45.6695" lon="6.04652">
        <ele>922</ele>
        <time>2013-09-04T02:42:51Z</time>
      </trkpt>
      <trkpt lat="45.66934" lon="6.04616">
        <ele>920</ele>
        <time>2013-09-04T02:42:55Z</time>
      </trkpt>
      <trkpt lat="45.66928" lon="6.04572">
        <ele>919</ele>
        <time>2013-09-04T02:42:59Z</time>
      </trkpt>
      <trkpt lat="45.66939" lon="6.04506">
        <ele>918</ele>
        <time>2013-09-04T02:43:05Z</time>
      </trkpt>
      <trkpt lat="45.66937" lon="6.04477">
        <ele>919</ele>
        <time>2013-09-04T02:43:12Z</time>
      </trkpt>
      <trkpt lat="45.66918" lon="6.04454">
        <ele>922</ele>
        <time>2013-09-04T02:43:21Z</time>
      </trkpt>
      <trkpt lat="45.66874" lon="6.04421">
        <ele>926</ele>
        <time>2013-09-04T02:43:38Z</time>
      </trkpt>
      <trkpt lat="45.66864" lon="6.04402">
        <ele>928</ele>
        <time>2013-09-04T02:43:44Z</time>
      </trkpt>
      <trkpt lat="45.66851" lon="6.04358">
        <ele>930</ele>
        <time>2013-09-04T02:43:55Z</time>
      </trkpt>
      <trkpt lat="45.66839" lon="6.04339">
        <ele>932</ele>
        <time>2013-09-04T02:44:01Z</time>
      </trkpt>
      <trkpt lat="45.66756" lon="6.04254">
        <ele>941</ele>
        <time>2013-09-04T02:44:36Z</time>
      </trkpt>
      <trkpt lat="45.66741" lon="6.04236">
        <ele>939</ele>
        <time>2013-09-04T02:44:38Z</time>
      </trkpt>
      <trkpt lat="45.66738" lon="6.04227">
        <ele>939</ele>
        <time>2013-09-04T02:44:39Z</time>
      </trkpt>
      <trkpt lat="45.66743" lon="6.04211">
        <ele>938</ele>
        <time>2013-09-04T02:44:41Z</time>
      </trkpt>
      <trkpt lat="45.66755" lon="6.04209">
        <ele>938</ele>
        <time>2013-09-04T02:44:42Z</time>
      </trkpt>
      <trkpt lat="45.66811" lon="6.04263">
        <ele>934</ele>
        <time>2013-09-04T02:44:51Z</time>
      </trkpt>
      <trkpt lat="45.66876" lon="6.04293">
        <ele>931</ele>
        <time>2013-09-04T02:45:01Z</time>
      </trkpt>
      <trkpt lat="45.66886" lon="6.04291">
        <ele>932</ele>
        <time>2013-09-04T02:45:05Z</time>
      </trkpt>
      <trkpt lat="45.6689" lon="6.04285">
        <ele>932</ele>
        <time>2013-09-04T02:45:07Z</time>
      </trkpt>
      <trkpt lat="45.6689" lon="6.04273">
        <ele>933</ele>
        <time>2013-09-04T02:45:10Z</time>
      </trkpt>
      <trkpt lat="45.66881" lon="6.04261">
        <ele>934</ele>
        <time>2013-09-04T02:45:15Z</time>
      </trkpt>
      <trkpt lat="45.66843" lon="6.04252">
        <ele>938</ele>
        <time>2013-09-04T02:45:30Z</time>
      </trkpt>
      <trkpt lat="45.66833" lon="6.04243">
        <ele>940</ele>
        <time>2013-09-04T02:45:34Z</time>
      </trkpt>
      <trkpt lat="45.66713" lon="6.04096">
        <ele>957</ele>
        <time>2013-09-04T02:46:36Z</time>
      </trkpt>
      <trkpt lat="45.66548" lon="6.03881">
        <ele>975</ele>
        <time>2013-09-04T02:47:49Z</time>
      </trkpt>
      <trkpt lat="45.66515" lon="6.03857">
        <ele>977</ele>
        <time>2013-09-04T02:47:59Z</time>
      </trkpt>
      <trkpt lat="45.6645" lon="6.03821">
        <ele>982</ele>
        <time>2013-09-04T02:48:20Z</time>
      </trkpt>
      <trkpt lat="45.66438" lon="6.03804">
        <ele>983</ele>
        <time>2013-09-04T02:48:25Z</time>
      </trkpt>
      <trkpt lat="45.66442" lon="6.03786">
        <ele>984</ele>
        <time>2013-09-04T02:48:30Z</time>
      </trkpt>
      <trkpt lat="45.66452" lon="6.03782">
        <ele>985</ele>
        <time>2013-09-04T02:48:33Z</time>
      </trkpt>
      <trkpt lat="45.6651" lon="6.03813">
        <ele>990</ele>
        <time>2013-09-04T02:48:53Z</time>
      </trkpt>
      <trkpt lat="45.66516" lon="6.03809">
        <ele>990</ele>
        <time>2013-09-04T02:48:55Z</time>
      </trkpt>
      <trkpt lat="45.6652" lon="6.03797">
        <ele>991</ele>
        <time>2013-09-04T02:48:58Z</time>
      </trkpt>
      <trkpt lat="45.66516" lon="6.03784">
        <ele>992</ele>
        <time>2013-09-04T02:49:01Z</time>
      </trkpt>
      <trkpt lat="45.66464" lon="6.03757">
        <ele>996</ele>
        <time>2013-09-04T02:49:19Z</time>
      </trkpt>
      <trkpt lat="45.66305" lon="6.03633">
        <ele>1011</ele>
        <time>2013-09-04T02:50:18Z</time>
      </trkpt>
      <trkpt lat="45.66276" lon="6.03616">
        <ele>1014</ele>
        <time>2013-09-04T02:50:30Z</time>
      </trkpt>
      <trkpt lat="45.66191" lon="6.03581">
        <ele>1023</ele>
        <time>2013-09-04T02:51:03Z</time>
      </trkpt>
      <trkpt lat="45.6618" lon="6.03562">
        <ele>1022</ele>
        <time>2013-09-04T02:51:05Z</time>
      </trkpt>
      <trkpt lat="45.66184" lon="6.03545">
        <ele>1022</ele>
        <time>2013-09-04T02:51:07Z</time>
      </trkpt>
      <trkpt lat="45.66194" lon="6.03541">
        <ele>1022</ele>
        <time>2013-09-04T02:51:08Z</time>
      </trkpt>
      <trkpt lat="45.66226" lon="6.03552">
        <ele>1021</ele>
        <time>2013-09-04T02:51:13Z</time>
      </trkpt>
      <trkpt lat="45.66286" lon="6.03559">
        <ele>1020</ele>
        <time>2013-09-04T02:51:21Z</time>
      </trkpt>
      <trkpt lat="45.66296" lon="6.03545">
        <ele>1021</ele>
        <time>2013-09-04T02:51:26Z</time>
      </trkpt>
      <trkpt lat="45.66291" lon="6.03528">
        <ele>1022</ele>
        <time>2013-09-04T02:51:30Z</time>
      </trkpt>
      <trkpt lat="45.66248" lon="6.03518">
        <ele>1026</ele>
        <time>2013-09-04T02:51:45Z</time>
      </trkpt>
      <trkpt lat="45.66191" lon="6.03475">
        <ele>1032</ele>
        <time>2013-09-04T02:52:07Z</time>
      </trkpt>
      <trkpt lat="45.66059" lon="6.0342">
        <ele>1049</ele>
        <time>2013-09-04T02:53:07Z</time>
      </trkpt>
      <trkpt lat="45.66047" lon="6.03412">
        <ele>1048</ele>
        <time>2013-09-04T02:53:08Z</time>
      </trkpt>
      <trkpt lat="45.66043" lon="6.03402">
        <ele>1048</ele>
        <time>2013-09-04T02:53:10Z</time>
      </trkpt>
      <trkpt lat="45.66045" lon="6.03379">
        <ele>1047</ele>
        <time>2013-09-04T02:53:12Z</time>
      </trkpt>
      <trkpt lat="45.66058" lon="6.03366">
        <ele>1047</ele>
        <time>2013-09-04T02:53:14Z</time>
      </trkpt>
      <trkpt lat="45.66074" lon="6.03368">
        <ele>1046</ele>
        <time>2013-09-04T02:53:16Z</time>
      </trkpt>
      <trkpt lat="45.66152" lon="6.03404">
        <ele>1044</ele>
        <time>2013-09-04T02:53:27Z</time>
      </trkpt>
      <trkpt lat="45.66162" lon="6.03401">
        <ele>1045</ele>
        <time>2013-09-04T02:53:31Z</time>
      </trkpt>
      <trkpt lat="45.66167" lon="6.03393">
        <ele>1046</ele>
        <time>2013-09-04T02:53:34Z</time>
      </trkpt>
      <trkpt lat="45.66168" lon="6.03378">
        <ele>1047</ele>
        <time>2013-09-04T02:53:38Z</time>
      </trkpt>
      <trkpt lat="45.66164" lon="6.03371">
        <ele>1047</ele>
        <time>2013-09-04T02:53:41Z</time>
      </trkpt>
      <trkpt lat="45.66072" lon="6.03335">
        <ele>1059</ele>
        <time>2013-09-04T02:54:20Z</time>
      </trkpt>
      <trkpt lat="45.65981" lon="6.03288">
        <ele>1070</ele>
        <time>2013-09-04T02:55:00Z</time>
      </trkpt>
      <trkpt lat="45.65908" lon="6.03237">
        <ele>1079</ele>
        <time>2013-09-04T02:55:34Z</time>
      </trkpt>
      <trkpt lat="45.65838" lon="6.03178">
        <ele>1090</ele>
        <time>2013-09-04T02:56:09Z</time>
      </trkpt>
      <trkpt lat="45.65747" lon="6.03112">
        <ele>1095</ele>
        <time>2013-09-04T02:56:35Z</time>
      </trkpt>
      <trkpt lat="45.65562" lon="6.02952">
        <ele>1108</ele>
        <time>2013-09-04T02:57:35Z</time>
      </trkpt>
      <trkpt lat="45.65417" lon="6.02811">
        <ele>1138</ele>
        <time>2013-09-04T02:59:10Z</time>
      </trkpt>
      <trkpt lat="45.65193" lon="6.02542">
        <ele>1156</ele>
        <time>2013-09-04T03:00:33Z</time>
      </trkpt>
      <trkpt lat="45.65043" lon="6.02392">
        <ele>1162</ele>
        <time>2013-09-04T03:01:12Z</time>
      </trkpt>
      <trkpt lat="45.64956" lon="6.02277">
        <ele>1169</ele>
        <time>2013-09-04T03:01:44Z</time>
      </trkpt>
      <trkpt lat="45.64924" lon="6.02227">
        <ele>1172</ele>
        <time>2013-09-04T03:01:58Z</time>
      </trkpt>
      <trkpt lat="45.64923" lon="6.02227">
        <ele>1172</ele>
        <time>2013-09-04T03:01:58Z</time>
      </trkpt>
      <trkpt lat="45.64685" lon="6.01788">
        <ele>1181</ele>
        <time>2013-09-04T03:03:11Z</time>
      </trkpt>
      <trkpt lat="45.64643" lon="6.01736">
        <ele>1180</ele>
        <time>2013-09-04T03:03:19Z</time>
      </trkpt>
      <trkpt lat="45.64519" lon="6.01599">
        <ele>1180</ele>
        <time>2013-09-04T03:03:40Z</time>
      </trkpt>
      <trkpt lat="45.64481" lon="6.01567">
        <ele>1180</ele>
        <time>2013-09-04T03:03:46Z</time>
      </trkpt>
      <trkpt lat="45.64466" lon="6.01544">
        <ele>1180</ele>
        <time>2013-09-04T03:03:48Z</time>
      </trkpt>
      <trkpt lat="45.64452" lon="6.0151">
        <ele>1180</ele>
        <time>2013-09-04T03:03:52Z</time>
      </trkpt>
      <trkpt lat="45.64383" lon="6.01466">
        <ele>1172</ele>
        <time>2013-09-04T03:04:02Z</time>
      </trkpt>
      <trkpt lat="45.64298" lon="6.0143">
        <ele>1164</ele>
        <time>2013-09-04T03:04:14Z</time>
      </trkpt>
      <trkpt lat="45.64134" lon="6.01314">
        <ele>1152</ele>
        <time>2013-09-04T03:04:39Z</time>
      </trkpt>
      <trkpt lat="45.6407" lon="6.01302">
        <ele>1141</ele>
        <time>2013-09-04T03:04:47Z</time>
      </trkpt>
      <trkpt lat="45.6404" lon="6.01288">
        <ele>1137</ele>
        <time>2013-09-04T03:04:51Z</time>
      </trkpt>
      <trkpt lat="45.63977" lon="6.01214">
        <ele>1130</ele>
        <time>2013-09-04T03:05:02Z</time>
      </trkpt>
      <trkpt lat="45.63928" lon="6.01182">
        <ele>1126</ele>
        <time>2013-09-04T03:05:09Z</time>
      </trkpt>
      <trkpt lat="45.63858" lon="6.01126">
        <ele>1125</ele>
        <time>2013-09-04T03:05:20Z</time>
      </trkpt>
      <trkpt lat="45.63811" lon="6.01098">
        <ele>1125</ele>
        <time>2013-09-04T03:05:27Z</time>
      </trkpt>
      <trkpt lat="45.63674" lon="6.00982">
        <ele>1125</ele>
        <time>2013-09-04T03:05:48Z</time>
      </trkpt>
      <trkpt lat="45.636" lon="6.00933">
        <ele>1119</ele>
        <time>2013-09-04T03:05:59Z</time>
      </trkpt>
      <trkpt lat="45.6358" lon="6.00916">
        <ele>1118</ele>
        <time>2013-09-04T03:06:02Z</time>
      </trkpt>
      <trkpt lat="45.63529" lon="6.00859">
        <ele>1108</ele>
        <time>2013-09-04T03:06:11Z</time>
      </trkpt>
      <trkpt lat="45.63469" lon="6.00818">
        <ele>1098</ele>
        <time>2013-09-04T03:06:20Z</time>
      </trkpt>
      <trkpt lat="45.63434" lon="6.00788">
        <ele>1095</ele>
        <time>2013-09-04T03:06:25Z</time>
      </trkpt>
      <trkpt lat="45.63424" lon="6.00792">
        <ele>1095</ele>
        <time>2013-09-04T03:06:27Z</time>
      </trkpt>
      <trkpt lat="45.63422" lon="6.00798">
        <ele>1095</ele>
        <time>2013-09-04T03:06:27Z</time>
      </trkpt>
      <trkpt lat="45.63424" lon="6.00818">
        <ele>1094</ele>
        <time>2013-09-04T03:06:29Z</time>
      </trkpt>
      <trkpt lat="45.63465" lon="6.00872">
        <ele>1091</ele>
        <time>2013-09-04T03:06:37Z</time>
      </trkpt>
      <trkpt lat="45.63512" lon="6.00974">
        <ele>1087</ele>
        <time>2013-09-04T03:06:48Z</time>
      </trkpt>
      <trkpt lat="45.63557" lon="6.01028">
        <ele>1081</ele>
        <time>2013-09-04T03:06:56Z</time>
      </trkpt>
      <trkpt lat="45.6356" lon="6.01049">
        <ele>1080</ele>
        <time>2013-09-04T03:06:58Z</time>
      </trkpt>
      <trkpt lat="45.6355" lon="6.01065">
        <ele>1079</ele>
        <time>2013-09-04T03:07:00Z</time>
      </trkpt>
      <trkpt lat="45.63535" lon="6.01064">
        <ele>1077</ele>
        <time>2013-09-04T03:07:02Z</time>
      </trkpt>
      <trkpt lat="45.63393" lon="6.00947">
        <ele>1063</ele>
        <time>2013-09-04T03:07:24Z</time>
      </trkpt>
      <trkpt lat="45.63312" lon="6.0092">
        <ele>1050</ele>
        <time>2013-09-04T03:07:35Z</time>
      </trkpt>
      <trkpt lat="45.63296" lon="6.00911">
        <ele>1048</ele>
        <time>2013-09-04T03:07:37Z</time>
      </trkpt>
      <trkpt lat="45.63278" lon="6.00881">
        <ele>1049</ele>
        <time>2013-09-04T03:07:44Z</time>
      </trkpt>
      <trkpt lat="45.63262" lon="6.00822">
        <ele>1051</ele>
        <time>2013-09-04T03:07:55Z</time>
      </trkpt>
      <trkpt lat="45.63236" lon="6.00791">
        <ele>1053</ele>
        <time>2013-09-04T03:08:03Z</time>
      </trkpt>
      <trkpt lat="45.63216" lon="6.00778">
        <ele>1050</ele>
        <time>2013-09-04T03:08:06Z</time>
      </trkpt>
      <trkpt lat="45.63179" lon="6.00775">
        <ele>1046</ele>
        <time>2013-09-04T03:08:11Z</time>
      </trkpt>
      <trkpt lat="45.63153" lon="6.00768">
        <ele>1043</ele>
        <time>2013-09-04T03:08:15Z</time>
      </trkpt>
      <trkpt lat="45.63076" lon="6.00729">
        <ele>1035</ele>
        <time>2013-09-04T03:08:26Z</time>
      </trkpt>
      <trkpt lat="45.6305" lon="6.00704">
        <ele>1033</ele>
        <time>2013-09-04T03:08:30Z</time>
      </trkpt>
      <trkpt lat="45.6303" lon="6.00664">
        <ele>1032</ele>
        <time>2013-09-04T03:08:34Z</time>
      </trkpt>
      <trkpt lat="45.63018" lon="6.00653">
        <ele>1032</ele>
        <time>2013-09-04T03:08:36Z</time>
      </trkpt>
      <trkpt lat="45.62987" lon="6.00657">
        <ele>1031</ele>
        <time>2013-09-04T03:08:40Z</time>
      </trkpt>
      <trkpt lat="45.62887" lon="6.00705">
        <ele>1007</ele>
        <time>2013-09-04T03:08:54Z</time>
      </trkpt>
      <trkpt lat="45.62887" lon="6.00705">
        <ele>1007</ele>
        <time>2013-09-04T03:08:55Z</time>
      </trkpt>
      <trkpt lat="45.62865" lon="6.00699">
        <ele>1004</ele>
        <time>2013-09-04T03:08:58Z</time>
      </trkpt>
      <trkpt lat="45.62837" lon="6.00666">
        <ele>999</ele>
        <time>2013-09-04T03:09:03Z</time>
      </trkpt>
      <trkpt lat="45.62824" lon="6.0066">
        <ele>997</ele>
        <time>2013-09-04T03:09:05Z</time>
      </trkpt>
      <trkpt lat="45.62805" lon="6.00669">
        <ele>995</ele>
        <time>2013-09-04T03:09:08Z</time>
      </trkpt>
      <trkpt lat="45.62776" lon="6.00715">
        <ele>990</ele>
        <time>2013-09-04T03:09:14Z</time>
      </trkpt>
      <trkpt lat="45.62754" lon="6.00731">
        <ele>987</ele>
        <time>2013-09-04T03:09:17Z</time>
      </trkpt>
      <trkpt lat="45.626" lon="6.00749">
        <ele>974</ele>
        <time>2013-09-04T03:09:38Z</time>
      </trkpt>
      <trkpt lat="45.62577" lon="6.00742">
        <ele>973</ele>
        <time>2013-09-04T03:09:41Z</time>
      </trkpt>
      <trkpt lat="45.62541" lon="6.00702">
        <ele>971</ele>
        <time>2013-09-04T03:09:47Z</time>
      </trkpt>
      <trkpt lat="45.62522" lon="6.00692">
        <ele>970</ele>
        <time>2013-09-04T03:09:49Z</time>
      </trkpt>
      <trkpt lat="45.62459" lon="6.00702">
        <ele>968</ele>
        <time>2013-09-04T03:09:58Z</time>
      </trkpt>
      <trkpt lat="45.6242" lon="6.00719">
        <ele>963</ele>
        <time>2013-09-04T03:10:03Z</time>
      </trkpt>
      <trkpt lat="45.62379" lon="6.0073">
        <ele>959</ele>
        <time>2013-09-04T03:10:09Z</time>
      </trkpt>
      <trkpt lat="45.62333" lon="6.00695">
        <ele>954</ele>
        <time>2013-09-04T03:10:16Z</time>
      </trkpt>
      <trkpt lat="45.62316" lon="6.00691">
        <ele>952</ele>
        <time>2013-09-04T03:10:18Z</time>
      </trkpt>
      <trkpt lat="45.6229" lon="6.00701">
        <ele>949</ele>
        <time>2013-09-04T03:10:22Z</time>
      </trkpt>
      <trkpt lat="45.62233" lon="6.00734">
        <ele>943</ele>
        <time>2013-09-04T03:10:30Z</time>
      </trkpt>
      <trkpt lat="45.62169" lon="6.00753">
        <ele>932</ele>
        <time>2013-09-04T03:10:39Z</time>
      </trkpt>
      <trkpt lat="45.62124" lon="6.00787">
        <ele>925</ele>
        <time>2013-09-04T03:10:46Z</time>
      </trkpt>
      <trkpt lat="45.62108" lon="6.00813">
        <ele>923</ele>
        <time>2013-09-04T03:10:49Z</time>
      </trkpt>
      <trkpt lat="45.62108" lon="6.00833">
        <ele>922</ele>
        <time>2013-09-04T03:10:51Z</time>
      </trkpt>
      <trkpt lat="45.62128" lon="6.00893">
        <ele>918</ele>
        <time>2013-09-04T03:10:57Z</time>
      </trkpt>
      <trkpt lat="45.62128" lon="6.00904">
        <ele>917</ele>
        <time>2013-09-04T03:10:58Z</time>
      </trkpt>
      <trkpt lat="45.62122" lon="6.00917">
        <ele>917</ele>
        <time>2013-09-04T03:10:59Z</time>
      </trkpt>
      <trkpt lat="45.62083" lon="6.00957">
        <ele>911</ele>
        <time>2013-09-04T03:11:06Z</time>
      </trkpt>
      <trkpt lat="45.61999" lon="6.00978">
        <ele>903</ele>
        <time>2013-09-04T03:11:17Z</time>
      </trkpt>
      <trkpt lat="45.61975" lon="6.01002">
        <ele>901</ele>
        <time>2013-09-04T03:11:21Z</time>
      </trkpt>
      <trkpt lat="45.61966" lon="6.01027">
        <ele>900</ele>
        <time>2013-09-04T03:11:24Z</time>
      </trkpt>
      <trkpt lat="45.61927" lon="6.01202">
        <ele>893</ele>
        <time>2013-09-04T03:11:41Z</time>
      </trkpt>
      <trkpt lat="45.61899" lon="6.01252">
        <ele>893</ele>
        <time>2013-09-04T03:11:49Z</time>
      </trkpt>
      <trkpt lat="45.6186" lon="6.01305">
        <ele>895</ele>
        <time>2013-09-04T03:11:59Z</time>
      </trkpt>
      <trkpt lat="45.61812" lon="6.01352">
        <ele>899</ele>
        <time>2013-09-04T03:12:17Z</time>
      </trkpt>
      <trkpt lat="45.61767" lon="6.0138">
        <ele>903</ele>
        <time>2013-09-04T03:12:32Z</time>
      </trkpt>
      <trkpt lat="45.61732" lon="6.01392">
        <ele>909</ele>
        <time>2013-09-04T03:12:53Z</time>
      </trkpt>
      <trkpt lat="45.61669" lon="6.01402">
        <ele>921</ele>
        <time>2013-09-04T03:13:29Z</time>
      </trkpt>
      <trkpt lat="45.61644" lon="6.01411">
        <ele>922</ele>
        <time>2013-09-04T03:13:35Z</time>
      </trkpt>
      <trkpt lat="45.61644" lon="6.01411">
        <ele>922</ele>
        <time>2013-09-04T03:13:36Z</time>
      </trkpt>
      <trkpt lat="45.61603" lon="6.01442">
        <ele>911</ele>
        <time>2013-09-04T03:13:42Z</time>
      </trkpt>
      <trkpt lat="45.61564" lon="6.01498">
        <ele>898</ele>
        <time>2013-09-04T03:13:49Z</time>
      </trkpt>
      <trkpt lat="45.61545" lon="6.01519">
        <ele>898</ele>
        <time>2013-09-04T03:13:54Z</time>
      </trkpt>
      <trkpt lat="45.61513" lon="6.01532">
        <ele>899</ele>
        <time>2013-09-04T03:14:00Z</time>
      </trkpt>
      <trkpt lat="45.61499" lon="6.01531">
        <ele>899</ele>
        <time>2013-09-04T03:14:02Z</time>
      </trkpt>
      <trkpt lat="45.61388" lon="6.01452">
        <ele>902</ele>
        <time>2013-09-04T03:14:25Z</time>
      </trkpt>
      <trkpt lat="45.61322" lon="6.01352">
        <ele>917</ele>
        <time>2013-09-04T03:15:14Z</time>
      </trkpt>
      <trkpt lat="45.61298" lon="6.01324">
        <ele>912</ele>
        <time>2013-09-04T03:15:18Z</time>
      </trkpt>
      <trkpt lat="45.61271" lon="6.013">
        <ele>907</ele>
        <time>2013-09-04T03:15:22Z</time>
      </trkpt>
      <trkpt lat="45.61243" lon="6.01287">
        <ele>903</ele>
        <time>2013-09-04T03:15:26Z</time>
      </trkpt>
      <trkpt lat="45.61211" lon="6.0128">
        <ele>901</ele>
        <time>2013-09-04T03:15:30Z</time>
      </trkpt>
      <trkpt lat="45.6115" lon="6.01278">
        <ele>898</ele>
        <time>2013-09-04T03:15:39Z</time>
      </trkpt>
      <trkpt lat="45.61129" lon="6.01286">
        <ele>893</ele>
        <time>2013-09-04T03:15:42Z</time>
      </trkpt>
      <trkpt lat="45.61026" lon="6.01352">
        <ele>873</ele>
        <time>2013-09-04T03:15:57Z</time>
      </trkpt>
      <trkpt lat="45.6092" lon="6.01409">
        <ele>852</ele>
        <time>2013-09-04T03:16:12Z</time>
      </trkpt>
      <trkpt lat="45.60873" lon="6.01449">
        <ele>840</ele>
        <time>2013-09-04T03:16:19Z</time>
      </trkpt>
      <trkpt lat="45.6083" lon="6.0145">
        <ele>832</ele>
        <time>2013-09-04T03:16:25Z</time>
      </trkpt>
      <trkpt lat="45.60742" lon="6.01476">
        <ele>830</ele>
        <time>2013-09-04T03:16:37Z</time>
      </trkpt>
      <trkpt lat="45.60647" lon="6.01513">
        <ele>829</ele>
        <time>2013-09-04T03:16:50Z</time>
      </trkpt>
      <trkpt lat="45.60565" lon="6.01528">
        <ele>833</ele>
        <time>2013-09-04T03:17:13Z</time>
      </trkpt>
      <trkpt lat="45.60514" lon="6.01542">
        <ele>837</ele>
        <time>2013-09-04T03:17:27Z</time>
      </trkpt>
      <trkpt lat="45.60454" lon="6.01568">
        <ele>835</ele>
        <time>2013-09-04T03:17:35Z</time>
      </trkpt>
      <trkpt lat="45.6039" lon="6.01579">
        <ele>833</ele>
        <time>2013-09-04T03:17:44Z</time>
      </trkpt>
      <trkpt lat="45.60339" lon="6.01605">
        <ele>823</ele>
        <time>2013-09-04T03:17:51Z</time>
      </trkpt>
      <trkpt lat="45.60238" lon="6.01643">
        <ele>804</ele>
        <time>2013-09-04T03:18:05Z</time>
      </trkpt>
      <trkpt lat="45.60206" lon="6.01643">
        <ele>800</ele>
        <time>2013-09-04T03:18:10Z</time>
      </trkpt>
      <trkpt lat="45.60143" lon="6.01659">
        <ele>793</ele>
        <time>2013-09-04T03:18:18Z</time>
      </trkpt>
      <trkpt lat="45.60075" lon="6.0164">
        <ele>788</ele>
        <time>2013-09-04T03:18:27Z</time>
      </trkpt>
      <trkpt lat="45.60025" lon="6.0165">
        <ele>786</ele>
        <time>2013-09-04T03:18:34Z</time>
      </trkpt>
      <trkpt lat="45.59944" lon="6.01627">
        <ele>785</ele>
        <time>2013-09-04T03:18:45Z</time>
      </trkpt>
      <trkpt lat="45.59916" lon="6.01613">
        <ele>785</ele>
        <time>2013-09-04T03:18:49Z</time>
      </trkpt>
      <trkpt lat="45.59834" lon="6.01559">
        <ele>792</ele>
        <time>2013-09-04T03:19:18Z</time>
      </trkpt>
      <trkpt lat="45.59785" lon="6.01555">
        <ele>784</ele>
        <time>2013-09-04T03:19:25Z</time>
      </trkpt>
      <trkpt lat="45.59703" lon="6.0156">
        <ele>772</ele>
        <time>2013-09-04T03:19:35Z</time>
      </trkpt>
      <trkpt lat="45.59683" lon="6.01555">
        <ele>772</ele>
        <time>2013-09-04T03:19:40Z</time>
      </trkpt>
      <trkpt lat="45.59669" lon="6.01549">
        <ele>772</ele>
        <time>2013-09-04T03:19:42Z</time>
      </trkpt>
      <trkpt lat="45.59607" lon="6.01498">
        <ele>775</ele>
        <time>2013-09-04T03:19:57Z</time>
      </trkpt>
      <trkpt lat="45.59584" lon="6.01485">
        <ele>772</ele>
        <time>2013-09-04T03:20:00Z</time>
      </trkpt>
      <trkpt lat="45.59454" lon="6.01434">
        <ele>758</ele>
        <time>2013-09-04T03:20:18Z</time>
      </trkpt>
      <trkpt lat="45.59359" lon="6.01342">
        <ele>759</ele>
        <time>2013-09-04T03:20:36Z</time>
      </trkpt>
      <trkpt lat="45.59313" lon="6.01284">
        <ele>755</ele>
        <time>2013-09-04T03:20:44Z</time>
      </trkpt>
      <trkpt lat="45.59199" lon="6.01094">
        <ele>746</ele>
        <time>2013-09-04T03:21:08Z</time>
      </trkpt>
      <trkpt lat="45.59132" lon="6.00964">
        <ele>732</ele>
        <time>2013-09-04T03:21:23Z</time>
      </trkpt>
      <trkpt lat="45.59132" lon="6.00963">
        <ele>731</ele>
        <time>2013-09-04T03:21:23Z</time>
      </trkpt>
      <trkpt lat="45.59038" lon="6.00747">
        <ele>705</ele>
        <time>2013-09-04T03:21:46Z</time>
      </trkpt>
      <trkpt lat="45.59027" lon="6.00734">
        <ele>705</ele>
        <time>2013-09-04T03:21:49Z</time>
      </trkpt>
      <trkpt lat="45.59016" lon="6.00738">
        <ele>705</ele>
        <time>2013-09-04T03:21:52Z</time>
      </trkpt>
      <trkpt lat="45.59014" lon="6.00744">
        <ele>705</ele>
        <time>2013-09-04T03:21:53Z</time>
      </trkpt>
      <trkpt lat="45.59015" lon="6.0077">
        <ele>706</ele>
        <time>2013-09-04T03:21:56Z</time>
      </trkpt>
      <trkpt lat="45.59035" lon="6.00841">
        <ele>708</ele>
        <time>2013-09-04T03:22:08Z</time>
      </trkpt>
      <trkpt lat="45.59094" lon="6.01005">
        <ele>712</ele>
        <time>2013-09-04T03:22:34Z</time>
      </trkpt>
      <trkpt lat="45.59094" lon="6.01019">
        <ele>710</ele>
        <time>2013-09-04T03:22:35Z</time>
      </trkpt>
      <trkpt lat="45.59084" lon="6.0103">
        <ele>707</ele>
        <time>2013-09-04T03:22:37Z</time>
      </trkpt>
      <trkpt lat="45.59071" lon="6.01025">
        <ele>704</ele>
        <time>2013-09-04T03:22:39Z</time>
      </trkpt>
      <trkpt lat="45.5904" lon="6.00963">
        <ele>694</ele>
        <time>2013-09-04T03:22:46Z</time>
      </trkpt>
      <trkpt lat="45.58921" lon="6.00858">
        <ele>667</ele>
        <time>2013-09-04T03:23:05Z</time>
      </trkpt>
      <trkpt lat="45.58904" lon="6.00841">
        <ele>664</ele>
        <time>2013-09-04T03:23:08Z</time>
      </trkpt>
      <trkpt lat="45.58886" lon="6.0081">
        <ele>661</ele>
        <time>2013-09-04T03:23:11Z</time>
      </trkpt>
      <trkpt lat="45.58797" lon="6.00559">
        <ele>639</ele>
        <time>2013-09-04T03:23:38Z</time>
      </trkpt>
      <trkpt lat="45.58774" lon="6.00478">
        <ele>634</ele>
        <time>2013-09-04T03:23:46Z</time>
      </trkpt>
      <trkpt lat="45.58741" lon="6.00306">
        <ele>625</ele>
        <time>2013-09-04T03:24:02Z</time>
      </trkpt>
      <trkpt lat="45.5873" lon="6.001">
        <ele>618</ele>
        <time>2013-09-04T03:24:22Z</time>
      </trkpt>
      <trkpt lat="45.58723" lon="6.00026">
        <ele>613</ele>
        <time>2013-09-04T03:24:29Z</time>
      </trkpt>
      <trkpt lat="45.587" lon="5.9994">
        <ele>607</ele>
        <time>2013-09-04T03:24:37Z</time>
      </trkpt>
      <trkpt lat="45.587" lon="5.99939">
        <ele>606</ele>
        <time>2013-09-04T03:24:37Z</time>
      </trkpt>
      <trkpt lat="45.58603" lon="5.9966">
        <ele>588</ele>
        <time>2013-09-04T03:25:07Z</time>
      </trkpt>
      <trkpt lat="45.58603" lon="5.99562">
        <ele>585</ele>
        <time>2013-09-04T03:25:16Z</time>
      </trkpt>
      <trkpt lat="45.58606" lon="5.99481">
        <ele>583</ele>
        <time>2013-09-04T03:25:23Z</time>
      </trkpt>
      <trkpt lat="45.58602" lon="5.99401">
        <ele>580</ele>
        <time>2013-09-04T03:25:31Z</time>
      </trkpt>
      <trkpt lat="45.58601" lon="5.99289">
        <ele>576</ele>
        <time>2013-09-04T03:25:41Z</time>
      </trkpt>
      <trkpt lat="45.58589" lon="5.9919">
        <ele>570</ele>
        <time>2013-09-04T03:25:51Z</time>
      </trkpt>
      <trkpt lat="45.58592" lon="5.99113">
        <ele>567</ele>
        <time>2013-09-04T03:25:58Z</time>
      </trkpt>
      <trkpt lat="45.58609" lon="5.98981">
        <ele>563</ele>
        <time>2013-09-04T03:26:10Z</time>
      </trkpt>
      <trkpt lat="45.58609" lon="5.98908">
        <ele>557</ele>
        <time>2013-09-04T03:26:17Z</time>
      </trkpt>
      <trkpt lat="45.58598" lon="5.98767">
        <ele>546</ele>
        <time>2013-09-04T03:26:30Z</time>
      </trkpt>
      <trkpt lat="45.58579" lon="5.98709">
        <ele>539</ele>
        <time>2013-09-04T03:26:36Z</time>
      </trkpt>
      <trkpt lat="45.58543" lon="5.98656">
        <ele>532</ele>
        <time>2013-09-04T03:26:43Z</time>
      </trkpt>
      <trkpt lat="45.58538" lon="5.98625">
        <ele>530</ele>
        <time>2013-09-04T03:26:46Z</time>
      </trkpt>
      <trkpt lat="45.58543" lon="5.98563">
        <ele>528</ele>
        <time>2013-09-04T03:26:52Z</time>
      </trkpt>
      <trkpt lat="45.58575" lon="5.9842">
        <ele>522</ele>
        <time>2013-09-04T03:27:06Z</time>
      </trkpt>
      <trkpt lat="45.58578" lon="5.98376">
        <ele>518</ele>
        <time>2013-09-04T03:27:10Z</time>
      </trkpt>
      <trkpt lat="45.58575" lon="5.98306">
        <ele>512</ele>
        <time>2013-09-04T03:27:17Z</time>
      </trkpt>
      <trkpt lat="45.58572" lon="5.98291">
        <ele>511</ele>
        <time>2013-09-04T03:27:18Z</time>
      </trkpt>
      <trkpt lat="45.58557" lon="5.98273">
        <ele>510</ele>
        <time>2013-09-04T03:27:21Z</time>
      </trkpt>
      <trkpt lat="45.58539" lon="5.98274">
        <ele>510</ele>
        <time>2013-09-04T03:27:23Z</time>
      </trkpt>
      <trkpt lat="45.58528" lon="5.98283">
        <ele>510</ele>
        <time>2013-09-04T03:27:25Z</time>
      </trkpt>
      <trkpt lat="45.58509" lon="5.98324">
        <ele>509</ele>
        <time>2013-09-04T03:27:30Z</time>
      </trkpt>
      <trkpt lat="45.58484" lon="5.98411">
        <ele>509</ele>
        <time>2013-09-04T03:27:38Z</time>
      </trkpt>
      <trkpt lat="45.58478" lon="5.98417">
        <ele>507</ele>
        <time>2013-09-04T03:27:39Z</time>
      </trkpt>
      <trkpt lat="45.58472" lon="5.98414">
        <ele>507</ele>
        <time>2013-09-04T03:27:40Z</time>
      </trkpt>
      <trkpt lat="45.5847" lon="5.98404">
        <ele>506</ele>
        <time>2013-09-04T03:27:41Z</time>
      </trkpt>
      <trkpt lat="45.5849" lon="5.9835">
        <ele>499</ele>
        <time>2013-09-04T03:27:47Z</time>
      </trkpt>
      <trkpt lat="45.58491" lon="5.98318">
        <ele>496</ele>
        <time>2013-09-04T03:27:50Z</time>
      </trkpt>
      <trkpt lat="45.58481" lon="5.98283">
        <ele>492</ele>
        <time>2013-09-04T03:27:53Z</time>
      </trkpt>
      <trkpt lat="45.58443" lon="5.98199">
        <ele>483</ele>
        <time>2013-09-04T03:28:03Z</time>
      </trkpt>
      <trkpt lat="45.58414" lon="5.98104">
        <ele>468</ele>
        <time>2013-09-04T03:28:13Z</time>
      </trkpt>
      <trkpt lat="45.5841" lon="5.9808">
        <ele>465</ele>
        <time>2013-09-04T03:28:15Z</time>
      </trkpt>
      <trkpt lat="45.58417" lon="5.98037">
        <ele>459</ele>
        <time>2013-09-04T03:28:19Z</time>
      </trkpt>
      <trkpt lat="45.58437" lon="5.98006">
        <ele>458</ele>
        <time>2013-09-04T03:28:23Z</time>
      </trkpt>
      <trkpt lat="45.58493" lon="5.97982">
        <ele>458</ele>
        <time>2013-09-04T03:28:31Z</time>
      </trkpt>
      <trkpt lat="45.58521" lon="5.97939">
        <ele>458</ele>
        <time>2013-09-04T03:28:36Z</time>
      </trkpt>
      <trkpt lat="45.58539" lon="5.97927">
        <ele>456</ele>
        <time>2013-09-04T03:28:39Z</time>
      </trkpt>
      <trkpt lat="45.58545" lon="5.97917">
        <ele>455</ele>
        <time>2013-09-04T03:28:40Z</time>
      </trkpt>
      <trkpt lat="45.58542" lon="5.97909">
        <ele>454</ele>
        <time>2013-09-04T03:28:41Z</time>
      </trkpt>
      <trkpt lat="45.58534" lon="5.97908">
        <ele>453</ele>
        <time>2013-09-04T03:28:42Z</time>
      </trkpt>
      <trkpt lat="45.58499" lon="5.97942">
        <ele>449</ele>
        <time>2013-09-04T03:28:48Z</time>
      </trkpt>
      <trkpt lat="45.58479" lon="5.97953">
        <ele>447</ele>
        <time>2013-09-04T03:28:51Z</time>
      </trkpt>
      <trkpt lat="45.58467" lon="5.97954">
        <ele>446</ele>
        <time>2013-09-04T03:28:52Z</time>
      </trkpt>
      <trkpt lat="45.58409" lon="5.9793">
        <ele>441</ele>
        <time>2013-09-04T03:29:00Z</time>
      </trkpt>
      <trkpt lat="45.58356" lon="5.97945">
        <ele>432</ele>
        <time>2013-09-04T03:29:07Z</time>
      </trkpt>
      <trkpt lat="45.58319" lon="5.97941">
        <ele>427</ele>
        <time>2013-09-04T03:29:12Z</time>
      </trkpt>
      <trkpt lat="45.58301" lon="5.97951">
        <ele>427</ele>
        <time>2013-09-04T03:29:16Z</time>
      </trkpt>
      <trkpt lat="45.58292" lon="5.97949">
        <ele>427</ele>
        <time>2013-09-04T03:29:18Z</time>
      </trkpt>
      <trkpt lat="45.5829" lon="5.9794">
        <ele>427</ele>
        <time>2013-09-04T03:29:19Z</time>
      </trkpt>
      <trkpt lat="45.58297" lon="5.97929">
        <ele>428</ele>
        <time>2013-09-04T03:29:21Z</time>
      </trkpt>
      <trkpt lat="45.58345" lon="5.97928">
        <ele>429</ele>
        <time>2013-09-04T03:29:30Z</time>
      </trkpt>
      <trkpt lat="45.58359" lon="5.97922">
        <ele>429</ele>
        <time>2013-09-04T03:29:33Z</time>
      </trkpt>
      <trkpt lat="45.58409" lon="5.97884">
        <ele>431</ele>
        <time>2013-09-04T03:29:44Z</time>
      </trkpt>
      <trkpt lat="45.58449" lon="5.97872">
        <ele>426</ele>
        <time>2013-09-04T03:29:49Z</time>
      </trkpt>
      <trkpt lat="45.58459" lon="5.97857">
        <ele>424</ele>
        <time>2013-09-04T03:29:51Z</time>
      </trkpt>
      <trkpt lat="45.58467" lon="5.97815">
        <ele>421</ele>
        <time>2013-09-04T03:29:55Z</time>
      </trkpt>
      <trkpt lat="45.58479" lon="5.97788">
        <ele>419</ele>
        <time>2013-09-04T03:29:58Z</time>
      </trkpt>
      <trkpt lat="45.58502" lon="5.97764">
        <ele>420</ele>
        <time>2013-09-04T03:30:07Z</time>
      </trkpt>
      <trkpt lat="45.58567" lon="5.97743">
        <ele>425</ele>
        <time>2013-09-04T03:30:26Z</time>
      </trkpt>
      <trkpt lat="45.58571" lon="5.9773">
        <ele>424</ele>
        <time>2013-09-04T03:30:27Z</time>
      </trkpt>
      <trkpt lat="45.58571" lon="5.97708">
        <ele>423</ele>
        <time>2013-09-04T03:30:29Z</time>
      </trkpt>
      <trkpt lat="45.58556" lon="5.97694">
        <ele>421</ele>
        <time>2013-09-04T03:30:31Z</time>
      </trkpt>
      <trkpt lat="45.5851" lon="5.97693">
        <ele>418</ele>
        <time>2013-09-04T03:30:37Z</time>
      </trkpt>
      <trkpt lat="45.58454" lon="5.97683">
        <ele>414</ele>
        <time>2013-09-04T03:30:45Z</time>
      </trkpt>
      <trkpt lat="45.58387" lon="5.97627">
        <ele>406</ele>
        <time>2013-09-04T03:30:55Z</time>
      </trkpt>
      <trkpt lat="45.58313" lon="5.976">
        <ele>399</ele>
        <time>2013-09-04T03:31:06Z</time>
      </trkpt>
      <trkpt lat="45.58246" lon="5.97562">
        <ele>389</ele>
        <time>2013-09-04T03:31:15Z</time>
      </trkpt>
      <trkpt lat="45.58203" lon="5.97547">
        <ele>384</ele>
        <time>2013-09-04T03:31:21Z</time>
      </trkpt>
      <trkpt lat="45.5815" lon="5.97455">
        <ele>391</ele>
        <time>2013-09-04T03:31:49Z</time>
      </trkpt>
      <trkpt lat="45.5815" lon="5.97454">
        <ele>390</ele>
        <time>2013-09-04T03:31:49Z</time>
      </trkpt>
      <trkpt lat="45.58063" lon="5.97367">
        <ele>384</ele>
        <time>2013-09-04T03:32:03Z</time>
      </trkpt>
      <trkpt lat="45.58049" lon="5.97361">
        <ele>381</ele>
        <time>2013-09-04T03:32:05Z</time>
      </trkpt>
      <trkpt lat="45.58023" lon="5.97362">
        <ele>377</ele>
        <time>2013-09-04T03:32:09Z</time>
      </trkpt>
      <trkpt lat="45.58003" lon="5.97357">
        <ele>374</ele>
        <time>2013-09-04T03:32:11Z</time>
      </trkpt>
      <trkpt lat="45.57951" lon="5.9733">
        <ele>365</ele>
        <time>2013-09-04T03:32:19Z</time>
      </trkpt>
      <trkpt lat="45.57941" lon="5.97313">
        <ele>365</ele>
        <time>2013-09-04T03:32:22Z</time>
      </trkpt>
      <trkpt lat="45.57946" lon="5.97299">
        <ele>365</ele>
        <time>2013-09-04T03:32:24Z</time>
      </trkpt>
      <trkpt lat="45.5797" lon="5.97278">
        <ele>366</ele>
        <time>2013-09-04T03:32:29Z</time>
      </trkpt>
      <trkpt lat="45.57976" lon="5.97266">
        <ele>366</ele>
        <time>2013-09-04T03:32:31Z</time>
      </trkpt>
      <trkpt lat="45.58027" lon="5.97101">
        <ele>369</ele>
        <time>2013-09-04T03:32:54Z</time>
      </trkpt>
      <trkpt lat="45.5802" lon="5.97088">
        <ele>368</ele>
        <time>2013-09-04T03:32:56Z</time>
      </trkpt>
      <trkpt lat="45.58011" lon="5.97091">
        <ele>367</ele>
        <time>2013-09-04T03:32:57Z</time>
      </trkpt>
      <trkpt lat="45.57988" lon="5.97154">
        <ele>363</ele>
        <time>2013-09-04T03:33:03Z</time>
      </trkpt>
      <trkpt lat="45.57973" lon="5.97172">
        <ele>362</ele>
        <time>2013-09-04T03:33:06Z</time>
      </trkpt>
      <trkpt lat="45.57966" lon="5.97176">
        <ele>361</ele>
        <time>2013-09-04T03:33:07Z</time>
      </trkpt>
      <trkpt lat="45.5796" lon="5.97173">
        <ele>361</ele>
        <time>2013-09-04T03:33:08Z</time>
      </trkpt>
      <trkpt lat="45.57957" lon="5.97162">
        <ele>360</ele>
        <time>2013-09-04T03:33:09Z</time>
      </trkpt>
      <trkpt lat="45.57974" lon="5.97115">
        <ele>357</ele>
        <time>2013-09-04T03:33:14Z</time>
      </trkpt>
      <trkpt lat="45.58006" lon="5.96936">
        <ele>348</ele>
        <time>2013-09-04T03:33:31Z</time>
      </trkpt>
      <trkpt lat="45.58005" lon="5.96873">
        <ele>340</ele>
        <time>2013-09-04T03:33:37Z</time>
      </trkpt>
      <trkpt lat="45.57997" lon="5.96845">
        <ele>336</ele>
        <time>2013-09-04T03:33:40Z</time>
      </trkpt>
      <trkpt lat="45.5799" lon="5.96832">
        <ele>334</ele>
        <time>2013-09-04T03:33:41Z</time>
      </trkpt>
      <trkpt lat="45.57983" lon="5.96824">
        <ele>332</ele>
        <time>2013-09-04T03:33:43Z</time>
      </trkpt>
      <trkpt lat="45.57936" lon="5.96801">
        <ele>324</ele>
        <time>2013-09-04T03:33:49Z</time>
      </trkpt>
      <trkpt lat="45.57917" lon="5.96783">
        <ele>321</ele>
        <time>2013-09-04T03:33:52Z</time>
      </trkpt>
      <trkpt lat="45.57877" lon="5.96703">
        <ele>313</ele>
        <time>2013-09-04T03:34:02Z</time>
      </trkpt>
      <trkpt lat="45.57821" lon="5.96652">
        <ele>310</ele>
        <time>2013-09-04T03:34:10Z</time>
      </trkpt>
      <trkpt lat="45.57781" lon="5.96605">
        <ele>309</ele>
        <time>2013-09-04T03:34:17Z</time>
      </trkpt>
      <trkpt lat="45.57755" lon="5.96561">
        <ele>307</ele>
        <time>2013-09-04T03:34:23Z</time>
      </trkpt>
      <trkpt lat="45.57748" lon="5.96544">
        <ele>307</ele>
        <time>2013-09-04T03:34:25Z</time>
      </trkpt>
      <trkpt lat="45.57747" lon="5.96527">
        <ele>306</ele>
        <time>2013-09-04T03:34:26Z</time>
      </trkpt>
      <trkpt lat="45.57738" lon="5.96519">
        <ele>306</ele>
        <time>2013-09-04T03:34:28Z</time>
      </trkpt>
      <trkpt lat="45.57731" lon="5.96519">
        <ele>306</ele>
        <time>2013-09-04T03:34:29Z</time>
      </trkpt>
      <trkpt lat="45.57685" lon="5.96439">
        <ele>304</ele>
        <time>2013-09-04T03:34:38Z</time>
      </trkpt>
      <trkpt lat="45.57668" lon="5.96416">
        <ele>303</ele>
        <time>2013-09-04T03:34:41Z</time>
      </trkpt>
      <trkpt lat="45.57644" lon="5.96395">
        <ele>302</ele>
        <time>2013-09-04T03:34:45Z</time>
      </trkpt>
      <trkpt lat="45.57623" lon="5.96385">
        <ele>302</ele>
        <time>2013-09-04T03:34:48Z</time>
      </trkpt>
      <trkpt lat="45.57597" lon="5.9638">
        <ele>302</ele>
        <time>2013-09-04T03:34:52Z</time>
      </trkpt>
      <trkpt lat="45.57524" lon="5.96389">
        <ele>301</ele>
        <time>2013-09-04T03:35:01Z</time>
      </trkpt>
      <trkpt lat="45.57515" lon="5.96381">
        <ele>301</ele>
        <time>2013-09-04T03:35:03Z</time>
      </trkpt>
      <trkpt lat="45.57504" lon="5.96387">
        <ele>301</ele>
        <time>2013-09-04T03:35:04Z</time>
      </trkpt>
      <trkpt lat="45.57499" lon="5.96397">
        <ele>300</ele>
        <time>2013-09-04T03:35:05Z</time>
      </trkpt>
      <trkpt lat="45.57476" lon="5.9641">
        <ele>300</ele>
        <time>2013-09-04T03:35:09Z</time>
      </trkpt>
      <trkpt lat="45.57448" lon="5.96409">
        <ele>300</ele>
        <time>2013-09-04T03:35:13Z</time>
      </trkpt>
      <trkpt lat="45.57416" lon="5.96384">
        <ele>299</ele>
        <time>2013-09-04T03:35:17Z</time>
      </trkpt>
      <trkpt lat="45.57378" lon="5.96329">
        <ele>299</ele>
        <time>2013-09-04T03:35:25Z</time>
      </trkpt>
      <trkpt lat="45.57363" lon="5.96315">
        <ele>298</ele>
        <time>2013-09-04T03:35:27Z</time>
      </trkpt>
      <trkpt lat="45.57343" lon="5.96308">
        <ele>298</ele>
        <time>2013-09-04T03:35:30Z</time>
      </trkpt>
      <trkpt lat="45.5731" lon="5.96307">
        <ele>297</ele>
        <time>2013-09-04T03:35:34Z</time>
      </trkpt>
      <trkpt lat="45.5727" lon="5.96124">
        <ele>296</ele>
        <time>2013-09-04T03:35:52Z</time>
      </trkpt>
      <trkpt lat="45.57255" lon="5.96065">
        <ele>295</ele>
        <time>2013-09-04T03:35:58Z</time>
      </trkpt>
      <trkpt lat="45.57246" lon="5.96046">
        <ele>295</ele>
        <time>2013-09-04T03:36:00Z</time>
      </trkpt>
      <trkpt lat="45.57233" lon="5.96037">
        <ele>295</ele>
        <time>2013-09-04T03:36:02Z</time>
      </trkpt>
      <trkpt lat="45.57216" lon="5.96037">
        <ele>295</ele>
        <time>2013-09-04T03:36:04Z</time>
      </trkpt>
      <trkpt lat="45.57183" lon="5.96044">
        <ele>295</ele>
        <time>2013-09-04T03:36:09Z</time>
      </trkpt>
      <trkpt lat="45.57173" lon="5.96025">
        <ele>294</ele>
        <time>2013-09-04T03:36:11Z</time>
      </trkpt>
      <trkpt lat="45.57169" lon="5.96003">
        <ele>294</ele>
        <time>2013-09-04T03:36:13Z</time>
      </trkpt>
      <trkpt lat="45.57168" lon="5.95968">
        <ele>294</ele>
        <time>2013-09-04T03:36:16Z</time>
      </trkpt>
      <trkpt lat="45.57178" lon="5.95852">
        <ele>294</ele>
        <time>2013-09-04T03:36:27Z</time>
      </trkpt>
      <trkpt lat="45.57178" lon="5.95785">
        <ele>293</ele>
        <time>2013-09-04T03:36:34Z</time>
      </trkpt>
      <trkpt lat="45.57116" lon="5.95324">
        <ele>291</ele>
        <time>2013-09-04T03:37:18Z</time>
      </trkpt>
      <trkpt lat="45.57116" lon="5.95323">
        <ele>290</ele>
        <time>2013-09-04T03:37:18Z</time>
      </trkpt>
      <trkpt lat="45.57057" lon="5.94877">
        <ele>286</ele>
        <time>2013-09-04T03:38:00Z</time>
      </trkpt>
      <trkpt lat="45.57044" lon="5.94813">
        <ele>285</ele>
        <time>2013-09-04T03:38:06Z</time>
      </trkpt>
      <trkpt lat="45.57021" lon="5.9472">
        <ele>285</ele>
        <time>2013-09-04T03:38:16Z</time>
      </trkpt>
      <trkpt lat="45.56952" lon="5.94497">
        <ele>283</ele>
        <time>2013-09-04T03:38:38Z</time>
      </trkpt>
      <trkpt lat="45.56836" lon="5.94098">
        <ele>279</ele>
        <time>2013-09-04T03:39:19Z</time>
      </trkpt>
      <trkpt lat="45.56816" lon="5.93992">
        <ele>278</ele>
        <time>2013-09-04T03:39:29Z</time>
      </trkpt>
      <trkpt lat="45.56772" lon="5.93801">
        <ele>277</ele>
        <time>2013-09-04T03:39:48Z</time>
      </trkpt>
      <trkpt lat="45.56761" lon="5.93776">
        <ele>276</ele>
        <time>2013-09-04T03:39:51Z</time>
      </trkpt>
      <trkpt lat="45.56731" lon="5.93739">
        <ele>276</ele>
        <time>2013-09-04T03:39:56Z</time>
      </trkpt>
      <trkpt lat="45.56721" lon="5.93717">
        <ele>276</ele>
        <time>2013-09-04T03:39:58Z</time>
      </trkpt>
      <trkpt lat="45.56687" lon="5.93597">
        <ele>275</ele>
        <time>2013-09-04T03:40:10Z</time>
      </trkpt>
      <trkpt lat="45.56687" lon="5.93596">
        <ele>274</ele>
        <time>2013-09-04T03:40:10Z</time>
      </trkpt>
      <trkpt lat="45.56631" lon="5.93419">
        <ele>274</ele>
        <time>2013-09-04T03:40:29Z</time>
      </trkpt>
      <trkpt lat="45.56626" lon="5.93406">
        <ele>274</ele>
        <time>2013-09-04T03:40:30Z</time>
      </trkpt>
      <trkpt lat="45.56605" lon="5.93407">
        <ele>274</ele>
        <time>2013-09-04T03:40:33Z</time>
      </trkpt>
      <trkpt lat="45.56562" lon="5.93376">
        <ele>274</ele>
        <time>2013-09-04T03:40:41Z</time>
      </trkpt>
      <trkpt lat="45.56385" lon="5.93199">
        <ele>276</ele>
        <time>2013-09-04T03:41:13Z</time>
      </trkpt>
      <trkpt lat="45.56386" lon="5.93189">
        <ele>276</ele>
        <time>2013-09-04T03:41:14Z</time>
      </trkpt>
      <trkpt lat="45.56376" lon="5.93182">
        <ele>276</ele>
        <time>2013-09-04T03:41:16Z</time>
      </trkpt>
      <trkpt lat="45.56312" lon="5.93012">
        <ele>277</ele>
        <time>2013-09-04T03:41:36Z</time>
      </trkpt>
      <trkpt lat="45.56308" lon="5.92992">
        <ele>277</ele>
        <time>2013-09-04T03:41:38Z</time>
      </trkpt>
      <trkpt lat="45.56307" lon="5.92948">
        <ele>277</ele>
        <time>2013-09-04T03:41:42Z</time>
      </trkpt>
      <trkpt lat="45.56307" lon="5.92948">
        <ele>277</ele>
        <time>2013-09-04T03:41:43Z</time>
      </trkpt>
      <trkpt lat="45.56321" lon="5.92891">
        <ele>276</ele>
        <time>2013-09-04T03:41:49Z</time>
      </trkpt>
      <trkpt lat="45.56339" lon="5.92856">
        <ele>276</ele>
        <time>2013-09-04T03:41:53Z</time>
      </trkpt>
      <trkpt lat="45.56339" lon="5.92839">
        <ele>276</ele>
        <time>2013-09-04T03:41:54Z</time>
      </trkpt>
      <trkpt lat="45.56345" lon="5.92834">
        <ele>276</ele>
        <time>2013-09-04T03:41:55Z</time>
      </trkpt>
      <trkpt lat="45.56346" lon="5.92825">
        <ele>276</ele>
        <time>2013-09-04T03:41:56Z</time>
      </trkpt>
      <trkpt lat="45.56341" lon="5.92815">
        <ele>275</ele>
        <time>2013-09-04T03:41:57Z</time>
      </trkpt>
      <trkpt lat="45.56342" lon="5.92799">
        <ele>275</ele>
        <time>2013-09-04T03:41:59Z</time>
      </trkpt>
      <trkpt lat="45.56397" lon="5.92594">
        <ele>274</ele>
        <time>2013-09-04T03:42:19Z</time>
      </trkpt>
      <trkpt lat="45.56414" lon="5.92511">
        <ele>274</ele>
        <time>2013-09-04T03:42:27Z</time>
      </trkpt>
      <trkpt lat="45.5642" lon="5.92509">
        <ele>274</ele>
        <time>2013-09-04T03:42:28Z</time>
      </trkpt>
      <trkpt lat="45.56423" lon="5.92501">
        <ele>274</ele>
        <time>2013-09-04T03:42:29Z</time>
      </trkpt>
      <trkpt lat="45.5642" lon="5.92492">
        <ele>274</ele>
        <time>2013-09-04T03:42:30Z</time>
      </trkpt>
      <trkpt lat="45.56414" lon="5.9249">
        <ele>274</ele>
        <time>2013-09-04T03:42:31Z</time>
      </trkpt>
      <trkpt lat="45.56414" lon="5.9249">
        <ele>274</ele>
        <time>2013-09-04T03:42:32Z</time>
      </trkpt>
      <trkpt lat="45.56414" lon="5.92475">
        <ele>273</ele>
        <time>2013-09-04T03:42:33Z</time>
      </trkpt>
      <trkpt lat="45.56485" lon="5.92443">
        <ele>273</ele>
        <time>2013-09-04T03:42:43Z</time>
      </trkpt>
      <trkpt lat="45.56485" lon="5.92443">
        <ele>273</ele>
        <time>2013-09-04T03:42:44Z</time>
      </trkpt>
      <trkpt lat="45.56498" lon="5.92435">
        <ele>272</ele>
        <time>2013-09-04T03:42:46Z</time>
      </trkpt>
      <trkpt lat="45.56503" lon="5.92445">
        <ele>272</ele>
        <time>2013-09-04T03:42:47Z</time>
      </trkpt>
      <trkpt lat="45.56517" lon="5.92436">
        <ele>272</ele>
        <time>2013-09-04T03:42:49Z</time>
      </trkpt>
      <trkpt lat="45.56591" lon="5.92373">
        <ele>271</ele>
        <time>2013-09-04T03:43:01Z</time>
      </trkpt>
      <trkpt lat="45.56579" lon="5.92372">
        <ele>270</ele>
        <time>2013-09-04T03:43:02Z</time>
      </trkpt>
      <trkpt lat="45.56575" lon="5.92361">
        <ele>270</ele>
        <time>2013-09-04T03:43:03Z</time>
      </trkpt>
      <trkpt lat="45.56577" lon="5.92352">
        <ele>270</ele>
        <time>2013-09-04T03:43:04Z</time>
      </trkpt>
      <trkpt lat="45.56617" lon="5.92317">
        <ele>270</ele>
        <time>2013-09-04T03:43:11Z</time>
      </trkpt>
      <trkpt lat="45.56654" lon="5.92282">
        <ele>269</ele>
        <time>2013-09-04T03:43:16Z</time>
      </trkpt>
      <trkpt lat="45.56602" lon="5.92178">
        <ele>271</ele>
        <time>2013-09-04T03:43:33Z</time>
      </trkpt>
      <trkpt lat="45.566" lon="5.92173">
        <ele>271</ele>
        <time>2013-09-04T03:43:34Z</time>
      </trkpt>
      <trkpt lat="45.56475" lon="5.91931">
        <ele>275</ele>
        <time>2013-09-04T03:44:12Z</time>
      </trkpt>
      <trkpt lat="45.56468" lon="5.91925">
        <ele>275</ele>
        <time>2013-09-04T03:44:13Z</time>
      </trkpt>
      <trkpt lat="45.56409" lon="5.91948">
        <ele>276</ele>
        <time>2013-09-04T03:44:23Z</time>
      </trkpt>
      <trkpt lat="45.56409" lon="5.91948">
        <ele>276</ele>
        <time>2013-09-04T03:44:24Z</time>
      </trkpt>
      <trkpt lat="45.56384" lon="5.91953">
        <ele>276</ele>
        <time>2013-09-04T03:44:30Z</time>
      </trkpt>
      <trkpt lat="45.56382" lon="5.91943">
        <ele>277</ele>
        <time>2013-09-04T03:44:31Z</time>
      </trkpt>
      <trkpt lat="45.56377" lon="5.91938">
        <ele>277</ele>
        <time>2013-09-04T03:44:33Z</time>
      </trkpt>
      <trkpt lat="45.56373" lon="5.91892">
        <ele>278</ele>
        <time>2013-09-04T03:44:40Z</time>
      </trkpt>
      <trkpt lat="45.56348" lon="5.91882">
        <ele>279</ele>
        <time>2013-09-04T03:44:45Z</time>
      </trkpt>
      <trkpt lat="45.56337" lon="5.91868">
        <ele>280</ele>
        <time>2013-09-04T03:44:49Z</time>
      </trkpt>
      <trkpt lat="45.56346" lon="5.91767">
        <ele>281</ele>
        <time>2013-09-04T03:45:03Z</time>
      </trkpt>
      <trkpt lat="45.56341" lon="5.9176">
        <ele>282</ele>
        <time>2013-09-04T03:45:04Z</time>
      </trkpt>
      <trkpt lat="45.56328" lon="5.91753">
        <ele>282</ele>
        <time>2013-09-04T03:45:07Z</time>
      </trkpt>
      <trkpt lat="45.56317" lon="5.91828">
        <ele>284</ele>
        <time>2013-09-04T03:45:18Z</time>
      </trkpt>
      <trkpt lat="45.5631" lon="5.9185">
        <ele>284</ele>
        <time>2013-09-04T03:45:21Z</time>
      </trkpt>
      <trkpt lat="45.56245" lon="5.92">
        <ele>288</ele>
        <time>2013-09-04T03:45:46Z</time>
      </trkpt>
      <trkpt lat="45.56236" lon="5.92015">
        <ele>288</ele>
        <time>2013-09-04T03:45:49Z</time>
      </trkpt>
      <trkpt lat="45.56225" lon="5.92021">
        <ele>288</ele>
        <time>2013-09-04T03:45:52Z</time>
      </trkpt>
      <trkpt lat="45.56212" lon="5.92009">
        <ele>289</ele>
        <time>2013-09-04T03:45:55Z</time>
      </trkpt>
      <trkpt lat="45.56209" lon="5.91992">
        <ele>289</ele>
        <time>2013-09-04T03:45:58Z</time>
      </trkpt>
      <trkpt lat="45.56233" lon="5.9192">
        <ele>292</ele>
        <time>2013-09-04T03:46:10Z</time>
      </trkpt>
      <trkpt lat="45.56233" lon="5.9192">
        <ele>292</ele>
        <time>2013-09-04T03:46:11Z</time>
      </trkpt>
      <trkpt lat="45.56257" lon="5.91852">
        <ele>295</ele>
        <time>2013-09-04T03:46:27Z</time>
      </trkpt>
      <trkpt lat="45.56256" lon="5.91836">
        <ele>296</ele>
        <time>2013-09-04T03:46:31Z</time>
      </trkpt>
      <trkpt lat="45.56249" lon="5.9183">
        <ele>296</ele>
        <time>2013-09-04T03:46:33Z</time>
      </trkpt>
      <trkpt lat="45.56234" lon="5.91839">
        <ele>298</ele>
        <time>2013-09-04T03:46:38Z</time>
      </trkpt>
      <trkpt lat="45.56217" lon="5.9187">
        <ele>300</ele>
        <time>2013-09-04T03:46:46Z</time>
      </trkpt>
      <trkpt lat="45.56149" lon="5.9203">
        <ele>309</ele>
        <time>2013-09-04T03:47:25Z</time>
      </trkpt>
      <trkpt lat="45.56141" lon="5.92038">
        <ele>309</ele>
        <time>2013-09-04T03:47:28Z</time>
      </trkpt>
      <trkpt lat="45.5613" lon="5.92036">
        <ele>310</ele>
        <time>2013-09-04T03:47:31Z</time>
      </trkpt>
      <trkpt lat="45.56121" lon="5.92015">
        <ele>311</ele>
        <time>2013-09-04T03:47:36Z</time>
      </trkpt>
      <trkpt lat="45.56073" lon="5.91728">
        <ele>325</ele>
        <time>2013-09-04T03:48:36Z</time>
      </trkpt>
      <trkpt lat="45.56065" lon="5.9171">
        <ele>325</ele>
        <time>2013-09-04T03:48:40Z</time>
      </trkpt>
      <trkpt lat="45.5605" lon="5.91698">
        <ele>326</ele>
        <time>2013-09-04T03:48:44Z</time>
      </trkpt>
      <trkpt lat="45.56029" lon="5.91698">
        <ele>327</ele>
        <time>2013-09-04T03:48:49Z</time>
      </trkpt>
      <trkpt lat="45.56018" lon="5.91706">
        <ele>327</ele>
        <time>2013-09-04T03:48:52Z</time>
      </trkpt>
      <trkpt lat="45.56004" lon="5.91727">
        <ele>328</ele>
        <time>2013-09-04T03:48:56Z</time>
      </trkpt>
      <trkpt lat="45.56001" lon="5.9175">
        <ele>329</ele>
        <time>2013-09-04T03:49:00Z</time>
      </trkpt>
      <trkpt lat="45.56006" lon="5.92021">
        <ele>337</ele>
        <time>2013-09-04T03:49:44Z</time>
      </trkpt>
      <trkpt lat="45.56001" lon="5.92119">
        <ele>337</ele>
        <time>2013-09-04T03:49:55Z</time>
      </trkpt>
      <trkpt lat="45.55991" lon="5.92146">
        <ele>337</ele>
        <time>2013-09-04T03:49:58Z</time>
      </trkpt>
      <trkpt lat="45.55978" lon="5.92167">
        <ele>338</ele>
        <time>2013-09-04T03:50:01Z</time>
      </trkpt>
      <trkpt lat="45.55907" lon="5.92217">
        <ele>350</ele>
        <time>2013-09-04T03:50:43Z</time>
      </trkpt>
      <trkpt lat="45.559" lon="5.92217">
        <ele>352</ele>
        <time>2013-09-04T03:50:46Z</time>
      </trkpt>
      <trkpt lat="45.55896" lon="5.92223">
        <ele>353</ele>
        <time>2013-09-04T03:50:49Z</time>
      </trkpt>
      <trkpt lat="45.5576" lon="5.92209">
        <ele>377</ele>
        <time>2013-09-04T03:52:05Z</time>
      </trkpt>
      <trkpt lat="45.5576" lon="5.92209">
        <ele>377</ele>
        <time>2013-09-04T03:52:06Z</time>
      </trkpt>
      <trkpt lat="45.55506" lon="5.92174">
        <ele>384</ele>
        <time>2013-09-04T03:52:57Z</time>
      </trkpt>
      <trkpt lat="45.55377" lon="5.92171">
        <ele>396</ele>
        <time>2013-09-04T03:53:43Z</time>
      </trkpt>
      <trkpt lat="45.55353" lon="5.9216">
        <ele>397</ele>
        <time>2013-09-04T03:53:50Z</time>
      </trkpt>
      <trkpt lat="45.55331" lon="5.92136">
        <ele>398</ele>
        <time>2013-09-04T03:53:56Z</time>
      </trkpt>
      <trkpt lat="45.55298" lon="5.92148">
        <ele>400</ele>
        <time>2013-09-04T03:54:05Z</time>
      </trkpt>
      <trkpt lat="45.55262" lon="5.92148">
        <ele>402</ele>
        <time>2013-09-04T03:54:14Z</time>
      </trkpt>
      <trkpt lat="45.5507" lon="5.92128">
        <ele>418</ele>
        <time>2013-09-04T03:55:18Z</time>
      </trkpt>
      <trkpt lat="45.54934" lon="5.92139">
        <ele>420</ele>
        <time>2013-09-04T03:55:41Z</time>
      </trkpt>
      <trkpt lat="45.54932" lon="5.92127">
        <ele>420</ele>
        <time>2013-09-04T03:55:44Z</time>
      </trkpt>
      <trkpt lat="45.54925" lon="5.92122">
        <ele>421</ele>
        <time>2013-09-04T03:55:46Z</time>
      </trkpt>
      <trkpt lat="45.54916" lon="5.92126">
        <ele>421</ele>
        <time>2013-09-04T03:55:49Z</time>
      </trkpt>
      <trkpt lat="45.54914" lon="5.92135">
        <ele>422</ele>
        <time>2013-09-04T03:55:51Z</time>
      </trkpt>
      <trkpt lat="45.54825" lon="5.92129">
        <ele>429</ele>
        <time>2013-09-04T03:56:19Z</time>
      </trkpt>
      <trkpt lat="45.54791" lon="5.92119">
        <ele>430</ele>
        <time>2013-09-04T03:56:27Z</time>
      </trkpt>
      <trkpt lat="45.54721" lon="5.92084">
        <ele>433</ele>
        <time>2013-09-04T03:56:43Z</time>
      </trkpt>
      <trkpt lat="45.54619" lon="5.92061">
        <ele>433</ele>
        <time>2013-09-04T03:56:57Z</time>
      </trkpt>
      <trkpt lat="45.54571" lon="5.92063">
        <ele>435</ele>
        <time>2013-09-04T03:57:10Z</time>
      </trkpt>
      <trkpt lat="45.54489" lon="5.92083">
        <ele>440</ele>
        <time>2013-09-04T03:57:31Z</time>
      </trkpt>
      <trkpt lat="45.54456" lon="5.92078">
        <ele>438</ele>
        <time>2013-09-04T03:57:36Z</time>
      </trkpt>
      <trkpt lat="45.54422" lon="5.92057">
        <ele>437</ele>
        <time>2013-09-04T03:57:41Z</time>
      </trkpt>
      <trkpt lat="45.54431" lon="5.92025">
        <ele>436</ele>
        <time>2013-09-04T03:57:44Z</time>
      </trkpt>
      <trkpt lat="45.54454" lon="5.9198">
        <ele>434</ele>
        <time>2013-09-04T03:57:49Z</time>
      </trkpt>
      <trkpt lat="45.54501" lon="5.91932">
        <ele>432</ele>
        <time>2013-09-04T03:57:57Z</time>
      </trkpt>
      <trkpt lat="45.5452" lon="5.91902">
        <ele>432</ele>
        <time>2013-09-04T03:58:02Z</time>
      </trkpt>
      <trkpt lat="45.54537" lon="5.9186">
        <ele>433</ele>
        <time>2013-09-04T03:58:09Z</time>
      </trkpt>
      <trkpt lat="45.54543" lon="5.91827">
        <ele>434</ele>
        <time>2013-09-04T03:58:13Z</time>
      </trkpt>
      <trkpt lat="45.54543" lon="5.91827">
        <ele>434</ele>
        <time>2013-09-04T03:58:14Z</time>
      </trkpt>
      <trkpt lat="45.54543" lon="5.91779">
        <ele>439</ele>
        <time>2013-09-04T03:58:31Z</time>
      </trkpt>
      <trkpt lat="45.5453" lon="5.91714">
        <ele>446</ele>
        <time>2013-09-04T03:58:54Z</time>
      </trkpt>
      <trkpt lat="45.54497" lon="5.91644">
        <ele>455</ele>
        <time>2013-09-04T03:59:23Z</time>
      </trkpt>
      <trkpt lat="45.54478" lon="5.91625">
        <ele>456</ele>
        <time>2013-09-04T03:59:30Z</time>
      </trkpt>
      <trkpt lat="45.54467" lon="5.91621">
        <ele>457</ele>
        <time>2013-09-04T03:59:33Z</time>
      </trkpt>
      <trkpt lat="45.54388" lon="5.91622">
        <ele>462</ele>
        <time>2013-09-04T03:59:55Z</time>
      </trkpt>
      <trkpt lat="45.54169" lon="5.91716">
        <ele>477</ele>
        <time>2013-09-04T04:01:02Z</time>
      </trkpt>
      <trkpt lat="45.54017" lon="5.91732">
        <ele>488</ele>
        <time>2013-09-04T04:01:49Z</time>
      </trkpt>
      <trkpt lat="45.53983" lon="5.91721">
        <ele>489</ele>
        <time>2013-09-04T04:01:58Z</time>
      </trkpt>
      <trkpt lat="45.53936" lon="5.91672">
        <ele>493</ele>
        <time>2013-09-04T04:02:13Z</time>
      </trkpt>
      <trkpt lat="45.53888" lon="5.91642">
        <ele>497</ele>
        <time>2013-09-04T04:02:32Z</time>
      </trkpt>
      <trkpt lat="45.53614" lon="5.9159">
        <ele>524</ele>
        <time>2013-09-04T04:04:11Z</time>
      </trkpt>
      <trkpt lat="45.53614" lon="5.9159">
        <ele>524</ele>
        <time>2013-09-04T04:04:12Z</time>
      </trkpt>
      <trkpt lat="45.53578" lon="5.91583">
        <ele>527</ele>
        <time>2013-09-04T04:04:27Z</time>
      </trkpt>
      <trkpt lat="45.53485" lon="5.91581">
        <ele>538</ele>
        <time>2013-09-04T04:05:03Z</time>
      </trkpt>
      <trkpt lat="45.53457" lon="5.91575">
        <ele>541</ele>
        <time>2013-09-04T04:05:16Z</time>
      </trkpt>
      <trkpt lat="45.53388" lon="5.91542">
        <ele>551</ele>
        <time>2013-09-04T04:05:48Z</time>
      </trkpt>
      <trkpt lat="45.53288" lon="5.91506">
        <ele>563</ele>
        <time>2013-09-04T04:06:30Z</time>
      </trkpt>
      <trkpt lat="45.53269" lon="5.91486">
        <ele>564</ele>
        <time>2013-09-04T04:06:36Z</time>
      </trkpt>
      <trkpt lat="45.53253" lon="5.91452">
        <ele>565</ele>
        <time>2013-09-04T04:06:43Z</time>
      </trkpt>
      <trkpt lat="45.53241" lon="5.91436">
        <ele>566</ele>
        <time>2013-09-04T04:06:48Z</time>
      </trkpt>
      <trkpt lat="45.53169" lon="5.914">
        <ele>570</ele>
        <time>2013-09-04T04:07:07Z</time>
      </trkpt>
      <trkpt lat="45.53143" lon="5.91375">
        <ele>571</ele>
        <time>2013-09-04T04:07:14Z</time>
      </trkpt>
      <trkpt lat="45.53127" lon="5.91349">
        <ele>572</ele>
        <time>2013-09-04T04:07:19Z</time>
      </trkpt>
      <trkpt lat="45.53103" lon="5.91291">
        <ele>574</ele>
        <time>2013-09-04T04:07:30Z</time>
      </trkpt>
      <trkpt lat="45.53085" lon="5.91271">
        <ele>575</ele>
        <time>2013-09-04T04:07:36Z</time>
      </trkpt>
      <trkpt lat="45.53055" lon="5.91258">
        <ele>576</ele>
        <time>2013-09-04T04:07:44Z</time>
      </trkpt>
      <trkpt lat="45.52857" lon="5.91218">
        <ele>587</ele>
        <time>2013-09-04T04:08:35Z</time>
      </trkpt>
      <trkpt lat="45.52844" lon="5.91221">
        <ele>587</ele>
        <time>2013-09-04T04:08:37Z</time>
      </trkpt>
      <trkpt lat="45.52829" lon="5.91239">
        <ele>587</ele>
        <time>2013-09-04T04:08:40Z</time>
      </trkpt>
      <trkpt lat="45.52782" lon="5.91343">
        <ele>588</ele>
        <time>2013-09-04T04:08:53Z</time>
      </trkpt>
      <trkpt lat="45.52762" lon="5.91375">
        <ele>591</ele>
        <time>2013-09-04T04:09:07Z</time>
      </trkpt>
      <trkpt lat="45.52724" lon="5.91412">
        <ele>597</ele>
        <time>2013-09-04T04:09:27Z</time>
      </trkpt>
      <trkpt lat="45.52679" lon="5.91442">
        <ele>604</ele>
        <time>2013-09-04T04:09:49Z</time>
      </trkpt>
      <trkpt lat="45.52648" lon="5.91503">
        <ele>605</ele>
        <time>2013-09-04T04:09:59Z</time>
      </trkpt>
      <trkpt lat="45.52632" lon="5.91525">
        <ele>606</ele>
        <time>2013-09-04T04:10:04Z</time>
      </trkpt>
      <trkpt lat="45.52571" lon="5.91573">
        <ele>608</ele>
        <time>2013-09-04T04:10:18Z</time>
      </trkpt>
      <trkpt lat="45.52539" lon="5.91591">
        <ele>611</ele>
        <time>2013-09-04T04:10:30Z</time>
      </trkpt>
      <trkpt lat="45.52461" lon="5.91599">
        <ele>619</ele>
        <time>2013-09-04T04:10:59Z</time>
      </trkpt>
      <trkpt lat="45.52398" lon="5.91598">
        <ele>625</ele>
        <time>2013-09-04T04:11:23Z</time>
      </trkpt>
      <trkpt lat="45.52347" lon="5.91578">
        <ele>631</ele>
        <time>2013-09-04T04:11:43Z</time>
      </trkpt>
      <trkpt lat="45.52239" lon="5.91499">
        <ele>642</ele>
        <time>2013-09-04T04:12:26Z</time>
      </trkpt>
      <trkpt lat="45.52174" lon="5.91501">
        <ele>646</ele>
        <time>2013-09-04T04:12:46Z</time>
      </trkpt>
      <trkpt lat="45.52111" lon="5.91492">
        <ele>651</ele>
        <time>2013-09-04T04:13:05Z</time>
      </trkpt>
      <trkpt lat="45.52081" lon="5.91498">
        <ele>654</ele>
        <time>2013-09-04T04:13:16Z</time>
      </trkpt>
      <trkpt lat="45.52081" lon="5.91498">
        <ele>654</ele>
        <time>2013-09-04T04:13:17Z</time>
      </trkpt>
      <trkpt lat="45.51954" lon="5.91509">
        <ele>665</ele>
        <time>2013-09-04T04:14:00Z</time>
      </trkpt>
      <trkpt lat="45.5185" lon="5.9153">
        <ele>669</ele>
        <time>2013-09-04T04:14:24Z</time>
      </trkpt>
      <trkpt lat="45.51815" lon="5.91544">
        <ele>667</ele>
        <time>2013-09-04T04:14:29Z</time>
      </trkpt>
      <trkpt lat="45.51759" lon="5.91584">
        <ele>666</ele>
        <time>2013-09-04T04:14:37Z</time>
      </trkpt>
      <trkpt lat="45.51725" lon="5.91599">
        <ele>666</ele>
        <time>2013-09-04T04:14:42Z</time>
      </trkpt>
      <trkpt lat="45.51639" lon="5.91621">
        <ele>666</ele>
        <time>2013-09-04T04:14:54Z</time>
      </trkpt>
      <trkpt lat="45.51533" lon="5.91613">
        <ele>670</ele>
        <time>2013-09-04T04:15:17Z</time>
      </trkpt>
      <trkpt lat="45.51502" lon="5.91628">
        <ele>671</ele>
        <time>2013-09-04T04:15:25Z</time>
      </trkpt>
      <trkpt lat="45.51473" lon="5.91655">
        <ele>672</ele>
        <time>2013-09-04T04:15:33Z</time>
      </trkpt>
      <trkpt lat="45.51456" lon="5.9166">
        <ele>673</ele>
        <time>2013-09-04T04:15:36Z</time>
      </trkpt>
      <trkpt lat="45.51437" lon="5.91655">
        <ele>674</ele>
        <time>2013-09-04T04:15:41Z</time>
      </trkpt>
      <trkpt lat="45.51402" lon="5.9163">
        <ele>678</ele>
        <time>2013-09-04T04:15:58Z</time>
      </trkpt>
      <trkpt lat="45.5135" lon="5.91601">
        <ele>686</ele>
        <time>2013-09-04T04:16:22Z</time>
      </trkpt>
      <trkpt lat="45.51294" lon="5.91585">
        <ele>692</ele>
        <time>2013-09-04T04:16:45Z</time>
      </trkpt>
      <trkpt lat="45.51272" lon="5.91584">
        <ele>694</ele>
        <time>2013-09-04T04:16:53Z</time>
      </trkpt>
      <trkpt lat="45.51258" lon="5.91592">
        <ele>696</ele>
        <time>2013-09-04T04:16:59Z</time>
      </trkpt>
      <trkpt lat="45.51251" lon="5.91617">
        <ele>696</ele>
        <time>2013-09-04T04:17:01Z</time>
      </trkpt>
      <trkpt lat="45.51252" lon="5.91633">
        <ele>696</ele>
        <time>2013-09-04T04:17:03Z</time>
      </trkpt>
      <trkpt lat="45.51279" lon="5.91676">
        <ele>696</ele>
        <time>2013-09-04T04:17:08Z</time>
      </trkpt>
      <trkpt lat="45.51313" lon="5.91765">
        <ele>696</ele>
        <time>2013-09-04T04:17:18Z</time>
      </trkpt>
      <trkpt lat="45.51329" lon="5.91858">
        <ele>702</ele>
        <time>2013-09-04T04:17:43Z</time>
      </trkpt>
      <trkpt lat="45.51342" lon="5.91914">
        <ele>707</ele>
        <time>2013-09-04T04:17:59Z</time>
      </trkpt>
      <trkpt lat="45.51359" lon="5.91954">
        <ele>707</ele>
        <time>2013-09-04T04:18:05Z</time>
      </trkpt>
      <trkpt lat="45.51382" lon="5.91995">
        <ele>708</ele>
        <time>2013-09-04T04:18:12Z</time>
      </trkpt>
      <trkpt lat="45.51439" lon="5.9208">
        <ele>711</ele>
        <time>2013-09-04T04:18:29Z</time>
      </trkpt>
      <trkpt lat="45.51445" lon="5.92109">
        <ele>714</ele>
        <time>2013-09-04T04:18:41Z</time>
      </trkpt>
      <trkpt lat="45.51453" lon="5.92199">
        <ele>726</ele>
        <time>2013-09-04T04:19:18Z</time>
      </trkpt>
      <trkpt lat="45.51471" lon="5.92238">
        <ele>733</ele>
        <time>2013-09-04T04:19:37Z</time>
      </trkpt>
      <trkpt lat="45.51497" lon="5.92274">
        <ele>736</ele>
        <time>2013-09-04T04:19:50Z</time>
      </trkpt>
      <trkpt lat="45.51698" lon="5.92522">
        <ele>761</ele>
        <time>2013-09-04T04:21:25Z</time>
      </trkpt>
      <trkpt lat="45.51732" lon="5.92554">
        <ele>758</ele>
        <time>2013-09-04T04:21:30Z</time>
      </trkpt>
      <trkpt lat="45.51753" lon="5.92562">
        <ele>756</ele>
        <time>2013-09-04T04:21:33Z</time>
      </trkpt>
      <trkpt lat="45.51852" lon="5.92576">
        <ele>750</ele>
        <time>2013-09-04T04:21:46Z</time>
      </trkpt>
      <trkpt lat="45.51904" lon="5.9259">
        <ele>746</ele>
        <time>2013-09-04T04:21:53Z</time>
      </trkpt>
      <trkpt lat="45.51958" lon="5.92587">
        <ele>742</ele>
        <time>2013-09-04T04:22:01Z</time>
      </trkpt>
      <trkpt lat="45.52018" lon="5.92594">
        <ele>730</ele>
        <time>2013-09-04T04:22:09Z</time>
      </trkpt>
      <trkpt lat="45.52069" lon="5.92618">
        <ele>720</ele>
        <time>2013-09-04T04:22:16Z</time>
      </trkpt>
      <trkpt lat="45.52093" lon="5.92637">
        <ele>724</ele>
        <time>2013-09-04T04:22:31Z</time>
      </trkpt>
      <trkpt lat="45.52097" lon="5.92651">
        <ele>726</ele>
        <time>2013-09-04T04:22:37Z</time>
      </trkpt>
      <trkpt lat="45.52093" lon="5.92659">
        <ele>728</ele>
        <time>2013-09-04T04:22:41Z</time>
      </trkpt>
      <trkpt lat="45.52087" lon="5.92661">
        <ele>729</ele>
        <time>2013-09-04T04:22:45Z</time>
      </trkpt>
      <trkpt lat="45.52044" lon="5.9262">
        <ele>738</ele>
        <time>2013-09-04T04:23:14Z</time>
      </trkpt>
      <trkpt lat="45.52025" lon="5.92612">
        <ele>741</ele>
        <time>2013-09-04T04:23:25Z</time>
      </trkpt>
      <trkpt lat="45.51995" lon="5.92611">
        <ele>747</ele>
        <time>2013-09-04T04:23:42Z</time>
      </trkpt>
      <trkpt lat="45.51921" lon="5.92636">
        <ele>761</ele>
        <time>2013-09-04T04:24:25Z</time>
      </trkpt>
      <trkpt lat="45.51902" lon="5.92639">
        <ele>764</ele>
        <time>2013-09-04T04:24:36Z</time>
      </trkpt>
      <trkpt lat="45.51862" lon="5.92633">
        <ele>772</ele>
        <time>2013-09-04T04:25:01Z</time>
      </trkpt>
      <trkpt lat="45.51823" lon="5.92651">
        <ele>781</ele>
        <time>2013-09-04T04:25:26Z</time>
      </trkpt>
      <trkpt lat="45.51774" lon="5.92645">
        <ele>795</ele>
        <time>2013-09-04T04:26:08Z</time>
      </trkpt>
      <trkpt lat="45.51755" lon="5.92649">
        <ele>801</ele>
        <time>2013-09-04T04:26:24Z</time>
      </trkpt>
      <trkpt lat="45.51732" lon="5.92663">
        <ele>809</ele>
        <time>2013-09-04T04:26:46Z</time>
      </trkpt>
      <trkpt lat="45.51716" lon="5.92664">
        <ele>809</ele>
        <time>2013-09-04T04:26:49Z</time>
      </trkpt>
      <trkpt lat="45.51672" lon="5.92623">
        <ele>811</ele>
        <time>2013-09-04T04:27:01Z</time>
      </trkpt>
      <trkpt lat="45.51607" lon="5.92592">
        <ele>814</ele>
        <time>2013-09-04T04:27:16Z</time>
      </trkpt>
      <trkpt lat="45.5156" lon="5.92551">
        <ele>817</ele>
        <time>2013-09-04T04:27:32Z</time>
      </trkpt>
      <trkpt lat="45.51521" lon="5.92542">
        <ele>820</ele>
        <time>2013-09-04T04:27:43Z</time>
      </trkpt>
      <trkpt lat="45.51521" lon="5.92542">
        <ele>820</ele>
        <time>2013-09-04T04:27:44Z</time>
      </trkpt>
      <trkpt lat="45.51499" lon="5.92525">
        <ele>821</ele>
        <time>2013-09-04T04:27:52Z</time>
      </trkpt>
      <trkpt lat="45.51466" lon="5.92521">
        <ele>823</ele>
        <time>2013-09-04T04:28:01Z</time>
      </trkpt>
      <trkpt lat="45.51424" lon="5.92497">
        <ele>827</ele>
        <time>2013-09-04T04:28:15Z</time>
      </trkpt>
      <trkpt lat="45.51391" lon="5.92487">
        <ele>830</ele>
        <time>2013-09-04T04:28:28Z</time>
      </trkpt>
      <trkpt lat="45.51356" lon="5.92465">
        <ele>834</ele>
        <time>2013-09-04T04:28:42Z</time>
      </trkpt>
      <trkpt lat="45.5135" lon="5.92469">
        <ele>835</ele>
        <time>2013-09-04T04:28:45Z</time>
      </trkpt>
      <trkpt lat="45.51275" lon="5.92596">
        <ele>847</ele>
        <time>2013-09-04T04:29:29Z</time>
      </trkpt>
      <trkpt lat="45.51249" lon="5.92613">
        <ele>843</ele>
        <time>2013-09-04T04:29:33Z</time>
      </trkpt>
      <trkpt lat="45.51215" lon="5.92624">
        <ele>840</ele>
        <time>2013-09-04T04:29:37Z</time>
      </trkpt>
      <trkpt lat="45.51168" lon="5.92629">
        <ele>835</ele>
        <time>2013-09-04T04:29:44Z</time>
      </trkpt>
      <trkpt lat="45.51127" lon="5.92627">
        <ele>835</ele>
        <time>2013-09-04T04:29:50Z</time>
      </trkpt>
      <trkpt lat="45.51087" lon="5.92613">
        <ele>835</ele>
        <time>2013-09-04T04:29:56Z</time>
      </trkpt>
      <trkpt lat="45.51042" lon="5.92573">
        <ele>836</ele>
        <time>2013-09-04T04:30:04Z</time>
      </trkpt>
      <trkpt lat="45.51007" lon="5.92559">
        <ele>838</ele>
        <time>2013-09-04T04:30:14Z</time>
      </trkpt>
      <trkpt lat="45.50979" lon="5.92541">
        <ele>840</ele>
        <time>2013-09-04T04:30:23Z</time>
      </trkpt>
      <trkpt lat="45.50936" lon="5.9248">
        <ele>844</ele>
        <time>2013-09-04T04:30:40Z</time>
      </trkpt>
      <trkpt lat="45.50888" lon="5.92347">
        <ele>877</ele>
        <time>2013-09-04T04:32:13Z</time>
      </trkpt>
      <trkpt lat="45.50859" lon="5.92317">
        <ele>875</ele>
        <time>2013-09-04T04:32:18Z</time>
      </trkpt>
      <trkpt lat="45.50825" lon="5.9231">
        <ele>874</ele>
        <time>2013-09-04T04:32:23Z</time>
      </trkpt>
      <trkpt lat="45.50797" lon="5.92315">
        <ele>873</ele>
        <time>2013-09-04T04:32:27Z</time>
      </trkpt>
      <trkpt lat="45.50787" lon="5.92326">
        <ele>870</ele>
        <time>2013-09-04T04:32:28Z</time>
      </trkpt>
      <trkpt lat="45.50773" lon="5.92357">
        <ele>864</ele>
        <time>2013-09-04T04:32:32Z</time>
      </trkpt>
      <trkpt lat="45.50756" lon="5.92384">
        <ele>859</ele>
        <time>2013-09-04T04:32:35Z</time>
      </trkpt>
      <trkpt lat="45.50732" lon="5.92402">
        <ele>853</ele>
        <time>2013-09-04T04:32:39Z</time>
      </trkpt>
      <trkpt lat="45.50716" lon="5.92406">
        <ele>850</ele>
        <time>2013-09-04T04:32:41Z</time>
      </trkpt>
      <trkpt lat="45.50686" lon="5.9239">
        <ele>855</ele>
        <time>2013-09-04T04:32:58Z</time>
      </trkpt>
      <trkpt lat="45.50661" lon="5.92367">
        <ele>860</ele>
        <time>2013-09-04T04:33:14Z</time>
      </trkpt>
      <trkpt lat="45.50636" lon="5.92331">
        <ele>866</ele>
        <time>2013-09-04T04:33:32Z</time>
      </trkpt>
      <trkpt lat="45.50612" lon="5.92267">
        <ele>873</ele>
        <time>2013-09-04T04:33:58Z</time>
      </trkpt>
      <trkpt lat="45.50595" lon="5.92178">
        <ele>884</ele>
        <time>2013-09-04T04:34:31Z</time>
      </trkpt>
      <trkpt lat="45.50575" lon="5.92108">
        <ele>885</ele>
        <time>2013-09-04T04:34:41Z</time>
      </trkpt>
      <trkpt lat="45.50514" lon="5.91998">
        <ele>888</ele>
        <time>2013-09-04T04:35:01Z</time>
      </trkpt>
      <trkpt lat="45.50505" lon="5.91988">
        <ele>886</ele>
        <time>2013-09-04T04:35:02Z</time>
      </trkpt>
      <trkpt lat="45.50481" lon="5.91975">
        <ele>881</ele>
        <time>2013-09-04T04:35:06Z</time>
      </trkpt>
      <trkpt lat="45.50462" lon="5.91978">
        <ele>878</ele>
        <time>2013-09-04T04:35:08Z</time>
      </trkpt>
      <trkpt lat="45.50438" lon="5.91991">
        <ele>873</ele>
        <time>2013-09-04T04:35:12Z</time>
      </trkpt>
      <trkpt lat="45.50428" lon="5.9199">
        <ele>871</ele>
        <time>2013-09-04T04:35:13Z</time>
      </trkpt>
      <trkpt lat="45.50409" lon="5.91972">
        <ele>868</ele>
        <time>2013-09-04T04:35:16Z</time>
      </trkpt>
      <trkpt lat="45.50328" lon="5.91861">
        <ele>888</ele>
        <time>2013-09-04T04:36:19Z</time>
      </trkpt>
      <trkpt lat="45.50311" lon="5.91844">
        <ele>890</ele>
        <time>2013-09-04T04:36:28Z</time>
      </trkpt>
      <trkpt lat="45.50276" lon="5.91824">
        <ele>895</ele>
        <time>2013-09-04T04:36:45Z</time>
      </trkpt>
      <trkpt lat="45.50249" lon="5.9176">
        <ele>902</ele>
        <time>2013-09-04T04:37:08Z</time>
      </trkpt>
      <trkpt lat="45.50221" lon="5.91739">
        <ele>905</ele>
        <time>2013-09-04T04:37:20Z</time>
      </trkpt>
      <trkpt lat="45.50212" lon="5.91727">
        <ele>906</ele>
        <time>2013-09-04T04:37:25Z</time>
      </trkpt>
      <trkpt lat="45.50166" lon="5.91628">
        <ele>916</ele>
        <time>2013-09-04T04:37:58Z</time>
      </trkpt>
      <trkpt lat="45.50115" lon="5.91551">
        <ele>917</ele>
        <time>2013-09-04T04:38:13Z</time>
      </trkpt>
      <trkpt lat="45.50088" lon="5.91501">
        <ele>919</ele>
        <time>2013-09-04T04:38:21Z</time>
      </trkpt>
      <trkpt lat="45.50087" lon="5.91501">
        <ele>918</ele>
        <time>2013-09-04T04:38:21Z</time>
      </trkpt>
      <trkpt lat="45.50065" lon="5.91414">
        <ele>916</ele>
        <time>2013-09-04T04:38:30Z</time>
      </trkpt>
      <trkpt lat="45.50052" lon="5.91401">
        <ele>915</ele>
        <time>2013-09-04T04:38:32Z</time>
      </trkpt>
      <trkpt lat="45.50037" lon="5.91405">
        <ele>915</ele>
        <time>2013-09-04T04:38:34Z</time>
      </trkpt>
      <trkpt lat="45.50031" lon="5.91418">
        <ele>914</ele>
        <time>2013-09-04T04:38:36Z</time>
      </trkpt>
      <trkpt lat="45.50029" lon="5.91456">
        <ele>913</ele>
        <time>2013-09-04T04:38:39Z</time>
      </trkpt>
      <trkpt lat="45.50013" lon="5.91499">
        <ele>912</ele>
        <time>2013-09-04T04:38:44Z</time>
      </trkpt>
      <trkpt lat="45.50006" lon="5.91533">
        <ele>911</ele>
        <time>2013-09-04T04:38:47Z</time>
      </trkpt>
      <trkpt lat="45.50002" lon="5.91571">
        <ele>910</ele>
        <time>2013-09-04T04:38:51Z</time>
      </trkpt>
      <trkpt lat="45.49999" lon="5.91678">
        <ele>912</ele>
        <time>2013-09-04T04:39:08Z</time>
      </trkpt>
      <trkpt lat="45.49983" lon="5.91826">
        <ele>917</ele>
        <time>2013-09-04T04:39:31Z</time>
      </trkpt>
      <trkpt lat="45.5" lon="5.92002">
        <ele>910</ele>
        <time>2013-09-04T04:39:48Z</time>
      </trkpt>
      <trkpt lat="45.50008" lon="5.92044">
        <ele>918</ele>
        <time>2013-09-04T04:40:12Z</time>
      </trkpt>
      <trkpt lat="45.49996" lon="5.92066">
        <ele>923</ele>
        <time>2013-09-04T04:40:27Z</time>
      </trkpt>
      <trkpt lat="45.49966" lon="5.92084">
        <ele>931</ele>
        <time>2013-09-04T04:40:52Z</time>
      </trkpt>
      <trkpt lat="45.49925" lon="5.92073">
        <ele>943</ele>
        <time>2013-09-04T04:41:24Z</time>
      </trkpt>
      <trkpt lat="45.49915" lon="5.92068">
        <ele>944</ele>
        <time>2013-09-04T04:41:29Z</time>
      </trkpt>
      <trkpt lat="45.49903" lon="5.9205">
        <ele>946</ele>
        <time>2013-09-04T04:41:37Z</time>
      </trkpt>
      <trkpt lat="45.49891" lon="5.92019">
        <ele>950</ele>
        <time>2013-09-04T04:41:48Z</time>
      </trkpt>
      <trkpt lat="45.49865" lon="5.91924">
        <ele>960</ele>
        <time>2013-09-04T04:42:21Z</time>
      </trkpt>
      <trkpt lat="45.49853" lon="5.91895">
        <ele>963</ele>
        <time>2013-09-04T04:42:34Z</time>
      </trkpt>
      <trkpt lat="45.49818" lon="5.91836">
        <ele>972</ele>
        <time>2013-09-04T04:43:03Z</time>
      </trkpt>
      <trkpt lat="45.49803" lon="5.91762">
        <ele>982</ele>
        <time>2013-09-04T04:43:32Z</time>
      </trkpt>
      <trkpt lat="45.49792" lon="5.91745">
        <ele>981</ele>
        <time>2013-09-04T04:43:34Z</time>
      </trkpt>
      <trkpt lat="45.49779" lon="5.91744">
        <ele>981</ele>
        <time>2013-09-04T04:43:36Z</time>
      </trkpt>
      <trkpt lat="45.49714" lon="5.91789">
        <ele>979</ele>
        <time>2013-09-04T04:43:45Z</time>
      </trkpt>
      <trkpt lat="45.49693" lon="5.91796">
        <ele>979</ele>
        <time>2013-09-04T04:43:50Z</time>
      </trkpt>
      <trkpt lat="45.49584" lon="5.91793">
        <ele>984</ele>
        <time>2013-09-04T04:44:15Z</time>
      </trkpt>
      <trkpt lat="45.49543" lon="5.91798">
        <ele>991</ele>
        <time>2013-09-04T04:44:38Z</time>
      </trkpt>
      <trkpt lat="45.49524" lon="5.91789">
        <ele>994</ele>
        <time>2013-09-04T04:44:49Z</time>
      </trkpt>
      <trkpt lat="45.4945" lon="5.91724">
        <ele>1010</ele>
        <time>2013-09-04T04:45:37Z</time>
      </trkpt>
      <trkpt lat="45.49435" lon="5.91722">
        <ele>1010</ele>
        <time>2013-09-04T04:45:41Z</time>
      </trkpt>
      <trkpt lat="45.49414" lon="5.91731">
        <ele>1012</ele>
        <time>2013-09-04T04:45:47Z</time>
      </trkpt>
      <trkpt lat="45.49394" lon="5.91731">
        <ele>1013</ele>
        <time>2013-09-04T04:45:52Z</time>
      </trkpt>
      <trkpt lat="45.49365" lon="5.91713">
        <ele>1014</ele>
        <time>2013-09-04T04:46:01Z</time>
      </trkpt>
      <trkpt lat="45.4935" lon="5.91695">
        <ele>1016</ele>
        <time>2013-09-04T04:46:06Z</time>
      </trkpt>
      <trkpt lat="45.4935" lon="5.91694">
        <ele>1016</ele>
        <time>2013-09-04T04:46:06Z</time>
      </trkpt>
      <trkpt lat="45.49317" lon="5.91625">
        <ele>1038</ele>
        <time>2013-09-04T04:47:07Z</time>
      </trkpt>
      <trkpt lat="45.49298" lon="5.91598">
        <ele>1048</ele>
        <time>2013-09-04T04:47:34Z</time>
      </trkpt>
      <trkpt lat="45.49285" lon="5.91596">
        <ele>1053</ele>
        <time>2013-09-04T04:47:48Z</time>
      </trkpt>
      <trkpt lat="45.49258" lon="5.91624">
        <ele>1052</ele>
        <time>2013-09-04T04:47:52Z</time>
      </trkpt>
      <trkpt lat="45.49245" lon="5.91627">
        <ele>1052</ele>
        <time>2013-09-04T04:47:54Z</time>
      </trkpt>
      <trkpt lat="45.49188" lon="5.91579">
        <ele>1051</ele>
        <time>2013-09-04T04:48:03Z</time>
      </trkpt>
      <trkpt lat="45.49163" lon="5.91568">
        <ele>1045</ele>
        <time>2013-09-04T04:48:06Z</time>
      </trkpt>
      <trkpt lat="45.49132" lon="5.91574">
        <ele>1038</ele>
        <time>2013-09-04T04:48:11Z</time>
      </trkpt>
      <trkpt lat="45.49115" lon="5.91589">
        <ele>1033</ele>
        <time>2013-09-04T04:48:13Z</time>
      </trkpt>
      <trkpt lat="45.4911" lon="5.91606">
        <ele>1030</ele>
        <time>2013-09-04T04:48:15Z</time>
      </trkpt>
      <trkpt lat="45.49118" lon="5.91644">
        <ele>1024</ele>
        <time>2013-09-04T04:48:19Z</time>
      </trkpt>
      <trkpt lat="45.49126" lon="5.91718">
        <ele>1013</ele>
        <time>2013-09-04T04:48:26Z</time>
      </trkpt>
      <trkpt lat="45.49123" lon="5.91755">
        <ele>1016</ele>
        <time>2013-09-04T04:48:37Z</time>
      </trkpt>
      <trkpt lat="45.49091" lon="5.91821">
        <ele>1023</ele>
        <time>2013-09-04T04:49:02Z</time>
      </trkpt>
      <trkpt lat="45.49053" lon="5.91934">
        <ele>1035</ele>
        <time>2013-09-04T04:49:41Z</time>
      </trkpt>
      <trkpt lat="45.49044" lon="5.91983">
        <ele>1035</ele>
        <time>2013-09-04T04:49:48Z</time>
      </trkpt>
      <trkpt lat="45.49044" lon="5.9201">
        <ele>1036</ele>
        <time>2013-09-04T04:49:52Z</time>
      </trkpt>
      <trkpt lat="45.49038" lon="5.9203">
        <ele>1036</ele>
        <time>2013-09-04T04:49:55Z</time>
      </trkpt>
      <trkpt lat="45.49012" lon="5.9207">
        <ele>1038</ele>
        <time>2013-09-04T04:50:03Z</time>
      </trkpt>
      <trkpt lat="45.48995" lon="5.92127">
        <ele>1041</ele>
        <time>2013-09-04T04:50:16Z</time>
      </trkpt>
      <trkpt lat="45.48983" lon="5.92155">
        <ele>1043</ele>
        <time>2013-09-04T04:50:24Z</time>
      </trkpt>
      <trkpt lat="45.48967" lon="5.92177">
        <ele>1044</ele>
        <time>2013-09-04T04:50:31Z</time>
      </trkpt>
      <trkpt lat="45.48951" lon="5.92186">
        <ele>1046</ele>
        <time>2013-09-04T04:50:36Z</time>
      </trkpt>
      <trkpt lat="45.48935" lon="5.92177">
        <ele>1049</ele>
        <time>2013-09-04T04:50:47Z</time>
      </trkpt>
      <trkpt lat="45.48908" lon="5.92146">
        <ele>1056</ele>
        <time>2013-09-04T04:51:09Z</time>
      </trkpt>
      <trkpt lat="45.48872" lon="5.92146">
        <ele>1063</ele>
        <time>2013-09-04T04:51:31Z</time>
      </trkpt>
      <trkpt lat="45.48858" lon="5.92139">
        <ele>1067</ele>
        <time>2013-09-04T04:51:40Z</time>
      </trkpt>
      <trkpt lat="45.48847" lon="5.92119">
        <ele>1071</ele>
        <time>2013-09-04T04:51:55Z</time>
      </trkpt>
      <trkpt lat="45.48821" lon="5.92012">
        <ele>1094</ele>
        <time>2013-09-04T04:52:58Z</time>
      </trkpt>
      <trkpt lat="45.48775" lon="5.91901">
        <ele>1108</ele>
        <time>2013-09-04T04:53:44Z</time>
      </trkpt>
      <trkpt lat="45.4872" lon="5.91825">
        <ele>1109</ele>
        <time>2013-09-04T04:53:57Z</time>
      </trkpt>
      <trkpt lat="45.48684" lon="5.91791">
        <ele>1110</ele>
        <time>2013-09-04T04:54:05Z</time>
      </trkpt>
      <trkpt lat="45.48647" lon="5.91748">
        <ele>1109</ele>
        <time>2013-09-04T04:54:11Z</time>
      </trkpt>
      <trkpt lat="45.48606" lon="5.91729">
        <ele>1109</ele>
        <time>2013-09-04T04:54:17Z</time>
      </trkpt>
      <trkpt lat="45.48554" lon="5.91739">
        <ele>1109</ele>
        <time>2013-09-04T04:54:24Z</time>
      </trkpt>
      <trkpt lat="45.48535" lon="5.91737">
        <ele>1111</ele>
        <time>2013-09-04T04:54:32Z</time>
      </trkpt>
      <trkpt lat="45.48458" lon="5.91694">
        <ele>1122</ele>
        <time>2013-09-04T04:55:08Z</time>
      </trkpt>
      <trkpt lat="45.48379" lon="5.91628">
        <ele>1142</ele>
        <time>2013-09-04T04:56:09Z</time>
      </trkpt>
      <trkpt lat="45.48359" lon="5.9162">
        <ele>1143</ele>
        <time>2013-09-04T04:56:14Z</time>
      </trkpt>
      <trkpt lat="45.48307" lon="5.91617">
        <ele>1146</ele>
        <time>2013-09-04T04:56:28Z</time>
      </trkpt>
      <trkpt lat="45.48263" lon="5.91587">
        <ele>1149</ele>
        <time>2013-09-04T04:56:42Z</time>
      </trkpt>
      <trkpt lat="45.48218" lon="5.91568">
        <ele>1152</ele>
        <time>2013-09-04T04:56:57Z</time>
      </trkpt>
      <trkpt lat="45.48148" lon="5.91508">
        <ele>1159</ele>
        <time>2013-09-04T04:57:23Z</time>
      </trkpt>
      <trkpt lat="45.48127" lon="5.91506">
        <ele>1155</ele>
        <time>2013-09-04T04:57:26Z</time>
      </trkpt>
      <trkpt lat="45.4809" lon="5.91516">
        <ele>1148</ele>
        <time>2013-09-04T04:57:31Z</time>
      </trkpt>
      <trkpt lat="45.4805" lon="5.91504">
        <ele>1142</ele>
        <time>2013-09-04T04:57:36Z</time>
      </trkpt>
      <trkpt lat="45.48016" lon="5.91468">
        <ele>1141</ele>
        <time>2013-09-04T04:57:42Z</time>
      </trkpt>
      <trkpt lat="45.47953" lon="5.91362">
        <ele>1141</ele>
        <time>2013-09-04T04:57:55Z</time>
      </trkpt>
      <trkpt lat="45.47953" lon="5.91362">
        <ele>1141</ele>
        <time>2013-09-04T04:57:56Z</time>
      </trkpt>
      <trkpt lat="45.47907" lon="5.9129">
        <ele>1137</ele>
        <time>2013-09-04T04:58:05Z</time>
      </trkpt>
      <trkpt lat="45.47869" lon="5.91239">
        <ele>1134</ele>
        <time>2013-09-04T04:58:12Z</time>
      </trkpt>
      <trkpt lat="45.47852" lon="5.91209">
        <ele>1132</ele>
        <time>2013-09-04T04:58:16Z</time>
      </trkpt>
      <trkpt lat="45.47807" lon="5.91107">
        <ele>1126</ele>
        <time>2013-09-04T04:58:27Z</time>
      </trkpt>
      <trkpt lat="45.47773" lon="5.91008">
        <ele>1121</ele>
        <time>2013-09-04T04:58:37Z</time>
      </trkpt>
      <trkpt lat="45.47758" lon="5.9099">
        <ele>1120</ele>
        <time>2013-09-04T04:58:40Z</time>
      </trkpt>
      <trkpt lat="45.47714" lon="5.9096">
        <ele>1114</ele>
        <time>2013-09-04T04:58:46Z</time>
      </trkpt>
      <trkpt lat="45.47682" lon="5.90897">
        <ele>1108</ele>
        <time>2013-09-04T04:58:54Z</time>
      </trkpt>
      <trkpt lat="45.47565" lon="5.90752">
        <ele>1100</ele>
        <time>2013-09-04T04:59:14Z</time>
      </trkpt>
      <trkpt lat="45.47551" lon="5.90724">
        <ele>1098</ele>
        <time>2013-09-04T04:59:18Z</time>
      </trkpt>
      <trkpt lat="45.4753" lon="5.90659">
        <ele>1094</ele>
        <time>2013-09-04T04:59:24Z</time>
      </trkpt>
      <trkpt lat="45.47514" lon="5.90634">
        <ele>1093</ele>
        <time>2013-09-04T04:59:27Z</time>
      </trkpt>
      <trkpt lat="45.475" lon="5.90626">
        <ele>1090</ele>
        <time>2013-09-04T04:59:29Z</time>
      </trkpt>
      <trkpt lat="45.47488" lon="5.90627">
        <ele>1087</ele>
        <time>2013-09-04T04:59:31Z</time>
      </trkpt>
      <trkpt lat="45.47455" lon="5.90664">
        <ele>1080</ele>
        <time>2013-09-04T04:59:37Z</time>
      </trkpt>
      <trkpt lat="45.47408" lon="5.90683">
        <ele>1071</ele>
        <time>2013-09-04T04:59:43Z</time>
      </trkpt>
      <trkpt lat="45.47379" lon="5.90681">
        <ele>1067</ele>
        <time>2013-09-04T04:59:47Z</time>
      </trkpt>
      <trkpt lat="45.4736" lon="5.90671">
        <ele>1065</ele>
        <time>2013-09-04T04:59:50Z</time>
      </trkpt>
      <trkpt lat="45.47302" lon="5.90626">
        <ele>1058</ele>
        <time>2013-09-04T04:59:59Z</time>
      </trkpt>
      <trkpt lat="45.47256" lon="5.9058">
        <ele>1055</ele>
        <time>2013-09-04T05:00:06Z</time>
      </trkpt>
      <trkpt lat="45.47194" lon="5.90546">
        <ele>1053</ele>
        <time>2013-09-04T05:00:15Z</time>
      </trkpt>
      <trkpt lat="45.47096" lon="5.90441">
        <ele>1043</ele>
        <time>2013-09-04T05:00:31Z</time>
      </trkpt>
      <trkpt lat="45.4707" lon="5.904">
        <ele>1038</ele>
        <time>2013-09-04T05:00:37Z</time>
      </trkpt>
      <trkpt lat="45.47052" lon="5.90319">
        <ele>1031</ele>
        <time>2013-09-04T05:00:44Z</time>
      </trkpt>
      <trkpt lat="45.4704" lon="5.903">
        <ele>1029</ele>
        <time>2013-09-04T05:00:47Z</time>
      </trkpt>
      <trkpt lat="45.46954" lon="5.90272">
        <ele>1025</ele>
        <time>2013-09-04T05:00:59Z</time>
      </trkpt>
      <trkpt lat="45.46924" lon="5.90251">
        <ele>1021</ele>
        <time>2013-09-04T05:01:03Z</time>
      </trkpt>
      <trkpt lat="45.46878" lon="5.90195">
        <ele>1014</ele>
        <time>2013-09-04T05:01:11Z</time>
      </trkpt>
      <trkpt lat="45.46833" lon="5.90165">
        <ele>1010</ele>
        <time>2013-09-04T05:01:18Z</time>
      </trkpt>
      <trkpt lat="45.46812" lon="5.90136">
        <ele>1008</ele>
        <time>2013-09-04T05:01:22Z</time>
      </trkpt>
      <trkpt lat="45.46779" lon="5.90101">
        <ele>1006</ele>
        <time>2013-09-04T05:01:27Z</time>
      </trkpt>
      <trkpt lat="45.46748" lon="5.90051">
        <ele>1004</ele>
        <time>2013-09-04T05:01:33Z</time>
      </trkpt>
      <trkpt lat="45.46737" lon="5.9004">
        <ele>1004</ele>
        <time>2013-09-04T05:01:35Z</time>
      </trkpt>
      <trkpt lat="45.46689" lon="5.90019">
        <ele>1003</ele>
        <time>2013-09-04T05:01:42Z</time>
      </trkpt>
      <trkpt lat="45.46638" lon="5.89988">
        <ele>1000</ele>
        <time>2013-09-04T05:01:49Z</time>
      </trkpt>
      <trkpt lat="45.46615" lon="5.89992">
        <ele>998</ele>
        <time>2013-09-04T05:01:53Z</time>
      </trkpt>
      <trkpt lat="45.46584" lon="5.90015">
        <ele>997</ele>
        <time>2013-09-04T05:01:57Z</time>
      </trkpt>
      <trkpt lat="45.46565" lon="5.90019">
        <ele>992</ele>
        <time>2013-09-04T05:02:00Z</time>
      </trkpt>
      <trkpt lat="45.46554" lon="5.90013">
        <ele>990</ele>
        <time>2013-09-04T05:02:01Z</time>
      </trkpt>
      <trkpt lat="45.46524" lon="5.89982">
        <ele>981</ele>
        <time>2013-09-04T05:02:06Z</time>
      </trkpt>
      <trkpt lat="45.46507" lon="5.89975">
        <ele>978</ele>
        <time>2013-09-04T05:02:09Z</time>
      </trkpt>
      <trkpt lat="45.46507" lon="5.89975">
        <ele>978</ele>
        <time>2013-09-04T05:02:10Z</time>
      </trkpt>
      <trkpt lat="45.46437" lon="5.89962">
        <ele>971</ele>
        <time>2013-09-04T05:02:19Z</time>
      </trkpt>
      <trkpt lat="45.46375" lon="5.89935">
        <ele>966</ele>
        <time>2013-09-04T05:02:28Z</time>
      </trkpt>
      <trkpt lat="45.46355" lon="5.89903">
        <ele>962</ele>
        <time>2013-09-04T05:02:32Z</time>
      </trkpt>
      <trkpt lat="45.46335" lon="5.89855">
        <ele>957</ele>
        <time>2013-09-04T05:02:37Z</time>
      </trkpt>
      <trkpt lat="45.46301" lon="5.89762">
        <ele>949</ele>
        <time>2013-09-04T05:02:47Z</time>
      </trkpt>
      <trkpt lat="45.46303" lon="5.89748">
        <ele>948</ele>
        <time>2013-09-04T05:02:48Z</time>
      </trkpt>
      <trkpt lat="45.46316" lon="5.89749">
        <ele>948</ele>
        <time>2013-09-04T05:02:50Z</time>
      </trkpt>
      <trkpt lat="45.4637" lon="5.8981">
        <ele>945</ele>
        <time>2013-09-04T05:02:59Z</time>
      </trkpt>
      <trkpt lat="45.46403" lon="5.89828">
        <ele>944</ele>
        <time>2013-09-04T05:03:04Z</time>
      </trkpt>
      <trkpt lat="45.46412" lon="5.89821">
        <ele>943</ele>
        <time>2013-09-04T05:03:05Z</time>
      </trkpt>
      <trkpt lat="45.4641" lon="5.89803">
        <ele>942</ele>
        <time>2013-09-04T05:03:07Z</time>
      </trkpt>
      <trkpt lat="45.46379" lon="5.89759">
        <ele>940</ele>
        <time>2013-09-04T05:03:13Z</time>
      </trkpt>
      <trkpt lat="45.46324" lon="5.89711">
        <ele>938</ele>
        <time>2013-09-04T05:03:21Z</time>
      </trkpt>
      <trkpt lat="45.46283" lon="5.89648">
        <ele>936</ele>
        <time>2013-09-04T05:03:29Z</time>
      </trkpt>
      <trkpt lat="45.46268" lon="5.89634">
        <ele>935</ele>
        <time>2013-09-04T05:03:32Z</time>
      </trkpt>
      <trkpt lat="45.46259" lon="5.89629">
        <ele>935</ele>
        <time>2013-09-04T05:03:33Z</time>
      </trkpt>
      <trkpt lat="45.46209" lon="5.89634">
        <ele>934</ele>
        <time>2013-09-04T05:03:40Z</time>
      </trkpt>
      <trkpt lat="45.4615" lon="5.89627">
        <ele>934</ele>
        <time>2013-09-04T05:03:49Z</time>
      </trkpt>
      <trkpt lat="45.4612" lon="5.89614">
        <ele>935</ele>
        <time>2013-09-04T05:03:54Z</time>
      </trkpt>
      <trkpt lat="45.4608" lon="5.89568">
        <ele>928</ele>
        <time>2013-09-04T05:04:01Z</time>
      </trkpt>
      <trkpt lat="45.46004" lon="5.89455">
        <ele>915</ele>
        <time>2013-09-04T05:04:16Z</time>
      </trkpt>
      <trkpt lat="45.45987" lon="5.89444">
        <ele>914</ele>
        <time>2013-09-04T05:04:18Z</time>
      </trkpt>
      <trkpt lat="45.45961" lon="5.89442">
        <ele>914</ele>
        <time>2013-09-04T05:04:22Z</time>
      </trkpt>
      <trkpt lat="45.45947" lon="5.89431">
        <ele>913</ele>
        <time>2013-09-04T05:04:24Z</time>
      </trkpt>
      <trkpt lat="45.45892" lon="5.89342">
        <ele>912</ele>
        <time>2013-09-04T05:04:35Z</time>
      </trkpt>
      <trkpt lat="45.45811" lon="5.89241">
        <ele>904</ele>
        <time>2013-09-04T05:04:49Z</time>
      </trkpt>
      <trkpt lat="45.45811" lon="5.8924">
        <ele>903</ele>
        <time>2013-09-04T05:04:49Z</time>
      </trkpt>
      <trkpt lat="45.45733" lon="5.8914">
        <ele>895</ele>
        <time>2013-09-04T05:05:03Z</time>
      </trkpt>
      <trkpt lat="45.45681" lon="5.89085">
        <ele>889</ele>
        <time>2013-09-04T05:05:12Z</time>
      </trkpt>
      <trkpt lat="45.45658" lon="5.89048">
        <ele>886</ele>
        <time>2013-09-04T05:05:17Z</time>
      </trkpt>
      <trkpt lat="45.45621" lon="5.88955">
        <ele>880</ele>
        <time>2013-09-04T05:05:27Z</time>
      </trkpt>
      <trkpt lat="45.45611" lon="5.88922">
        <ele>879</ele>
        <time>2013-09-04T05:05:30Z</time>
      </trkpt>
      <trkpt lat="45.45603" lon="5.88875">
        <ele>874</ele>
        <time>2013-09-04T05:05:35Z</time>
      </trkpt>
      <trkpt lat="45.45595" lon="5.88777">
        <ele>865</ele>
        <time>2013-09-04T05:05:44Z</time>
      </trkpt>
      <trkpt lat="45.45587" lon="5.88745">
        <ele>862</ele>
        <time>2013-09-04T05:05:47Z</time>
      </trkpt>
      <trkpt lat="45.45561" lon="5.88683">
        <ele>857</ele>
        <time>2013-09-04T05:05:54Z</time>
      </trkpt>
      <trkpt lat="45.45557" lon="5.88643">
        <ele>855</ele>
        <time>2013-09-04T05:05:58Z</time>
      </trkpt>
      <trkpt lat="45.45561" lon="5.88592">
        <ele>851</ele>
        <time>2013-09-04T05:06:02Z</time>
      </trkpt>
      <trkpt lat="45.45559" lon="5.88572">
        <ele>850</ele>
        <time>2013-09-04T05:06:04Z</time>
      </trkpt>
      <trkpt lat="45.45547" lon="5.88552">
        <ele>848</ele>
        <time>2013-09-04T05:06:07Z</time>
      </trkpt>
      <trkpt lat="45.45478" lon="5.88478">
        <ele>841</ele>
        <time>2013-09-04T05:06:18Z</time>
      </trkpt>
      <trkpt lat="45.45478" lon="5.88478">
        <ele>841</ele>
        <time>2013-09-04T05:06:19Z</time>
      </trkpt>
      <trkpt lat="45.45429" lon="5.88426">
        <ele>836</ele>
        <time>2013-09-04T05:06:28Z</time>
      </trkpt>
      <trkpt lat="45.45406" lon="5.88408">
        <ele>835</ele>
        <time>2013-09-04T05:06:31Z</time>
      </trkpt>
      <trkpt lat="45.45391" lon="5.88407">
        <ele>834</ele>
        <time>2013-09-04T05:06:33Z</time>
      </trkpt>
      <trkpt lat="45.45329" lon="5.88428">
        <ele>832</ele>
        <time>2013-09-04T05:06:42Z</time>
      </trkpt>
      <trkpt lat="45.45309" lon="5.88427">
        <ele>832</ele>
        <time>2013-09-04T05:06:44Z</time>
      </trkpt>
      <trkpt lat="45.45239" lon="5.88388">
        <ele>831</ele>
        <time>2013-09-04T05:06:54Z</time>
      </trkpt>
      <trkpt lat="45.4516" lon="5.88383">
        <ele>827</ele>
        <time>2013-09-04T05:07:05Z</time>
      </trkpt>
      <trkpt lat="45.45046" lon="5.88328">
        <ele>821</ele>
        <time>2013-09-04T05:07:21Z</time>
      </trkpt>
      <trkpt lat="45.45025" lon="5.88316">
        <ele>820</ele>
        <time>2013-09-04T05:07:24Z</time>
      </trkpt>
      <trkpt lat="45.44992" lon="5.88273">
        <ele>819</ele>
        <time>2013-09-04T05:07:30Z</time>
      </trkpt>
      <trkpt lat="45.44977" lon="5.88266">
        <ele>819</ele>
        <time>2013-09-04T05:07:32Z</time>
      </trkpt>
      <trkpt lat="45.44931" lon="5.88228">
        <ele>818</ele>
        <time>2013-09-04T05:07:39Z</time>
      </trkpt>
      <trkpt lat="45.44868" lon="5.88156">
        <ele>815</ele>
        <time>2013-09-04T05:07:50Z</time>
      </trkpt>
      <trkpt lat="45.44775" lon="5.88063">
        <ele>812</ele>
        <time>2013-09-04T05:08:05Z</time>
      </trkpt>
      <trkpt lat="45.44726" lon="5.88028">
        <ele>810</ele>
        <time>2013-09-04T05:08:12Z</time>
      </trkpt>
      <trkpt lat="45.44681" lon="5.88018">
        <ele>810</ele>
        <time>2013-09-04T05:08:18Z</time>
      </trkpt>
      <trkpt lat="45.44596" lon="5.88023">
        <ele>806</ele>
        <time>2013-09-04T05:08:30Z</time>
      </trkpt>
      <trkpt lat="45.44532" lon="5.87993">
        <ele>804</ele>
        <time>2013-09-04T05:08:39Z</time>
      </trkpt>
      <trkpt lat="45.44495" lon="5.87987">
        <ele>803</ele>
        <time>2013-09-04T05:08:44Z</time>
      </trkpt>
      <trkpt lat="45.44454" lon="5.87991">
        <ele>802</ele>
        <time>2013-09-04T05:08:49Z</time>
      </trkpt>
      <trkpt lat="45.44435" lon="5.88008">
        <ele>802</ele>
        <time>2013-09-04T05:08:52Z</time>
      </trkpt>
      <trkpt lat="45.44435" lon="5.88008">
        <ele>802</ele>
        <time>2013-09-04T05:08:53Z</time>
      </trkpt>
      <trkpt lat="45.44409" lon="5.88045">
        <ele>801</ele>
        <time>2013-09-04T05:08:58Z</time>
      </trkpt>
      <trkpt lat="45.44388" lon="5.88053">
        <ele>800</ele>
        <time>2013-09-04T05:09:01Z</time>
      </trkpt>
      <trkpt lat="45.44334" lon="5.88028">
        <ele>799</ele>
        <time>2013-09-04T05:09:09Z</time>
      </trkpt>
      <trkpt lat="45.44274" lon="5.88013">
        <ele>795</ele>
        <time>2013-09-04T05:09:17Z</time>
      </trkpt>
      <trkpt lat="45.44176" lon="5.87967">
        <ele>790</ele>
        <time>2013-09-04T05:09:31Z</time>
      </trkpt>
      <trkpt lat="45.44105" lon="5.87951">
        <ele>788</ele>
        <time>2013-09-04T05:09:40Z</time>
      </trkpt>
      <trkpt lat="45.44084" lon="5.87941">
        <ele>788</ele>
        <time>2013-09-04T05:09:43Z</time>
      </trkpt>
      <trkpt lat="45.44036" lon="5.87896">
        <ele>779</ele>
        <time>2013-09-04T05:09:51Z</time>
      </trkpt>
      <trkpt lat="45.44" lon="5.8787">
        <ele>773</ele>
        <time>2013-09-04T05:09:56Z</time>
      </trkpt>
      <trkpt lat="45.43897" lon="5.87816">
        <ele>764</ele>
        <time>2013-09-04T05:10:11Z</time>
      </trkpt>
      <trkpt lat="45.43802" lon="5.87737">
        <ele>760</ele>
        <time>2013-09-04T05:10:26Z</time>
      </trkpt>
      <trkpt lat="45.43767" lon="5.87731">
        <ele>759</ele>
        <time>2013-09-04T05:10:30Z</time>
      </trkpt>
      <trkpt lat="45.43672" lon="5.87734">
        <ele>759</ele>
        <time>2013-09-04T05:10:43Z</time>
      </trkpt>
      <trkpt lat="45.43664" lon="5.87729">
        <ele>759</ele>
        <time>2013-09-04T05:10:44Z</time>
      </trkpt>
      <trkpt lat="45.4364" lon="5.87698">
        <ele>759</ele>
        <time>2013-09-04T05:10:48Z</time>
      </trkpt>
      <trkpt lat="45.43532" lon="5.87669">
        <ele>759</ele>
        <time>2013-09-04T05:11:03Z</time>
      </trkpt>
      <trkpt lat="45.43482" lon="5.87649">
        <ele>757</ele>
        <time>2013-09-04T05:11:10Z</time>
      </trkpt>
      <trkpt lat="45.43462" lon="5.87621">
        <ele>756</ele>
        <time>2013-09-04T05:11:14Z</time>
      </trkpt>
      <trkpt lat="45.43421" lon="5.87517">
        <ele>754</ele>
        <time>2013-09-04T05:11:25Z</time>
      </trkpt>
      <trkpt lat="45.43404" lon="5.87424">
        <ele>747</ele>
        <time>2013-09-04T05:11:34Z</time>
      </trkpt>
      <trkpt lat="45.43379" lon="5.87379">
        <ele>744</ele>
        <time>2013-09-04T05:11:39Z</time>
      </trkpt>
      <trkpt lat="45.43377" lon="5.87333">
        <ele>746</ele>
        <time>2013-09-04T05:11:50Z</time>
      </trkpt>
      <trkpt lat="45.43368" lon="5.87279">
        <ele>749</ele>
        <time>2013-09-04T05:12:02Z</time>
      </trkpt>
      <trkpt lat="45.43351" lon="5.87238">
        <ele>752</ele>
        <time>2013-09-04T05:12:13Z</time>
      </trkpt>
      <trkpt lat="45.43307" lon="5.87206">
        <ele>742</ele>
        <time>2013-09-04T05:12:19Z</time>
      </trkpt>
      <trkpt lat="45.4327" lon="5.87194">
        <ele>736</ele>
        <time>2013-09-04T05:12:24Z</time>
      </trkpt>
      <trkpt lat="45.43245" lon="5.87163">
        <ele>730</ele>
        <time>2013-09-04T05:12:29Z</time>
      </trkpt>
      <trkpt lat="45.43212" lon="5.87103">
        <ele>725</ele>
        <time>2013-09-04T05:12:36Z</time>
      </trkpt>
      <trkpt lat="45.43201" lon="5.8709">
        <ele>724</ele>
        <time>2013-09-04T05:12:38Z</time>
      </trkpt>
      <trkpt lat="45.43107" lon="5.87045">
        <ele>717</ele>
        <time>2013-09-04T05:12:51Z</time>
      </trkpt>
      <trkpt lat="45.43076" lon="5.87025">
        <ele>713</ele>
        <time>2013-09-04T05:12:56Z</time>
      </trkpt>
      <trkpt lat="45.43076" lon="5.87025">
        <ele>713</ele>
        <time>2013-09-04T05:12:57Z</time>
      </trkpt>
      <trkpt lat="45.4303" lon="5.86995">
        <ele>711</ele>
        <time>2013-09-04T05:13:03Z</time>
      </trkpt>
      <trkpt lat="45.43006" lon="5.86952">
        <ele>709</ele>
        <time>2013-09-04T05:13:08Z</time>
      </trkpt>
      <trkpt lat="45.42989" lon="5.86941">
        <ele>709</ele>
        <time>2013-09-04T05:13:11Z</time>
      </trkpt>
      <trkpt lat="45.42878" lon="5.86935">
        <ele>698</ele>
        <time>2013-09-04T05:13:26Z</time>
      </trkpt>
      <trkpt lat="45.42858" lon="5.86932">
        <ele>698</ele>
        <time>2013-09-04T05:13:28Z</time>
      </trkpt>
      <trkpt lat="45.42846" lon="5.86926">
        <ele>698</ele>
        <time>2013-09-04T05:13:30Z</time>
      </trkpt>
      <trkpt lat="45.42832" lon="5.86907">
        <ele>698</ele>
        <time>2013-09-04T05:13:33Z</time>
      </trkpt>
      <trkpt lat="45.42822" lon="5.86869">
        <ele>698</ele>
        <time>2013-09-04T05:13:37Z</time>
      </trkpt>
      <trkpt lat="45.42817" lon="5.8683">
        <ele>698</ele>
        <time>2013-09-04T05:13:40Z</time>
      </trkpt>
      <trkpt lat="45.42815" lon="5.86774">
        <ele>694</ele>
        <time>2013-09-04T05:13:46Z</time>
      </trkpt>
      <trkpt lat="45.42791" lon="5.8677">
        <ele>692</ele>
        <time>2013-09-04T05:13:49Z</time>
      </trkpt>
      <trkpt lat="45.42777" lon="5.8674">
        <ele>689</ele>
        <time>2013-09-04T05:13:52Z</time>
      </trkpt>
      <trkpt lat="45.42767" lon="5.86729">
        <ele>688</ele>
        <time>2013-09-04T05:13:54Z</time>
      </trkpt>
      <trkpt lat="45.427" lon="5.86701">
        <ele>682</ele>
        <time>2013-09-04T05:14:03Z</time>
      </trkpt>
      <trkpt lat="45.42614" lon="5.86674">
        <ele>680</ele>
        <time>2013-09-04T05:14:15Z</time>
      </trkpt>
      <trkpt lat="45.42561" lon="5.8668">
        <ele>680</ele>
        <time>2013-09-04T05:14:22Z</time>
      </trkpt>
      <trkpt lat="45.42539" lon="5.86672">
        <ele>679</ele>
        <time>2013-09-04T05:14:25Z</time>
      </trkpt>
      <trkpt lat="45.42527" lon="5.86657">
        <ele>679</ele>
        <time>2013-09-04T05:14:27Z</time>
      </trkpt>
      <trkpt lat="45.4252" lon="5.86637">
        <ele>679</ele>
        <time>2013-09-04T05:14:29Z</time>
      </trkpt>
      <trkpt lat="45.42517" lon="5.86613">
        <ele>678</ele>
        <time>2013-09-04T05:14:32Z</time>
      </trkpt>
      <trkpt lat="45.42518" lon="5.86538">
        <ele>678</ele>
        <time>2013-09-04T05:14:39Z</time>
      </trkpt>
      <trkpt lat="45.42505" lon="5.8647">
        <ele>673</ele>
        <time>2013-09-04T05:14:45Z</time>
      </trkpt>
      <trkpt lat="45.4249" lon="5.86445">
        <ele>670</ele>
        <time>2013-09-04T05:14:48Z</time>
      </trkpt>
      <trkpt lat="45.42438" lon="5.86403">
        <ele>665</ele>
        <time>2013-09-04T05:14:56Z</time>
      </trkpt>
      <trkpt lat="45.42425" lon="5.86377">
        <ele>665</ele>
        <time>2013-09-04T05:14:59Z</time>
      </trkpt>
      <trkpt lat="45.42404" lon="5.86311">
        <ele>665</ele>
        <time>2013-09-04T05:15:06Z</time>
      </trkpt>
      <trkpt lat="45.42383" lon="5.86275">
        <ele>665</ele>
        <time>2013-09-04T05:15:10Z</time>
      </trkpt>
      <trkpt lat="45.42308" lon="5.86188">
        <ele>663</ele>
        <time>2013-09-04T05:15:23Z</time>
      </trkpt>
      <trkpt lat="45.42287" lon="5.86171">
        <ele>661</ele>
        <time>2013-09-04T05:15:27Z</time>
      </trkpt>
      <trkpt lat="45.42157" lon="5.86135">
        <ele>656</ele>
        <time>2013-09-04T05:15:44Z</time>
      </trkpt>
      <trkpt lat="45.42135" lon="5.86121">
        <ele>653</ele>
        <time>2013-09-04T05:15:47Z</time>
      </trkpt>
      <trkpt lat="45.42121" lon="5.86102">
        <ele>652</ele>
        <time>2013-09-04T05:15:50Z</time>
      </trkpt>
      <trkpt lat="45.42114" lon="5.8607">
        <ele>650</ele>
        <time>2013-09-04T05:15:53Z</time>
      </trkpt>
      <trkpt lat="45.42123" lon="5.85921">
        <ele>641</ele>
        <time>2013-09-04T05:16:07Z</time>
      </trkpt>
      <trkpt lat="45.42119" lon="5.85889">
        <ele>641</ele>
        <time>2013-09-04T05:16:10Z</time>
      </trkpt>
      <trkpt lat="45.42111" lon="5.85871">
        <ele>641</ele>
        <time>2013-09-04T05:16:12Z</time>
      </trkpt>
      <trkpt lat="45.42091" lon="5.85851">
        <ele>641</ele>
        <time>2013-09-04T05:16:16Z</time>
      </trkpt>
      <trkpt lat="45.41994" lon="5.85795">
        <ele>641</ele>
        <time>2013-09-04T05:16:30Z</time>
      </trkpt>
      <trkpt lat="45.41965" lon="5.85774">
        <ele>641</ele>
        <time>2013-09-04T05:16:34Z</time>
      </trkpt>
      <trkpt lat="45.41942" lon="5.85742">
        <ele>641</ele>
        <time>2013-09-04T05:16:39Z</time>
      </trkpt>
      <trkpt lat="45.41897" lon="5.8566">
        <ele>642</ele>
        <time>2013-09-04T05:16:50Z</time>
      </trkpt>
      <trkpt lat="45.41855" lon="5.85608">
        <ele>640</ele>
        <time>2013-09-04T05:16:58Z</time>
      </trkpt>
      <trkpt lat="45.41795" lon="5.855">
        <ele>639</ele>
        <time>2013-09-04T05:17:11Z</time>
      </trkpt>
      <trkpt lat="45.41754" lon="5.85477">
        <ele>638</ele>
        <time>2013-09-04T05:17:17Z</time>
      </trkpt>
      <trkpt lat="45.41687" lon="5.85459">
        <ele>637</ele>
        <time>2013-09-04T05:17:26Z</time>
      </trkpt>
      <trkpt lat="45.4167" lon="5.8545">
        <ele>637</ele>
        <time>2013-09-04T05:17:28Z</time>
      </trkpt>
      <trkpt lat="45.41646" lon="5.85426">
        <ele>637</ele>
        <time>2013-09-04T05:17:33Z</time>
      </trkpt>
      <trkpt lat="45.4161" lon="5.85447">
        <ele>637</ele>
        <time>2013-09-04T05:17:38Z</time>
      </trkpt>
      <trkpt lat="45.41539" lon="5.85469">
        <ele>638</ele>
        <time>2013-09-04T05:17:49Z</time>
      </trkpt>
      <trkpt lat="45.41408" lon="5.85459">
        <ele>642</ele>
        <time>2013-09-04T05:18:16Z</time>
      </trkpt>
      <trkpt lat="45.41372" lon="5.85444">
        <ele>650</ele>
        <time>2013-09-04T05:18:41Z</time>
      </trkpt>
      <trkpt lat="45.41339" lon="5.85405">
        <ele>659</ele>
        <time>2013-09-04T05:19:10Z</time>
      </trkpt>
      <trkpt lat="45.41314" lon="5.85385">
        <ele>666</ele>
        <time>2013-09-04T05:19:29Z</time>
      </trkpt>
      <trkpt lat="45.41211" lon="5.85338">
        <ele>672</ele>
        <time>2013-09-04T05:19:57Z</time>
      </trkpt>
      <trkpt lat="45.41192" lon="5.85355">
        <ele>669</ele>
        <time>2013-09-04T05:20:00Z</time>
      </trkpt>
      <trkpt lat="45.41189" lon="5.85382">
        <ele>667</ele>
        <time>2013-09-04T05:20:03Z</time>
      </trkpt>
      <trkpt lat="45.41205" lon="5.85402">
        <ele>665</ele>
        <time>2013-09-04T05:20:06Z</time>
      </trkpt>
      <trkpt lat="45.41227" lon="5.85413">
        <ele>662</ele>
        <time>2013-09-04T05:20:09Z</time>
      </trkpt>
      <trkpt lat="45.41242" lon="5.85427">
        <ele>660</ele>
        <time>2013-09-04T05:20:11Z</time>
      </trkpt>
      <trkpt lat="45.41252" lon="5.85471">
        <ele>657</ele>
        <time>2013-09-04T05:20:16Z</time>
      </trkpt>
      <trkpt lat="45.41266" lon="5.85486">
        <ele>658</ele>
        <time>2013-09-04T05:20:21Z</time>
      </trkpt>
      <trkpt lat="45.41272" lon="5.85503">
        <ele>658</ele>
        <time>2013-09-04T05:20:24Z</time>
      </trkpt>
      <trkpt lat="45.41266" lon="5.85536">
        <ele>660</ele>
        <time>2013-09-04T05:20:31Z</time>
      </trkpt>
      <trkpt lat="45.41129" lon="5.85632">
        <ele>670</ele>
        <time>2013-09-04T05:21:15Z</time>
      </trkpt>
      <trkpt lat="45.41073" lon="5.85698">
        <ele>677</ele>
        <time>2013-09-04T05:21:42Z</time>
      </trkpt>
      <trkpt lat="45.41059" lon="5.85705">
        <ele>678</ele>
        <time>2013-09-04T05:21:47Z</time>
      </trkpt>
      <trkpt lat="45.41027" lon="5.85708">
        <ele>682</ele>
        <time>2013-09-04T05:21:59Z</time>
      </trkpt>
      <trkpt lat="45.41019" lon="5.857">
        <ele>682</ele>
        <time>2013-09-04T05:22:03Z</time>
      </trkpt>
      <trkpt lat="45.41016" lon="5.85683">
        <ele>683</ele>
        <time>2013-09-04T05:22:07Z</time>
      </trkpt>
      <trkpt lat="45.41042" lon="5.85657">
        <ele>686</ele>
        <time>2013-09-04T05:22:17Z</time>
      </trkpt>
      <trkpt lat="45.41053" lon="5.85638">
        <ele>687</ele>
        <time>2013-09-04T05:22:23Z</time>
      </trkpt>
      <trkpt lat="45.41063" lon="5.85614">
        <ele>689</ele>
        <time>2013-09-04T05:22:30Z</time>
      </trkpt>
      <trkpt lat="45.41063" lon="5.85599">
        <ele>690</ele>
        <time>2013-09-04T05:22:33Z</time>
      </trkpt>
      <trkpt lat="45.41059" lon="5.85593">
        <ele>690</ele>
        <time>2013-09-04T05:22:35Z</time>
      </trkpt>
      <trkpt lat="45.41051" lon="5.8559">
        <ele>691</ele>
        <time>2013-09-04T05:22:38Z</time>
      </trkpt>
      <trkpt lat="45.4103" lon="5.85599">
        <ele>693</ele>
        <time>2013-09-04T05:22:45Z</time>
      </trkpt>
      <trkpt lat="45.41016" lon="5.85596">
        <ele>694</ele>
        <time>2013-09-04T05:22:50Z</time>
      </trkpt>
      <trkpt lat="45.40995" lon="5.85547">
        <ele>698</ele>
        <time>2013-09-04T05:23:03Z</time>
      </trkpt>
      <trkpt lat="45.40977" lon="5.85526">
        <ele>700</ele>
        <time>2013-09-04T05:23:12Z</time>
      </trkpt>
      <trkpt lat="45.40891" lon="5.85456">
        <ele>709</ele>
        <time>2013-09-04T05:23:46Z</time>
      </trkpt>
      <trkpt lat="45.40884" lon="5.85454">
        <ele>709</ele>
        <time>2013-09-04T05:23:49Z</time>
      </trkpt>
      <trkpt lat="45.40876" lon="5.85461">
        <ele>710</ele>
        <time>2013-09-04T05:23:52Z</time>
      </trkpt>
      <trkpt lat="45.40875" lon="5.85476">
        <ele>711</ele>
        <time>2013-09-04T05:23:56Z</time>
      </trkpt>
      <trkpt lat="45.40904" lon="5.85538">
        <ele>716</ele>
        <time>2013-09-04T05:24:15Z</time>
      </trkpt>
      <trkpt lat="45.40919" lon="5.85588">
        <ele>720</ele>
        <time>2013-09-04T05:24:28Z</time>
      </trkpt>
      <trkpt lat="45.4092" lon="5.85607">
        <ele>721</ele>
        <time>2013-09-04T05:24:35Z</time>
      </trkpt>
      <trkpt lat="45.40909" lon="5.85618">
        <ele>723</ele>
        <time>2013-09-04T05:24:41Z</time>
      </trkpt>
      <trkpt lat="45.40878" lon="5.85623">
        <ele>728</ele>
        <time>2013-09-04T05:24:56Z</time>
      </trkpt>
      <trkpt lat="45.40851" lon="5.85636">
        <ele>732</ele>
        <time>2013-09-04T05:25:10Z</time>
      </trkpt>
      <trkpt lat="45.40807" lon="5.85675">
        <ele>740</ele>
        <time>2013-09-04T05:25:35Z</time>
      </trkpt>
      <trkpt lat="45.40758" lon="5.85709">
        <ele>745</ele>
        <time>2013-09-04T05:25:54Z</time>
      </trkpt>
      <trkpt lat="45.40758" lon="5.85709">
        <ele>745</ele>
        <time>2013-09-04T05:25:55Z</time>
      </trkpt>
      <trkpt lat="45.40712" lon="5.8574">
        <ele>746</ele>
        <time>2013-09-04T05:26:06Z</time>
      </trkpt>
      <trkpt lat="45.40692" lon="5.85741">
        <ele>747</ele>
        <time>2013-09-04T05:26:11Z</time>
      </trkpt>
      <trkpt lat="45.40669" lon="5.85719">
        <ele>748</ele>
        <time>2013-09-04T05:26:17Z</time>
      </trkpt>
      <trkpt lat="45.40619" lon="5.85649">
        <ele>751</ele>
        <time>2013-09-04T05:26:32Z</time>
      </trkpt>
      <trkpt lat="45.40602" lon="5.85637">
        <ele>752</ele>
        <time>2013-09-04T05:26:39Z</time>
      </trkpt>
      <trkpt lat="45.40583" lon="5.85632">
        <ele>754</ele>
        <time>2013-09-04T05:26:45Z</time>
      </trkpt>
      <trkpt lat="45.40422" lon="5.85647">
        <ele>769</ele>
        <time>2013-09-04T05:27:42Z</time>
      </trkpt>
      <trkpt lat="45.40377" lon="5.85673">
        <ele>771</ele>
        <time>2013-09-04T05:27:55Z</time>
      </trkpt>
      <trkpt lat="45.40328" lon="5.85668">
        <ele>775</ele>
        <time>2013-09-04T05:28:09Z</time>
      </trkpt>
      <trkpt lat="45.40317" lon="5.85674">
        <ele>776</ele>
        <time>2013-09-04T05:28:14Z</time>
      </trkpt>
      <trkpt lat="45.40308" lon="5.85696">
        <ele>778</ele>
        <time>2013-09-04T05:28:22Z</time>
      </trkpt>
      <trkpt lat="45.40283" lon="5.85791">
        <ele>787</ele>
        <time>2013-09-04T05:28:52Z</time>
      </trkpt>
      <trkpt lat="45.40266" lon="5.85807">
        <ele>788</ele>
        <time>2013-09-04T05:28:59Z</time>
      </trkpt>
      <trkpt lat="45.40243" lon="5.85808">
        <ele>790</ele>
        <time>2013-09-04T05:29:06Z</time>
      </trkpt>
      <trkpt lat="45.40147" lon="5.85743">
        <ele>800</ele>
        <time>2013-09-04T05:29:43Z</time>
      </trkpt>
      <trkpt lat="45.40064" lon="5.85705">
        <ele>802</ele>
        <time>2013-09-04T05:30:00Z</time>
      </trkpt>
      <trkpt lat="45.39975" lon="5.85706">
        <ele>805</ele>
        <time>2013-09-04T05:30:18Z</time>
      </trkpt>
      <trkpt lat="45.3986" lon="5.85658">
        <ele>804</ele>
        <time>2013-09-04T05:30:34Z</time>
      </trkpt>
      <trkpt lat="45.39806" lon="5.85645">
        <ele>812</ele>
        <time>2013-09-04T05:31:02Z</time>
      </trkpt>
      <trkpt lat="45.39727" lon="5.85655">
        <ele>825</ele>
        <time>2013-09-04T05:31:43Z</time>
      </trkpt>
      <trkpt lat="45.39707" lon="5.85652">
        <ele>824</ele>
        <time>2013-09-04T05:31:45Z</time>
      </trkpt>
      <trkpt lat="45.39685" lon="5.85637">
        <ele>824</ele>
        <time>2013-09-04T05:31:49Z</time>
      </trkpt>
      <trkpt lat="45.39657" lon="5.85596">
        <ele>823</ele>
        <time>2013-09-04T05:31:54Z</time>
      </trkpt>
      <trkpt lat="45.39632" lon="5.85574">
        <ele>823</ele>
        <time>2013-09-04T05:31:58Z</time>
      </trkpt>
      <trkpt lat="45.39485" lon="5.85528">
        <ele>833</ele>
        <time>2013-09-04T05:32:42Z</time>
      </trkpt>
      <trkpt lat="45.39421" lon="5.8553">
        <ele>839</ele>
        <time>2013-09-04T05:33:06Z</time>
      </trkpt>
      <trkpt lat="45.39402" lon="5.85519">
        <ele>841</ele>
        <time>2013-09-04T05:33:14Z</time>
      </trkpt>
      <trkpt lat="45.39374" lon="5.85488">
        <ele>845</ele>
        <time>2013-09-04T05:33:27Z</time>
      </trkpt>
      <trkpt lat="45.3932" lon="5.85446">
        <ele>851</ele>
        <time>2013-09-04T05:33:50Z</time>
      </trkpt>
      <trkpt lat="45.39175" lon="5.85384">
        <ele>867</ele>
        <time>2013-09-04T05:34:48Z</time>
      </trkpt>
      <trkpt lat="45.39065" lon="5.85362">
        <ele>870</ele>
        <time>2013-09-04T05:35:10Z</time>
      </trkpt>
      <trkpt lat="45.39023" lon="5.85367">
        <ele>872</ele>
        <time>2013-09-04T05:35:20Z</time>
      </trkpt>
      <trkpt lat="45.39023" lon="5.85367">
        <ele>872</ele>
        <time>2013-09-04T05:35:21Z</time>
      </trkpt>
      <trkpt lat="45.38986" lon="5.85371">
        <ele>871</ele>
        <time>2013-09-04T05:35:26Z</time>
      </trkpt>
      <trkpt lat="45.38968" lon="5.85366">
        <ele>871</ele>
        <time>2013-09-04T05:35:29Z</time>
      </trkpt>
      <trkpt lat="45.38914" lon="5.85331">
        <ele>870</ele>
        <time>2013-09-04T05:35:37Z</time>
      </trkpt>
      <trkpt lat="45.38826" lon="5.85287">
        <ele>876</ele>
        <time>2013-09-04T05:36:04Z</time>
      </trkpt>
      <trkpt lat="45.38594" lon="5.85263">
        <ele>892</ele>
        <time>2013-09-04T05:37:13Z</time>
      </trkpt>
      <trkpt lat="45.38566" lon="5.85266">
        <ele>893</ele>
        <time>2013-09-04T05:37:21Z</time>
      </trkpt>
      <trkpt lat="45.38471" lon="5.85302">
        <ele>899</ele>
        <time>2013-09-04T05:37:47Z</time>
      </trkpt>
      <trkpt lat="45.38446" lon="5.85322">
        <ele>901</ele>
        <time>2013-09-04T05:37:56Z</time>
      </trkpt>
      <trkpt lat="45.38423" lon="5.85351">
        <ele>903</ele>
        <time>2013-09-04T05:38:06Z</time>
      </trkpt>
      <trkpt lat="45.38384" lon="5.85368">
        <ele>907</ele>
        <time>2013-09-04T05:38:19Z</time>
      </trkpt>
      <trkpt lat="45.38334" lon="5.85408">
        <ele>907</ele>
        <time>2013-09-04T05:38:28Z</time>
      </trkpt>
      <trkpt lat="45.38228" lon="5.8547">
        <ele>908</ele>
        <time>2013-09-04T05:38:45Z</time>
      </trkpt>
      <trkpt lat="45.38173" lon="5.85509">
        <ele>903</ele>
        <time>2013-09-04T05:38:53Z</time>
      </trkpt>
      <trkpt lat="45.38109" lon="5.85509">
        <ele>898</ele>
        <time>2013-09-04T05:39:02Z</time>
      </trkpt>
      <trkpt lat="45.3809" lon="5.85519">
        <ele>898</ele>
        <time>2013-09-04T05:39:05Z</time>
      </trkpt>
      <trkpt lat="45.38061" lon="5.85554">
        <ele>898</ele>
        <time>2013-09-04T05:39:12Z</time>
      </trkpt>
      <trkpt lat="45.3805" lon="5.85561">
        <ele>899</ele>
        <time>2013-09-04T05:39:14Z</time>
      </trkpt>
      <trkpt lat="45.38028" lon="5.85563">
        <ele>899</ele>
        <time>2013-09-04T05:39:17Z</time>
      </trkpt>
      <trkpt lat="45.37993" lon="5.8555">
        <ele>900</ele>
        <time>2013-09-04T05:39:24Z</time>
      </trkpt>
      <trkpt lat="45.37954" lon="5.85555">
        <ele>900</ele>
        <time>2013-09-04T05:39:31Z</time>
      </trkpt>
      <trkpt lat="45.3793" lon="5.85564">
        <ele>901</ele>
        <time>2013-09-04T05:39:35Z</time>
      </trkpt>
      <trkpt lat="45.37905" lon="5.85592">
        <ele>902</ele>
        <time>2013-09-04T05:39:41Z</time>
      </trkpt>
      <trkpt lat="45.3788" lon="5.85595">
        <ele>903</ele>
        <time>2013-09-04T05:39:49Z</time>
      </trkpt>
      <trkpt lat="45.3787" lon="5.85589">
        <ele>904</ele>
        <time>2013-09-04T05:39:52Z</time>
      </trkpt>
      <trkpt lat="45.37861" lon="5.85575">
        <ele>905</ele>
        <time>2013-09-04T05:39:56Z</time>
      </trkpt>
      <trkpt lat="45.37862" lon="5.85555">
        <ele>906</ele>
        <time>2013-09-04T05:40:01Z</time>
      </trkpt>
      <trkpt lat="45.37877" lon="5.85513">
        <ele>909</ele>
        <time>2013-09-04T05:40:11Z</time>
      </trkpt>
      <trkpt lat="45.37905" lon="5.85408">
        <ele>915</ele>
        <time>2013-09-04T05:40:36Z</time>
      </trkpt>
      <trkpt lat="45.3792" lon="5.85386">
        <ele>913</ele>
        <time>2013-09-04T05:40:39Z</time>
      </trkpt>
      <trkpt lat="45.37931" lon="5.85378">
        <ele>912</ele>
        <time>2013-09-04T05:40:40Z</time>
      </trkpt>
      <trkpt lat="45.37963" lon="5.85365">
        <ele>909</ele>
        <time>2013-09-04T05:40:45Z</time>
      </trkpt>
      <trkpt lat="45.37997" lon="5.85343">
        <ele>907</ele>
        <time>2013-09-04T05:40:50Z</time>
      </trkpt>
      <trkpt lat="45.38068" lon="5.85222">
        <ele>915</ele>
        <time>2013-09-04T05:41:24Z</time>
      </trkpt>
      <trkpt lat="45.38088" lon="5.85196">
        <ele>916</ele>
        <time>2013-09-04T05:41:30Z</time>
      </trkpt>
      <trkpt lat="45.38097" lon="5.85171">
        <ele>916</ele>
        <time>2013-09-04T05:41:35Z</time>
      </trkpt>
      <trkpt lat="45.38098" lon="5.85158">
        <ele>917</ele>
        <time>2013-09-04T05:41:37Z</time>
      </trkpt>
      <trkpt lat="45.38058" lon="5.85046">
        <ele>921</ele>
        <time>2013-09-04T05:41:57Z</time>
      </trkpt>
      <trkpt lat="45.3804" lon="5.85021">
        <ele>922</ele>
        <time>2013-09-04T05:42:04Z</time>
      </trkpt>
      <trkpt lat="45.37994" lon="5.84976">
        <ele>924</ele>
        <time>2013-09-04T05:42:18Z</time>
      </trkpt>
      <trkpt lat="45.3793" lon="5.84962">
        <ele>928</ele>
        <time>2013-09-04T05:42:34Z</time>
      </trkpt>
      <trkpt lat="45.37894" lon="5.84938">
        <ele>930</ele>
        <time>2013-09-04T05:42:45Z</time>
      </trkpt>
      <trkpt lat="45.37854" lon="5.84897">
        <ele>933</ele>
        <time>2013-09-04T05:42:59Z</time>
      </trkpt>
      <trkpt lat="45.37795" lon="5.84817">
        <ele>939</ele>
        <time>2013-09-04T05:43:23Z</time>
      </trkpt>
      <trkpt lat="45.3773" lon="5.8477">
        <ele>946</ele>
        <time>2013-09-04T05:43:49Z</time>
      </trkpt>
      <trkpt lat="45.37729" lon="5.8477">
        <ele>946</ele>
        <time>2013-09-04T05:43:50Z</time>
      </trkpt>
      <trkpt lat="45.37585" lon="5.84664">
        <ele>964</ele>
        <time>2013-09-04T05:44:54Z</time>
      </trkpt>
      <trkpt lat="45.37553" lon="5.84635">
        <ele>967</ele>
        <time>2013-09-04T05:45:07Z</time>
      </trkpt>
      <trkpt lat="45.37512" lon="5.84587">
        <ele>972</ele>
        <time>2013-09-04T05:45:26Z</time>
      </trkpt>
      <trkpt lat="45.3743" lon="5.84464">
        <ele>976</ele>
        <time>2013-09-04T05:45:51Z</time>
      </trkpt>
      <trkpt lat="45.3738" lon="5.84399">
        <ele>981</ele>
        <time>2013-09-04T05:46:12Z</time>
      </trkpt>
      <trkpt lat="45.37347" lon="5.84367">
        <ele>984</ele>
        <time>2013-09-04T05:46:25Z</time>
      </trkpt>
      <trkpt lat="45.37271" lon="5.84306">
        <ele>997</ele>
        <time>2013-09-04T05:47:10Z</time>
      </trkpt>
      <trkpt lat="45.37204" lon="5.84235">
        <ele>1011</ele>
        <time>2013-09-04T05:47:52Z</time>
      </trkpt>
      <trkpt lat="45.37098" lon="5.84158">
        <ele>1033</ele>
        <time>2013-09-04T05:49:01Z</time>
      </trkpt>
      <trkpt lat="45.37053" lon="5.84111">
        <ele>1037</ele>
        <time>2013-09-04T05:49:20Z</time>
      </trkpt>
      <trkpt lat="45.3703" lon="5.84062">
        <ele>1041</ele>
        <time>2013-09-04T05:49:33Z</time>
      </trkpt>
      <trkpt lat="45.37023" lon="5.8401">
        <ele>1043</ele>
        <time>2013-09-04T05:49:43Z</time>
      </trkpt>
      <trkpt lat="45.37003" lon="5.83954">
        <ele>1045</ele>
        <time>2013-09-04T05:49:56Z</time>
      </trkpt>
      <trkpt lat="45.37005" lon="5.83924">
        <ele>1047</ele>
        <time>2013-09-04T05:50:01Z</time>
      </trkpt>
      <trkpt lat="45.37017" lon="5.83902">
        <ele>1048</ele>
        <time>2013-09-04T05:50:07Z</time>
      </trkpt>
      <trkpt lat="45.37039" lon="5.8389">
        <ele>1050</ele>
        <time>2013-09-04T05:50:15Z</time>
      </trkpt>
      <trkpt lat="45.37093" lon="5.83897">
        <ele>1054</ele>
        <time>2013-09-04T05:50:31Z</time>
      </trkpt>
      <trkpt lat="45.37118" lon="5.83889">
        <ele>1056</ele>
        <time>2013-09-04T05:50:41Z</time>
      </trkpt>
      <trkpt lat="45.37135" lon="5.83874">
        <ele>1058</ele>
        <time>2013-09-04T05:50:48Z</time>
      </trkpt>
      <trkpt lat="45.37146" lon="5.83837">
        <ele>1061</ele>
        <time>2013-09-04T05:50:59Z</time>
      </trkpt>
      <trkpt lat="45.37124" lon="5.8383">
        <ele>1063</ele>
        <time>2013-09-04T05:51:08Z</time>
      </trkpt>
      <trkpt lat="45.37097" lon="5.83848">
        <ele>1066</ele>
        <time>2013-09-04T05:51:19Z</time>
      </trkpt>
      <trkpt lat="45.37087" lon="5.8385">
        <ele>1067</ele>
        <time>2013-09-04T05:51:23Z</time>
      </trkpt>
      <trkpt lat="45.37077" lon="5.83845">
        <ele>1068</ele>
        <time>2013-09-04T05:51:27Z</time>
      </trkpt>
      <trkpt lat="45.3704" lon="5.83778">
        <ele>1075</ele>
        <time>2013-09-04T05:51:49Z</time>
      </trkpt>
      <trkpt lat="45.36975" lon="5.83693">
        <ele>1090</ele>
        <time>2013-09-04T05:52:37Z</time>
      </trkpt>
      <trkpt lat="45.36955" lon="5.83679">
        <ele>1094</ele>
        <time>2013-09-04T05:52:50Z</time>
      </trkpt>
      <trkpt lat="45.36857" lon="5.83643">
        <ele>1096</ele>
        <time>2013-09-04T05:53:08Z</time>
      </trkpt>
      <trkpt lat="45.36819" lon="5.8361">
        <ele>1104</ele>
        <time>2013-09-04T05:53:34Z</time>
      </trkpt>
      <trkpt lat="45.36805" lon="5.83588">
        <ele>1108</ele>
        <time>2013-09-04T05:53:47Z</time>
      </trkpt>
      <trkpt lat="45.36786" lon="5.83522">
        <ele>1118</ele>
        <time>2013-09-04T05:54:16Z</time>
      </trkpt>
      <trkpt lat="45.36768" lon="5.83497">
        <ele>1122</ele>
        <time>2013-09-04T05:54:30Z</time>
      </trkpt>
      <trkpt lat="45.36746" lon="5.83479">
        <ele>1126</ele>
        <time>2013-09-04T05:54:44Z</time>
      </trkpt>
      <trkpt lat="45.36701" lon="5.83457">
        <ele>1135</ele>
        <time>2013-09-04T05:55:10Z</time>
      </trkpt>
      <trkpt lat="45.36604" lon="5.83441">
        <ele>1138</ele>
        <time>2013-09-04T05:55:30Z</time>
      </trkpt>
      <trkpt lat="45.36566" lon="5.83428">
        <ele>1138</ele>
        <time>2013-09-04T05:55:36Z</time>
      </trkpt>
      <trkpt lat="45.36522" lon="5.83394">
        <ele>1138</ele>
        <time>2013-09-04T05:55:42Z</time>
      </trkpt>
      <trkpt lat="45.36439" lon="5.83321">
        <ele>1138</ele>
        <time>2013-09-04T05:55:55Z</time>
      </trkpt>
      <trkpt lat="45.36438" lon="5.83321">
        <ele>1137</ele>
        <time>2013-09-04T05:55:55Z</time>
      </trkpt>
      <trkpt lat="45.36387" lon="5.83254">
        <ele>1133</ele>
        <time>2013-09-04T05:56:05Z</time>
      </trkpt>
      <trkpt lat="45.36364" lon="5.83195">
        <ele>1131</ele>
        <time>2013-09-04T05:56:11Z</time>
      </trkpt>
      <trkpt lat="45.36353" lon="5.83177">
        <ele>1129</ele>
        <time>2013-09-04T05:56:13Z</time>
      </trkpt>
      <trkpt lat="45.3622" lon="5.83031">
        <ele>1113</ele>
        <time>2013-09-04T05:56:36Z</time>
      </trkpt>
      <trkpt lat="45.3619" lon="5.83007">
        <ele>1105</ele>
        <time>2013-09-04T05:56:40Z</time>
      </trkpt>
      <trkpt lat="45.36111" lon="5.82989">
        <ele>1089</ele>
        <time>2013-09-04T05:56:51Z</time>
      </trkpt>
      <trkpt lat="45.3603" lon="5.82987">
        <ele>1081</ele>
        <time>2013-09-04T05:57:02Z</time>
      </trkpt>
      <trkpt lat="45.35984" lon="5.82977">
        <ele>1077</ele>
        <time>2013-09-04T05:57:08Z</time>
      </trkpt>
      <trkpt lat="45.35919" lon="5.82986">
        <ele>1075</ele>
        <time>2013-09-04T05:57:17Z</time>
      </trkpt>
      <trkpt lat="45.35883" lon="5.83005">
        <ele>1075</ele>
        <time>2013-09-04T05:57:22Z</time>
      </trkpt>
      <trkpt lat="45.35868" lon="5.83005">
        <ele>1073</ele>
        <time>2013-09-04T05:57:24Z</time>
      </trkpt>
      <trkpt lat="45.35857" lon="5.82997">
        <ele>1073</ele>
        <time>2013-09-04T05:57:25Z</time>
      </trkpt>
      <trkpt lat="45.35813" lon="5.82938">
        <ele>1068</ele>
        <time>2013-09-04T05:57:34Z</time>
      </trkpt>
      <trkpt lat="45.358" lon="5.82908">
        <ele>1067</ele>
        <time>2013-09-04T05:57:37Z</time>
      </trkpt>
      <trkpt lat="45.35789" lon="5.82864">
        <ele>1061</ele>
        <time>2013-09-04T05:57:41Z</time>
      </trkpt>
      <trkpt lat="45.35783" lon="5.82803">
        <ele>1054</ele>
        <time>2013-09-04T05:57:47Z</time>
      </trkpt>
      <trkpt lat="45.35773" lon="5.82754">
        <ele>1049</ele>
        <time>2013-09-04T05:57:52Z</time>
      </trkpt>
      <trkpt lat="45.35741" lon="5.82686">
        <ele>1042</ele>
        <time>2013-09-04T05:57:59Z</time>
      </trkpt>
      <trkpt lat="45.35708" lon="5.82644">
        <ele>1038</ele>
        <time>2013-09-04T05:58:05Z</time>
      </trkpt>
      <trkpt lat="45.35699" lon="5.82624">
        <ele>1035</ele>
        <time>2013-09-04T05:58:08Z</time>
      </trkpt>
      <trkpt lat="45.357" lon="5.82574">
        <ele>1031</ele>
        <time>2013-09-04T05:58:12Z</time>
      </trkpt>
      <trkpt lat="45.35696" lon="5.82558">
        <ele>1029</ele>
        <time>2013-09-04T05:58:14Z</time>
      </trkpt>
      <trkpt lat="45.35687" lon="5.82552">
        <ele>1028</ele>
        <time>2013-09-04T05:58:15Z</time>
      </trkpt>
      <trkpt lat="45.35658" lon="5.8255">
        <ele>1024</ele>
        <time>2013-09-04T05:58:19Z</time>
      </trkpt>
      <trkpt lat="45.35639" lon="5.82541">
        <ele>1022</ele>
        <time>2013-09-04T05:58:22Z</time>
      </trkpt>
      <trkpt lat="45.35539" lon="5.82471">
        <ele>1009</ele>
        <time>2013-09-04T05:58:37Z</time>
      </trkpt>
      <trkpt lat="45.35498" lon="5.82432">
        <ele>1002</ele>
        <time>2013-09-04T05:58:43Z</time>
      </trkpt>
      <trkpt lat="45.35468" lon="5.82392">
        <ele>997</ele>
        <time>2013-09-04T05:58:49Z</time>
      </trkpt>
      <trkpt lat="45.35422" lon="5.82354">
        <ele>991</ele>
        <time>2013-09-04T05:58:56Z</time>
      </trkpt>
      <trkpt lat="45.3538" lon="5.82285">
        <ele>984</ele>
        <time>2013-09-04T05:59:04Z</time>
      </trkpt>
      <trkpt lat="45.35367" lon="5.8227">
        <ele>983</ele>
        <time>2013-09-04T05:59:07Z</time>
      </trkpt>
      <trkpt lat="45.35347" lon="5.82259">
        <ele>982</ele>
        <time>2013-09-04T05:59:10Z</time>
      </trkpt>
      <trkpt lat="45.35289" lon="5.8224">
        <ele>979</ele>
        <time>2013-09-04T05:59:17Z</time>
      </trkpt>
      <trkpt lat="45.35255" lon="5.822">
        <ele>976</ele>
        <time>2013-09-04T05:59:23Z</time>
      </trkpt>
      <trkpt lat="45.35208" lon="5.82169">
        <ele>974</ele>
        <time>2013-09-04T05:59:30Z</time>
      </trkpt>
      <trkpt lat="45.35138" lon="5.82065">
        <ele>958</ele>
        <time>2013-09-04T05:59:44Z</time>
      </trkpt>
      <trkpt lat="45.35106" lon="5.81994">
        <ele>949</ele>
        <time>2013-09-04T05:59:52Z</time>
      </trkpt>
      <trkpt lat="45.35102" lon="5.81976">
        <ele>947</ele>
        <time>2013-09-04T05:59:54Z</time>
      </trkpt>
      <trkpt lat="45.35082" lon="5.8195">
        <ele>944</ele>
        <time>2013-09-04T05:59:57Z</time>
      </trkpt>
      <trkpt lat="45.35025" lon="5.81951">
        <ele>941</ele>
        <time>2013-09-04T06:00:05Z</time>
      </trkpt>
      <trkpt lat="45.35007" lon="5.81946">
        <ele>941</ele>
        <time>2013-09-04T06:00:07Z</time>
      </trkpt>
      <trkpt lat="45.34901" lon="5.81903">
        <ele>937</ele>
        <time>2013-09-04T06:00:22Z</time>
      </trkpt>
      <trkpt lat="45.34862" lon="5.81874">
        <ele>931</ele>
        <time>2013-09-04T06:00:28Z</time>
      </trkpt>
      <trkpt lat="45.34807" lon="5.81771">
        <ele>919</ele>
        <time>2013-09-04T06:00:40Z</time>
      </trkpt>
      <trkpt lat="45.3477" lon="5.81716">
        <ele>916</ele>
        <time>2013-09-04T06:00:47Z</time>
      </trkpt>
      <trkpt lat="45.34759" lon="5.81707">
        <ele>916</ele>
        <time>2013-09-04T06:00:49Z</time>
      </trkpt>
      <trkpt lat="45.34692" lon="5.81687">
        <ele>913</ele>
        <time>2013-09-04T06:00:58Z</time>
      </trkpt>
      <trkpt lat="45.34658" lon="5.81681">
        <ele>913</ele>
        <time>2013-09-04T06:01:03Z</time>
      </trkpt>
      <trkpt lat="45.34624" lon="5.81684">
        <ele>913</ele>
        <time>2013-09-04T06:01:07Z</time>
      </trkpt>
      <trkpt lat="45.34624" lon="5.81685">
        <ele>912</ele>
        <time>2013-09-04T06:01:07Z</time>
      </trkpt>
      <trkpt lat="45.34578" lon="5.81691">
        <ele>908</ele>
        <time>2013-09-04T06:01:13Z</time>
      </trkpt>
      <trkpt lat="45.34587" lon="5.8165">
        <ele>905</ele>
        <time>2013-09-04T06:01:17Z</time>
      </trkpt>
      <trkpt lat="45.34581" lon="5.81626">
        <ele>903</ele>
        <time>2013-09-04T06:01:20Z</time>
      </trkpt>
      <trkpt lat="45.34496" lon="5.81615">
        <ele>895</ele>
        <time>2013-09-04T06:01:31Z</time>
      </trkpt>
      <trkpt lat="45.34443" lon="5.81598">
        <ele>893</ele>
        <time>2013-09-04T06:01:38Z</time>
      </trkpt>
      <trkpt lat="45.34333" lon="5.81484">
        <ele>891</ele>
        <time>2013-09-04T06:01:57Z</time>
      </trkpt>
      <trkpt lat="45.34333" lon="5.81476">
        <ele>890</ele>
        <time>2013-09-04T06:01:57Z</time>
      </trkpt>
      <trkpt lat="45.34325" lon="5.8148">
        <ele>889</ele>
        <time>2013-09-04T06:01:58Z</time>
      </trkpt>
      <trkpt lat="45.34232" lon="5.814">
        <ele>879</ele>
        <time>2013-09-04T06:02:13Z</time>
      </trkpt>
      <trkpt lat="45.34209" lon="5.81411">
        <ele>874</ele>
        <time>2013-09-04T06:02:16Z</time>
      </trkpt>
      <trkpt lat="45.34184" lon="5.81359">
        <ele>866</ele>
        <time>2013-09-04T06:02:22Z</time>
      </trkpt>
      <trkpt lat="45.34125" lon="5.81302">
        <ele>853</ele>
        <time>2013-09-04T06:02:32Z</time>
      </trkpt>
      <trkpt lat="45.3412" lon="5.81282">
        <ele>852</ele>
        <time>2013-09-04T06:02:34Z</time>
      </trkpt>
      <trkpt lat="45.34123" lon="5.81204">
        <ele>849</ele>
        <time>2013-09-04T06:02:41Z</time>
      </trkpt>
      <trkpt lat="45.34116" lon="5.81189">
        <ele>848</ele>
        <time>2013-09-04T06:02:43Z</time>
      </trkpt>
      <trkpt lat="45.34095" lon="5.81185">
        <ele>847</ele>
        <time>2013-09-04T06:02:46Z</time>
      </trkpt>
      <trkpt lat="45.34087" lon="5.81201">
        <ele>846</ele>
        <time>2013-09-04T06:02:47Z</time>
      </trkpt>
      <trkpt lat="45.34083" lon="5.81218">
        <ele>845</ele>
        <time>2013-09-04T06:02:49Z</time>
      </trkpt>
      <trkpt lat="45.34082" lon="5.81261">
        <ele>843</ele>
        <time>2013-09-04T06:02:53Z</time>
      </trkpt>
      <trkpt lat="45.341" lon="5.81378">
        <ele>839</ele>
        <time>2013-09-04T06:03:04Z</time>
      </trkpt>
      <trkpt lat="45.34092" lon="5.81402">
        <ele>838</ele>
        <time>2013-09-04T06:03:07Z</time>
      </trkpt>
      <trkpt lat="45.34086" lon="5.81408">
        <ele>837</ele>
        <time>2013-09-04T06:03:08Z</time>
      </trkpt>
      <trkpt lat="45.34073" lon="5.8141">
        <ele>837</ele>
        <time>2013-09-04T06:03:10Z</time>
      </trkpt>
      <trkpt lat="45.34065" lon="5.81404">
        <ele>836</ele>
        <time>2013-09-04T06:03:11Z</time>
      </trkpt>
      <trkpt lat="45.34061" lon="5.81392">
        <ele>835</ele>
        <time>2013-09-04T06:03:12Z</time>
      </trkpt>
      <trkpt lat="45.34029" lon="5.81189">
        <ele>823</ele>
        <time>2013-09-04T06:03:32Z</time>
      </trkpt>
      <trkpt lat="45.34019" lon="5.81097">
        <ele>815</ele>
        <time>2013-09-04T06:03:40Z</time>
      </trkpt>
      <trkpt lat="45.34009" lon="5.81067">
        <ele>812</ele>
        <time>2013-09-04T06:03:43Z</time>
      </trkpt>
      <trkpt lat="45.33998" lon="5.8105">
        <ele>811</ele>
        <time>2013-09-04T06:03:46Z</time>
      </trkpt>
      <trkpt lat="45.33992" lon="5.81026">
        <ele>809</ele>
        <time>2013-09-04T06:03:48Z</time>
      </trkpt>
      <trkpt lat="45.33992" lon="5.81025">
        <ele>808</ele>
        <time>2013-09-04T06:03:48Z</time>
      </trkpt>
      <trkpt lat="45.33993" lon="5.8101">
        <ele>808</ele>
        <time>2013-09-04T06:03:49Z</time>
      </trkpt>
      <trkpt lat="45.34" lon="5.80994">
        <ele>807</ele>
        <time>2013-09-04T06:03:51Z</time>
      </trkpt>
      <trkpt lat="45.34041" lon="5.80948">
        <ele>805</ele>
        <time>2013-09-04T06:03:58Z</time>
      </trkpt>
      <trkpt lat="45.34047" lon="5.8092">
        <ele>805</ele>
        <time>2013-09-04T06:04:01Z</time>
      </trkpt>
      <trkpt lat="45.34044" lon="5.80908">
        <ele>804</ele>
        <time>2013-09-04T06:04:02Z</time>
      </trkpt>
      <trkpt lat="45.34012" lon="5.80858">
        <ele>801</ele>
        <time>2013-09-04T06:04:08Z</time>
      </trkpt>
      <trkpt lat="45.33995" lon="5.80811">
        <ele>799</ele>
        <time>2013-09-04T06:04:13Z</time>
      </trkpt>
      <trkpt lat="45.33986" lon="5.80776">
        <ele>797</ele>
        <time>2013-09-04T06:04:17Z</time>
      </trkpt>
      <trkpt lat="45.33972" lon="5.80668">
        <ele>793</ele>
        <time>2013-09-04T06:04:27Z</time>
      </trkpt>
      <trkpt lat="45.33964" lon="5.80595">
        <ele>792</ele>
        <time>2013-09-04T06:04:34Z</time>
      </trkpt>
      <trkpt lat="45.33966" lon="5.80586">
        <ele>792</ele>
        <time>2013-09-04T06:04:35Z</time>
      </trkpt>
      <trkpt lat="45.33974" lon="5.8057">
        <ele>792</ele>
        <time>2013-09-04T06:04:37Z</time>
      </trkpt>
      <trkpt lat="45.34005" lon="5.80544">
        <ele>792</ele>
        <time>2013-09-04T06:04:42Z</time>
      </trkpt>
      <trkpt lat="45.34025" lon="5.8052">
        <ele>792</ele>
        <time>2013-09-04T06:04:46Z</time>
      </trkpt>
      <trkpt lat="45.34063" lon="5.80455">
        <ele>792</ele>
        <time>2013-09-04T06:04:55Z</time>
      </trkpt>
      <trkpt lat="45.34089" lon="5.80422">
        <ele>793</ele>
        <time>2013-09-04T06:05:00Z</time>
      </trkpt>
      <trkpt lat="45.34143" lon="5.80383">
        <ele>795</ele>
        <time>2013-09-04T06:05:13Z</time>
      </trkpt>
      <trkpt lat="45.34143" lon="5.80383">
        <ele>795</ele>
        <time>2013-09-04T06:05:14Z</time>
      </trkpt>
      <trkpt lat="45.34291" lon="5.80294">
        <ele>797</ele>
        <time>2013-09-04T06:05:40Z</time>
      </trkpt>
      <trkpt lat="45.34368" lon="5.8019">
        <ele>791</ele>
        <time>2013-09-04T06:05:55Z</time>
      </trkpt>
      <trkpt lat="45.34383" lon="5.80105">
        <ele>797</ele>
        <time>2013-09-04T06:06:18Z</time>
      </trkpt>
      <trkpt lat="45.34408" lon="5.80057">
        <ele>802</ele>
        <time>2013-09-04T06:06:35Z</time>
      </trkpt>
      <trkpt lat="45.34408" lon="5.79968">
        <ele>815</ele>
        <time>2013-09-04T06:07:14Z</time>
      </trkpt>
      <trkpt lat="45.3442" lon="5.79909">
        <ele>824</ele>
        <time>2013-09-04T06:07:42Z</time>
      </trkpt>
      <trkpt lat="45.3443" lon="5.79891">
        <ele>820</ele>
        <time>2013-09-04T06:07:44Z</time>
      </trkpt>
      <trkpt lat="45.34523" lon="5.79777">
        <ele>796</ele>
        <time>2013-09-04T06:08:00Z</time>
      </trkpt>
      <trkpt lat="45.34534" lon="5.79753">
        <ele>793</ele>
        <time>2013-09-04T06:08:03Z</time>
      </trkpt>
      <trkpt lat="45.34578" lon="5.7961">
        <ele>777</ele>
        <time>2013-09-04T06:08:18Z</time>
      </trkpt>
      <trkpt lat="45.34594" lon="5.7957">
        <ele>776</ele>
        <time>2013-09-04T06:08:22Z</time>
      </trkpt>
      <trkpt lat="45.34622" lon="5.79515">
        <ele>776</ele>
        <time>2013-09-04T06:08:28Z</time>
      </trkpt>
      <trkpt lat="45.34655" lon="5.79482">
        <ele>776</ele>
        <time>2013-09-04T06:08:34Z</time>
      </trkpt>
      <trkpt lat="45.3466" lon="5.79469">
        <ele>774</ele>
        <time>2013-09-04T06:08:35Z</time>
      </trkpt>
      <trkpt lat="45.34666" lon="5.79417">
        <ele>771</ele>
        <time>2013-09-04T06:08:40Z</time>
      </trkpt>
      <trkpt lat="45.34669" lon="5.79372">
        <ele>767</ele>
        <time>2013-09-04T06:08:44Z</time>
      </trkpt>
      <trkpt lat="45.34691" lon="5.79315">
        <ele>763</ele>
        <time>2013-09-04T06:08:50Z</time>
      </trkpt>
      <trkpt lat="45.34703" lon="5.79247">
        <ele>763</ele>
        <time>2013-09-04T06:08:58Z</time>
      </trkpt>
      <trkpt lat="45.3471" lon="5.79225">
        <ele>763</ele>
        <time>2013-09-04T06:09:01Z</time>
      </trkpt>
      <trkpt lat="45.34732" lon="5.79189">
        <ele>764</ele>
        <time>2013-09-04T06:09:06Z</time>
      </trkpt>
      <trkpt lat="45.34774" lon="5.79152">
        <ele>768</ele>
        <time>2013-09-04T06:09:23Z</time>
      </trkpt>
      <trkpt lat="45.34823" lon="5.791">
        <ele>774</ele>
        <time>2013-09-04T06:09:45Z</time>
      </trkpt>
      <trkpt lat="45.34838" lon="5.79075">
        <ele>771</ele>
        <time>2013-09-04T06:09:48Z</time>
      </trkpt>
      <trkpt lat="45.34849" lon="5.79037">
        <ele>767</ele>
        <time>2013-09-04T06:09:52Z</time>
      </trkpt>
      <trkpt lat="45.34848" lon="5.78998">
        <ele>764</ele>
        <time>2013-09-04T06:09:56Z</time>
      </trkpt>
      <trkpt lat="45.34804" lon="5.78856">
        <ele>752</ele>
        <time>2013-09-04T06:10:10Z</time>
      </trkpt>
      <trkpt lat="45.34795" lon="5.78808">
        <ele>752</ele>
        <time>2013-09-04T06:10:15Z</time>
      </trkpt>
      <trkpt lat="45.34794" lon="5.78661">
        <ele>753</ele>
        <time>2013-09-04T06:10:31Z</time>
      </trkpt>
      <trkpt lat="45.34817" lon="5.78529">
        <ele>753</ele>
        <time>2013-09-04T06:10:44Z</time>
      </trkpt>
      <trkpt lat="45.34817" lon="5.78529">
        <ele>753</ele>
        <time>2013-09-04T06:10:45Z</time>
      </trkpt>
      <trkpt lat="45.34844" lon="5.78457">
        <ele>752</ele>
        <time>2013-09-04T06:10:52Z</time>
      </trkpt>
      <trkpt lat="45.34893" lon="5.78388">
        <ele>752</ele>
        <time>2013-09-04T06:11:02Z</time>
      </trkpt>
      <trkpt lat="45.34906" lon="5.7838">
        <ele>754</ele>
        <time>2013-09-04T06:11:10Z</time>
      </trkpt>
      <trkpt lat="45.34924" lon="5.78387">
        <ele>758</ele>
        <time>2013-09-04T06:11:21Z</time>
      </trkpt>
      <trkpt lat="45.3495" lon="5.78434">
        <ele>765</ele>
        <time>2013-09-04T06:11:45Z</time>
      </trkpt>
      <trkpt lat="45.3497" lon="5.7846">
        <ele>771</ele>
        <time>2013-09-04T06:12:01Z</time>
      </trkpt>
      <trkpt lat="45.3502" lon="5.78507">
        <ele>771</ele>
        <time>2013-09-04T06:12:10Z</time>
      </trkpt>
      <trkpt lat="45.35041" lon="5.78513">
        <ele>771</ele>
        <time>2013-09-04T06:12:14Z</time>
      </trkpt>
      <trkpt lat="45.35055" lon="5.78506">
        <ele>772</ele>
        <time>2013-09-04T06:12:16Z</time>
      </trkpt>
      <trkpt lat="45.35065" lon="5.78494">
        <ele>770</ele>
        <time>2013-09-04T06:12:18Z</time>
      </trkpt>
      <trkpt lat="45.35069" lon="5.78474">
        <ele>769</ele>
        <time>2013-09-04T06:12:20Z</time>
      </trkpt>
      <trkpt lat="45.35043" lon="5.78426">
        <ele>765</ele>
        <time>2013-09-04T06:12:25Z</time>
      </trkpt>
      <trkpt lat="45.35012" lon="5.7833">
        <ele>758</ele>
        <time>2013-09-04T06:12:35Z</time>
      </trkpt>
      <trkpt lat="45.35008" lon="5.78317">
        <ele>757</ele>
        <time>2013-09-04T06:12:37Z</time>
      </trkpt>
      <trkpt lat="45.35007" lon="5.78266">
        <ele>755</ele>
        <time>2013-09-04T06:12:42Z</time>
      </trkpt>
      <trkpt lat="45.34994" lon="5.78232">
        <ele>753</ele>
        <time>2013-09-04T06:12:45Z</time>
      </trkpt>
      <trkpt lat="45.34966" lon="5.7821">
        <ele>752</ele>
        <time>2013-09-04T06:12:49Z</time>
      </trkpt>
      <trkpt lat="45.34898" lon="5.78184">
        <ele>731</ele>
        <time>2013-09-04T06:12:59Z</time>
      </trkpt>
      <trkpt lat="45.34877" lon="5.78162">
        <ele>724</ele>
        <time>2013-09-04T06:13:02Z</time>
      </trkpt>
      <trkpt lat="45.34873" lon="5.78129">
        <ele>729</ele>
        <time>2013-09-04T06:13:18Z</time>
      </trkpt>
      <trkpt lat="45.34881" lon="5.78091">
        <ele>735</ele>
        <time>2013-09-04T06:13:37Z</time>
      </trkpt>
      <trkpt lat="45.34889" lon="5.78022">
        <ele>747</ele>
        <time>2013-09-04T06:14:11Z</time>
      </trkpt>
      <trkpt lat="45.34905" lon="5.77946">
        <ele>754</ele>
        <time>2013-09-04T06:14:36Z</time>
      </trkpt>
      <trkpt lat="45.34915" lon="5.77925">
        <ele>756</ele>
        <time>2013-09-04T06:14:45Z</time>
      </trkpt>
      <trkpt lat="45.34931" lon="5.7791">
        <ele>759</ele>
        <time>2013-09-04T06:14:53Z</time>
      </trkpt>
      <trkpt lat="45.34942" lon="5.77889">
        <ele>762</ele>
        <time>2013-09-04T06:15:02Z</time>
      </trkpt>
      <trkpt lat="45.34958" lon="5.77792">
        <ele>746</ele>
        <time>2013-09-04T06:15:11Z</time>
      </trkpt>
      <trkpt lat="45.34981" lon="5.77727">
        <ele>736</ele>
        <time>2013-09-04T06:15:18Z</time>
      </trkpt>
      <trkpt lat="45.34999" lon="5.77602">
        <ele>723</ele>
        <time>2013-09-04T06:15:30Z</time>
      </trkpt>
      <trkpt lat="45.35034" lon="5.77462">
        <ele>708</ele>
        <time>2013-09-04T06:15:44Z</time>
      </trkpt>
      <trkpt lat="45.35044" lon="5.77409">
        <ele>704</ele>
        <time>2013-09-04T06:15:49Z</time>
      </trkpt>
      <trkpt lat="45.35044" lon="5.77382">
        <ele>703</ele>
        <time>2013-09-04T06:15:52Z</time>
      </trkpt>
      <trkpt lat="45.35036" lon="5.77314">
        <ele>699</ele>
        <time>2013-09-04T06:15:58Z</time>
      </trkpt>
      <trkpt lat="45.35007" lon="5.77206">
        <ele>703</ele>
        <time>2013-09-04T06:16:21Z</time>
      </trkpt>
      <trkpt lat="45.3499" lon="5.77068">
        <ele>710</ele>
        <time>2013-09-04T06:16:48Z</time>
      </trkpt>
      <trkpt lat="45.3499" lon="5.77054">
        <ele>708</ele>
        <time>2013-09-04T06:16:50Z</time>
      </trkpt>
      <trkpt lat="45.3502" lon="5.76932">
        <ele>699</ele>
        <time>2013-09-04T06:17:02Z</time>
      </trkpt>
      <trkpt lat="45.35023" lon="5.76866">
        <ele>695</ele>
        <time>2013-09-04T06:17:08Z</time>
      </trkpt>
      <trkpt lat="45.3509" lon="5.76645">
        <ele>685</ele>
        <time>2013-09-04T06:17:31Z</time>
      </trkpt>
      <trkpt lat="45.35109" lon="5.76605">
        <ele>678</ele>
        <time>2013-09-04T06:17:35Z</time>
      </trkpt>
      <trkpt lat="45.3516" lon="5.76543">
        <ele>665</ele>
        <time>2013-09-04T06:17:44Z</time>
      </trkpt>
      <trkpt lat="45.35184" lon="5.76495">
        <ele>653</ele>
        <time>2013-09-04T06:17:50Z</time>
      </trkpt>
      <trkpt lat="45.35196" lon="5.7645">
        <ele>643</ele>
        <time>2013-09-04T06:17:54Z</time>
      </trkpt>
      <trkpt lat="45.35202" lon="5.76405">
        <ele>635</ele>
        <time>2013-09-04T06:17:59Z</time>
      </trkpt>
      <trkpt lat="45.35201" lon="5.76372">
        <ele>629</ele>
        <time>2013-09-04T06:18:02Z</time>
      </trkpt>
      <trkpt lat="45.35188" lon="5.76307">
        <ele>618</ele>
        <time>2013-09-04T06:18:08Z</time>
      </trkpt>
      <trkpt lat="45.35163" lon="5.76228">
        <ele>604</ele>
        <time>2013-09-04T06:18:16Z</time>
      </trkpt>
      <trkpt lat="45.35162" lon="5.76192">
        <ele>605</ele>
        <time>2013-09-04T06:18:22Z</time>
      </trkpt>
      <trkpt lat="45.35168" lon="5.76156">
        <ele>606</ele>
        <time>2013-09-04T06:18:29Z</time>
      </trkpt>
      <trkpt lat="45.35199" lon="5.76085">
        <ele>609</ele>
        <time>2013-09-04T06:18:43Z</time>
      </trkpt>
      <trkpt lat="45.35239" lon="5.76022">
        <ele>605</ele>
        <time>2013-09-04T06:18:51Z</time>
      </trkpt>
      <trkpt lat="45.35279" lon="5.75939">
        <ele>601</ele>
        <time>2013-09-04T06:19:00Z</time>
      </trkpt>
      <trkpt lat="45.35308" lon="5.75901">
        <ele>597</ele>
        <time>2013-09-04T06:19:06Z</time>
      </trkpt>
      <trkpt lat="45.35308" lon="5.75901">
        <ele>597</ele>
        <time>2013-09-04T06:19:07Z</time>
      </trkpt>
      <trkpt lat="45.35327" lon="5.75888">
        <ele>595</ele>
        <time>2013-09-04T06:19:09Z</time>
      </trkpt>
      <trkpt lat="45.35364" lon="5.75874">
        <ele>593</ele>
        <time>2013-09-04T06:19:14Z</time>
      </trkpt>
      <trkpt lat="45.35379" lon="5.75862">
        <ele>592</ele>
        <time>2013-09-04T06:19:17Z</time>
      </trkpt>
      <trkpt lat="45.35416" lon="5.75816">
        <ele>589</ele>
        <time>2013-09-04T06:19:23Z</time>
      </trkpt>
      <trkpt lat="45.35448" lon="5.75785">
        <ele>581</ele>
        <time>2013-09-04T06:19:28Z</time>
      </trkpt>
      <trkpt lat="45.35456" lon="5.75766">
        <ele>578</ele>
        <time>2013-09-04T06:19:31Z</time>
      </trkpt>
      <trkpt lat="45.35466" lon="5.75699">
        <ele>570</ele>
        <time>2013-09-04T06:19:37Z</time>
      </trkpt>
      <trkpt lat="45.35478" lon="5.75678">
        <ele>571</ele>
        <time>2013-09-04T06:19:43Z</time>
      </trkpt>
      <trkpt lat="45.35497" lon="5.7566">
        <ele>573</ele>
        <time>2013-09-04T06:19:50Z</time>
      </trkpt>
      <trkpt lat="45.35531" lon="5.75657">
        <ele>575</ele>
        <time>2013-09-04T06:20:01Z</time>
      </trkpt>
      <trkpt lat="45.35585" lon="5.75681">
        <ele>580</ele>
        <time>2013-09-04T06:20:19Z</time>
      </trkpt>
      <trkpt lat="45.35681" lon="5.75655">
        <ele>599</ele>
        <time>2013-09-04T06:21:17Z</time>
      </trkpt>
      <trkpt lat="45.35709" lon="5.75643">
        <ele>600</ele>
        <time>2013-09-04T06:21:25Z</time>
      </trkpt>
      <trkpt lat="45.35731" lon="5.75644">
        <ele>601</ele>
        <time>2013-09-04T06:21:30Z</time>
      </trkpt>
      <trkpt lat="45.35766" lon="5.75658">
        <ele>603</ele>
        <time>2013-09-04T06:21:39Z</time>
      </trkpt>
      <trkpt lat="45.35781" lon="5.75657">
        <ele>604</ele>
        <time>2013-09-04T06:21:43Z</time>
      </trkpt>
      <trkpt lat="45.35798" lon="5.75642">
        <ele>599</ele>
        <time>2013-09-04T06:21:46Z</time>
      </trkpt>
      <trkpt lat="45.35831" lon="5.75582">
        <ele>587</ele>
        <time>2013-09-04T06:21:53Z</time>
      </trkpt>
      <trkpt lat="45.3585" lon="5.75555">
        <ele>581</ele>
        <time>2013-09-04T06:21:56Z</time>
      </trkpt>
      <trkpt lat="45.3601" lon="5.75435">
        <ele>574</ele>
        <time>2013-09-04T06:22:21Z</time>
      </trkpt>
      <trkpt lat="45.3606" lon="5.75422">
        <ele>567</ele>
        <time>2013-09-04T06:22:27Z</time>
      </trkpt>
      <trkpt lat="45.36105" lon="5.75404">
        <ele>561</ele>
        <time>2013-09-04T06:22:34Z</time>
      </trkpt>
      <trkpt lat="45.36132" lon="5.75404">
        <ele>558</ele>
        <time>2013-09-04T06:22:37Z</time>
      </trkpt>
      <trkpt lat="45.36182" lon="5.75415">
        <ele>554</ele>
        <time>2013-09-04T06:22:44Z</time>
      </trkpt>
      <trkpt lat="45.36273" lon="5.75387">
        <ele>546</ele>
        <time>2013-09-04T06:22:56Z</time>
      </trkpt>
      <trkpt lat="45.36326" lon="5.75395">
        <ele>544</ele>
        <time>2013-09-04T06:23:04Z</time>
      </trkpt>
      <trkpt lat="45.36348" lon="5.75393">
        <ele>543</ele>
        <time>2013-09-04T06:23:07Z</time>
      </trkpt>
      <trkpt lat="45.36397" lon="5.75335">
        <ele>542</ele>
        <time>2013-09-04T06:23:15Z</time>
      </trkpt>
      <trkpt lat="45.36422" lon="5.75324">
        <ele>539</ele>
        <time>2013-09-04T06:23:19Z</time>
      </trkpt>
      <trkpt lat="45.36454" lon="5.753">
        <ele>535</ele>
        <time>2013-09-04T06:23:23Z</time>
      </trkpt>
      <trkpt lat="45.36499" lon="5.7529">
        <ele>531</ele>
        <time>2013-09-04T06:23:29Z</time>
      </trkpt>
      <trkpt lat="45.36518" lon="5.75279">
        <ele>533</ele>
        <time>2013-09-04T06:23:38Z</time>
      </trkpt>
      <trkpt lat="45.36538" lon="5.75252">
        <ele>536</ele>
        <time>2013-09-04T06:23:50Z</time>
      </trkpt>
      <trkpt lat="45.36551" lon="5.75209">
        <ele>541</ele>
        <time>2013-09-04T06:24:04Z</time>
      </trkpt>
      <trkpt lat="45.36551" lon="5.75209">
        <ele>541</ele>
        <time>2013-09-04T06:24:05Z</time>
      </trkpt>
      <trkpt lat="45.36577" lon="5.75123">
        <ele>561</ele>
        <time>2013-09-04T06:25:04Z</time>
      </trkpt>
      <trkpt lat="45.36593" lon="5.75094">
        <ele>570</ele>
        <time>2013-09-04T06:25:27Z</time>
      </trkpt>
      <trkpt lat="45.36616" lon="5.75072">
        <ele>563</ele>
        <time>2013-09-04T06:25:31Z</time>
      </trkpt>
      <trkpt lat="45.36636" lon="5.75064">
        <ele>557</ele>
        <time>2013-09-04T06:25:34Z</time>
      </trkpt>
      <trkpt lat="45.367" lon="5.75063">
        <ele>542</ele>
        <time>2013-09-04T06:25:42Z</time>
      </trkpt>
      <trkpt lat="45.36738" lon="5.75026">
        <ele>545</ele>
        <time>2013-09-04T06:25:56Z</time>
      </trkpt>
      <trkpt lat="45.36785" lon="5.74992">
        <ele>549</ele>
        <time>2013-09-04T06:26:12Z</time>
      </trkpt>
      <trkpt lat="45.36851" lon="5.74956">
        <ele>547</ele>
        <time>2013-09-04T06:26:22Z</time>
      </trkpt>
      <trkpt lat="45.37023" lon="5.74899">
        <ele>545</ele>
        <time>2013-09-04T06:26:45Z</time>
      </trkpt>
      <trkpt lat="45.37048" lon="5.74895">
        <ele>538</ele>
        <time>2013-09-04T06:26:49Z</time>
      </trkpt>
      <trkpt lat="45.37074" lon="5.74907">
        <ele>532</ele>
        <time>2013-09-04T06:26:52Z</time>
      </trkpt>
      <trkpt lat="45.37122" lon="5.74967">
        <ele>517</ele>
        <time>2013-09-04T06:27:01Z</time>
      </trkpt>
      <trkpt lat="45.37185" lon="5.74998">
        <ele>519</ele>
        <time>2013-09-04T06:27:15Z</time>
      </trkpt>
      <trkpt lat="45.37279" lon="5.74992">
        <ele>522</ele>
        <time>2013-09-04T06:27:34Z</time>
      </trkpt>
      <trkpt lat="45.37301" lon="5.74997">
        <ele>519</ele>
        <time>2013-09-04T06:27:37Z</time>
      </trkpt>
      <trkpt lat="45.37339" lon="5.75019">
        <ele>514</ele>
        <time>2013-09-04T06:27:43Z</time>
      </trkpt>
      <trkpt lat="45.37357" lon="5.75021">
        <ele>512</ele>
        <time>2013-09-04T06:27:45Z</time>
      </trkpt>
      <trkpt lat="45.37449" lon="5.75002">
        <ele>502</ele>
        <time>2013-09-04T06:27:57Z</time>
      </trkpt>
      <trkpt lat="45.37473" lon="5.74989">
        <ele>503</ele>
        <time>2013-09-04T06:28:04Z</time>
      </trkpt>
      <trkpt lat="45.37565" lon="5.74862">
        <ele>510</ele>
        <time>2013-09-04T06:28:37Z</time>
      </trkpt>
      <trkpt lat="45.3761" lon="5.74821">
        <ele>499</ele>
        <time>2013-09-04T06:28:44Z</time>
      </trkpt>
      <trkpt lat="45.3773" lon="5.74784">
        <ele>475</ele>
        <time>2013-09-04T06:29:01Z</time>
      </trkpt>
      <trkpt lat="45.37807" lon="5.74733">
        <ele>461</ele>
        <time>2013-09-04T06:29:12Z</time>
      </trkpt>
      <trkpt lat="45.37913" lon="5.74717">
        <ele>444</ele>
        <time>2013-09-04T06:29:26Z</time>
      </trkpt>
      <trkpt lat="45.37938" lon="5.74707">
        <ele>443</ele>
        <time>2013-09-04T06:29:30Z</time>
      </trkpt>
      <trkpt lat="45.37964" lon="5.74687">
        <ele>442</ele>
        <time>2013-09-04T06:29:34Z</time>
      </trkpt>
      <trkpt lat="45.3798" lon="5.74666">
        <ele>441</ele>
        <time>2013-09-04T06:29:37Z</time>
      </trkpt>
      <trkpt lat="45.37986" lon="5.74648">
        <ele>441</ele>
        <time>2013-09-04T06:29:39Z</time>
      </trkpt>
      <trkpt lat="45.37966" lon="5.74518">
        <ele>438</ele>
        <time>2013-09-04T06:29:51Z</time>
      </trkpt>
      <trkpt lat="45.37973" lon="5.74455">
        <ele>437</ele>
        <time>2013-09-04T06:29:57Z</time>
      </trkpt>
      <trkpt lat="45.37972" lon="5.74419">
        <ele>436</ele>
        <time>2013-09-04T06:30:00Z</time>
      </trkpt>
      <trkpt lat="45.37959" lon="5.74387">
        <ele>436</ele>
        <time>2013-09-04T06:30:04Z</time>
      </trkpt>
      <trkpt lat="45.37877" lon="5.74229">
        <ele>443</ele>
        <time>2013-09-04T06:30:39Z</time>
      </trkpt>
      <trkpt lat="45.3787" lon="5.74206">
        <ele>444</ele>
        <time>2013-09-04T06:30:45Z</time>
      </trkpt>
      <trkpt lat="45.37866" lon="5.74165">
        <ele>447</ele>
        <time>2013-09-04T06:30:55Z</time>
      </trkpt>
      <trkpt lat="45.3788" lon="5.74092">
        <ele>452</ele>
        <time>2013-09-04T06:31:14Z</time>
      </trkpt>
      <trkpt lat="45.37904" lon="5.74033">
        <ele>451</ele>
        <time>2013-09-04T06:31:20Z</time>
      </trkpt>
      <trkpt lat="45.37943" lon="5.73955">
        <ele>450</ele>
        <time>2013-09-04T06:31:29Z</time>
      </trkpt>
      <trkpt lat="45.3797" lon="5.73857">
        <ele>452</ele>
        <time>2013-09-04T06:31:46Z</time>
      </trkpt>
      <trkpt lat="45.37989" lon="5.73823">
        <ele>454</ele>
        <time>2013-09-04T06:31:53Z</time>
      </trkpt>
      <trkpt lat="45.38029" lon="5.73768">
        <ele>454</ele>
        <time>2013-09-04T06:32:01Z</time>
      </trkpt>
      <trkpt lat="45.38069" lon="5.73688">
        <ele>455</ele>
        <time>2013-09-04T06:32:12Z</time>
      </trkpt>
      <trkpt lat="45.38069" lon="5.73688">
        <ele>455</ele>
        <time>2013-09-04T06:32:13Z</time>
      </trkpt>
      <trkpt lat="45.38096" lon="5.73637">
        <ele>458</ele>
        <time>2013-09-04T06:32:27Z</time>
      </trkpt>
      <trkpt lat="45.38126" lon="5.73597">
        <ele>461</ele>
        <time>2013-09-04T06:32:39Z</time>
      </trkpt>
      <trkpt lat="45.38149" lon="5.73579">
        <ele>463</ele>
        <time>2013-09-04T06:32:47Z</time>
      </trkpt>
      <trkpt lat="45.38191" lon="5.73556">
        <ele>463</ele>
        <time>2013-09-04T06:32:55Z</time>
      </trkpt>
      <trkpt lat="45.38265" lon="5.73528">
        <ele>465</ele>
        <time>2013-09-04T06:33:08Z</time>
      </trkpt>
      <trkpt lat="45.38358" lon="5.73518">
        <ele>463</ele>
        <time>2013-09-04T06:33:21Z</time>
      </trkpt>
      <trkpt lat="45.38494" lon="5.73519">
        <ele>449</ele>
        <time>2013-09-04T06:33:39Z</time>
      </trkpt>
      <trkpt lat="45.38522" lon="5.73528">
        <ele>443</ele>
        <time>2013-09-04T06:33:43Z</time>
      </trkpt>
      <trkpt lat="45.38606" lon="5.73572">
        <ele>428</ele>
        <time>2013-09-04T06:33:55Z</time>
      </trkpt>
      <trkpt lat="45.38703" lon="5.7357">
        <ele>421</ele>
        <time>2013-09-04T06:34:08Z</time>
      </trkpt>
      <trkpt lat="45.38705" lon="5.73446">
        <ele>426</ele>
        <time>2013-09-04T06:34:33Z</time>
      </trkpt>
      <trkpt lat="45.38709" lon="5.73421">
        <ele>428</ele>
        <time>2013-09-04T06:34:38Z</time>
      </trkpt>
      <trkpt lat="45.3874" lon="5.73336">
        <ele>426</ele>
        <time>2013-09-04T06:34:47Z</time>
      </trkpt>
      <trkpt lat="45.38841" lon="5.72596">
        <ele>411</ele>
        <time>2013-09-04T06:35:58Z</time>
      </trkpt>
      <trkpt lat="45.38841" lon="5.72596">
        <ele>411</ele>
        <time>2013-09-04T06:35:59Z</time>
      </trkpt>
      <trkpt lat="45.38859" lon="5.72439">
        <ele>408</ele>
        <time>2013-09-04T06:36:14Z</time>
      </trkpt>
      <trkpt lat="45.38857" lon="5.72283">
        <ele>407</ele>
        <time>2013-09-04T06:36:29Z</time>
      </trkpt>
      <trkpt lat="45.38849" lon="5.72203">
        <ele>405</ele>
        <time>2013-09-04T06:36:36Z</time>
      </trkpt>
      <trkpt lat="45.38834" lon="5.72113">
        <ele>404</ele>
        <time>2013-09-04T06:36:45Z</time>
      </trkpt>
      <trkpt lat="45.38813" lon="5.72021">
        <ele>403</ele>
        <time>2013-09-04T06:36:54Z</time>
      </trkpt>
      <trkpt lat="45.38793" lon="5.71956">
        <ele>403</ele>
        <time>2013-09-04T06:37:01Z</time>
      </trkpt>
      <trkpt lat="45.38716" lon="5.71776">
        <ele>402</ele>
        <time>2013-09-04T06:37:20Z</time>
      </trkpt>
      <trkpt lat="45.38601" lon="5.71544">
        <ele>400</ele>
        <time>2013-09-04T06:37:47Z</time>
      </trkpt>
      <trkpt lat="45.38591" lon="5.71535">
        <ele>400</ele>
        <time>2013-09-04T06:37:49Z</time>
      </trkpt>
      <trkpt lat="45.38243" lon="5.70824">
        <ele>400</ele>
        <time>2013-09-04T06:39:10Z</time>
      </trkpt>
      <trkpt lat="45.38215" lon="5.70778">
        <ele>400</ele>
        <time>2013-09-04T06:39:18Z</time>
      </trkpt>
      <trkpt lat="45.38124" lon="5.70685">
        <ele>403</ele>
        <time>2013-09-04T06:39:38Z</time>
      </trkpt>
      <trkpt lat="45.38069" lon="5.70591">
        <ele>402</ele>
        <time>2013-09-04T06:39:49Z</time>
      </trkpt>
      <trkpt lat="45.38049" lon="5.70533">
        <ele>402</ele>
        <time>2013-09-04T06:39:55Z</time>
      </trkpt>
      <trkpt lat="45.37975" lon="5.70371">
        <ele>403</ele>
        <time>2013-09-04T06:40:16Z</time>
      </trkpt>
      <trkpt lat="45.37951" lon="5.7029">
        <ele>405</ele>
        <time>2013-09-04T06:40:29Z</time>
      </trkpt>
      <trkpt lat="45.37951" lon="5.70289">
        <ele>405</ele>
        <time>2013-09-04T06:40:29Z</time>
      </trkpt>
      <trkpt lat="45.37934" lon="5.70205">
        <ele>406</ele>
        <time>2013-09-04T06:40:41Z</time>
      </trkpt>
      <trkpt lat="45.379" lon="5.70123">
        <ele>408</ele>
        <time>2013-09-04T06:40:53Z</time>
      </trkpt>
      <trkpt lat="45.37764" lon="5.6989">
        <ele>409</ele>
        <time>2013-09-04T06:41:24Z</time>
      </trkpt>
      <trkpt lat="45.37716" lon="5.69821">
        <ele>409</ele>
        <time>2013-09-04T06:41:33Z</time>
      </trkpt>
      <trkpt lat="45.37674" lon="5.69789">
        <ele>409</ele>
        <time>2013-09-04T06:41:40Z</time>
      </trkpt>
      <trkpt lat="45.37547" lon="5.69724">
        <ele>411</ele>
        <time>2013-09-04T06:42:03Z</time>
      </trkpt>
      <trkpt lat="45.37497" lon="5.697">
        <ele>412</ele>
        <time>2013-09-04T06:42:13Z</time>
      </trkpt>
      <trkpt lat="45.37421" lon="5.69677">
        <ele>414</ele>
        <time>2013-09-04T06:42:27Z</time>
      </trkpt>
      <trkpt lat="45.37391" lon="5.69656">
        <ele>414</ele>
        <time>2013-09-04T06:42:32Z</time>
      </trkpt>
      <trkpt lat="45.37362" lon="5.69623">
        <ele>414</ele>
        <time>2013-09-04T06:42:37Z</time>
      </trkpt>
      <trkpt lat="45.37232" lon="5.69399">
        <ele>414</ele>
        <time>2013-09-04T06:43:04Z</time>
      </trkpt>
      <trkpt lat="45.37199" lon="5.69326">
        <ele>413</ele>
        <time>2013-09-04T06:43:12Z</time>
      </trkpt>
      <trkpt lat="45.37184" lon="5.69281">
        <ele>413</ele>
        <time>2013-09-04T06:43:17Z</time>
      </trkpt>
      <trkpt lat="45.37174" lon="5.69235">
        <ele>412</ele>
        <time>2013-09-04T06:43:21Z</time>
      </trkpt>
      <trkpt lat="45.37168" lon="5.69085">
        <ele>411</ele>
        <time>2013-09-04T06:43:35Z</time>
      </trkpt>
      <trkpt lat="45.3716" lon="5.69027">
        <ele>410</ele>
        <time>2013-09-04T06:43:41Z</time>
      </trkpt>
      <trkpt lat="45.37138" lon="5.68963">
        <ele>410</ele>
        <time>2013-09-04T06:43:48Z</time>
      </trkpt>
      <trkpt lat="45.37089" lon="5.68867">
        <ele>412</ele>
        <time>2013-09-04T06:44:05Z</time>
      </trkpt>
      <trkpt lat="45.37053" lon="5.68815">
        <ele>414</ele>
        <time>2013-09-04T06:44:15Z</time>
      </trkpt>
      <trkpt lat="45.36983" lon="5.68742">
        <ele>415</ele>
        <time>2013-09-04T06:44:30Z</time>
      </trkpt>
      <trkpt lat="45.3681" lon="5.68601">
        <ele>419</ele>
        <time>2013-09-04T06:45:05Z</time>
      </trkpt>
      <trkpt lat="45.36775" lon="5.68578">
        <ele>420</ele>
        <time>2013-09-04T06:45:13Z</time>
      </trkpt>
      <trkpt lat="45.36774" lon="5.68578">
        <ele>420</ele>
        <time>2013-09-04T06:45:13Z</time>
      </trkpt>
      <trkpt lat="45.36725" lon="5.68556">
        <ele>421</ele>
        <time>2013-09-04T06:45:24Z</time>
      </trkpt>
      <trkpt lat="45.36698" lon="5.68535">
        <ele>422</ele>
        <time>2013-09-04T06:45:30Z</time>
      </trkpt>
      <trkpt lat="45.36356" lon="5.68169">
        <ele>436</ele>
        <time>2013-09-04T06:47:00Z</time>
      </trkpt>
      <trkpt lat="45.36326" lon="5.68115">
        <ele>437</ele>
        <time>2013-09-04T06:47:09Z</time>
      </trkpt>
      <trkpt lat="45.36287" lon="5.67997">
        <ele>439</ele>
        <time>2013-09-04T06:47:25Z</time>
      </trkpt>
      <trkpt lat="45.36284" lon="5.67961">
        <ele>439</ele>
        <time>2013-09-04T06:47:31Z</time>
      </trkpt>
      <trkpt lat="45.36293" lon="5.67919">
        <ele>440</ele>
        <time>2013-09-04T06:47:37Z</time>
      </trkpt>
      <trkpt lat="45.36284" lon="5.67911">
        <ele>440</ele>
        <time>2013-09-04T06:47:39Z</time>
      </trkpt>
      <trkpt lat="45.36259" lon="5.67868">
        <ele>442</ele>
        <time>2013-09-04T06:47:47Z</time>
      </trkpt>
      <trkpt lat="45.36195" lon="5.67834">
        <ele>445</ele>
        <time>2013-09-04T06:48:04Z</time>
      </trkpt>
      <trkpt lat="45.36169" lon="5.67812">
        <ele>447</ele>
        <time>2013-09-04T06:48:12Z</time>
      </trkpt>
      <trkpt lat="45.36106" lon="5.67725">
        <ele>451</ele>
        <time>2013-09-04T06:48:35Z</time>
      </trkpt>
      <trkpt lat="45.36085" lon="5.67704">
        <ele>453</ele>
        <time>2013-09-04T06:48:42Z</time>
      </trkpt>
      <trkpt lat="45.35955" lon="5.67625">
        <ele>456</ele>
        <time>2013-09-04T06:49:08Z</time>
      </trkpt>
      <trkpt lat="45.35875" lon="5.6757">
        <ele>458</ele>
        <time>2013-09-04T06:49:24Z</time>
      </trkpt>
      <trkpt lat="45.35794" lon="5.67532">
        <ele>460</ele>
        <time>2013-09-04T06:49:41Z</time>
      </trkpt>
      <trkpt lat="45.35608" lon="5.67363">
        <ele>473</ele>
        <time>2013-09-04T06:50:41Z</time>
      </trkpt>
      <trkpt lat="45.35462" lon="5.67258">
        <ele>478</ele>
        <time>2013-09-04T06:51:15Z</time>
      </trkpt>
      <trkpt lat="45.35404" lon="5.67232">
        <ele>479</ele>
        <time>2013-09-04T06:51:26Z</time>
      </trkpt>
      <trkpt lat="45.35403" lon="5.67232">
        <ele>479</ele>
        <time>2013-09-04T06:51:26Z</time>
      </trkpt>
      <trkpt lat="45.3535" lon="5.6722">
        <ele>479</ele>
        <time>2013-09-04T06:51:34Z</time>
      </trkpt>
      <trkpt lat="45.35264" lon="5.67209">
        <ele>480</ele>
        <time>2013-09-04T06:51:47Z</time>
      </trkpt>
      <trkpt lat="45.35236" lon="5.67198">
        <ele>481</ele>
        <time>2013-09-04T06:51:55Z</time>
      </trkpt>
      <trkpt lat="45.35202" lon="5.67176">
        <ele>483</ele>
        <time>2013-09-04T06:52:05Z</time>
      </trkpt>
      <trkpt lat="45.35077" lon="5.67061">
        <ele>492</ele>
        <time>2013-09-04T06:52:44Z</time>
      </trkpt>
      <trkpt lat="45.35061" lon="5.67036">
        <ele>494</ele>
        <time>2013-09-04T06:52:53Z</time>
      </trkpt>
      <trkpt lat="45.35017" lon="5.66944">
        <ele>502</ele>
        <time>2013-09-04T06:53:22Z</time>
      </trkpt>
      <trkpt lat="45.34993" lon="5.6691">
        <ele>504</ele>
        <time>2013-09-04T06:53:32Z</time>
      </trkpt>
      <trkpt lat="45.34972" lon="5.66891">
        <ele>505</ele>
        <time>2013-09-04T06:53:39Z</time>
      </trkpt>
      <trkpt lat="45.34931" lon="5.66867">
        <ele>509</ele>
        <time>2013-09-04T06:53:53Z</time>
      </trkpt>
      <trkpt lat="45.34875" lon="5.66841">
        <ele>509</ele>
        <time>2013-09-04T06:54:03Z</time>
      </trkpt>
      <trkpt lat="45.34755" lon="5.66823">
        <ele>512</ele>
        <time>2013-09-04T06:54:24Z</time>
      </trkpt>
      <trkpt lat="45.34661" lon="5.66779">
        <ele>517</ele>
        <time>2013-09-04T06:54:49Z</time>
      </trkpt>
      <trkpt lat="45.34546" lon="5.66763">
        <ele>519</ele>
        <time>2013-09-04T06:55:09Z</time>
      </trkpt>
      <trkpt lat="45.34352" lon="5.66647">
        <ele>527</ele>
        <time>2013-09-04T06:55:57Z</time>
      </trkpt>
      <trkpt lat="45.34311" lon="5.66612">
        <ele>533</ele>
        <time>2013-09-04T06:56:18Z</time>
      </trkpt>
      <trkpt lat="45.34276" lon="5.66565">
        <ele>540</ele>
        <time>2013-09-04T06:56:41Z</time>
      </trkpt>
      <trkpt lat="45.34156" lon="5.66475">
        <ele>548</ele>
        <time>2013-09-04T06:57:18Z</time>
      </trkpt>
      <trkpt lat="45.34088" lon="5.66406">
        <ele>553</ele>
        <time>2013-09-04T06:57:42Z</time>
      </trkpt>
      <trkpt lat="45.3402" lon="5.66366">
        <ele>558</ele>
        <time>2013-09-04T06:58:03Z</time>
      </trkpt>
      <trkpt lat="45.33945" lon="5.66275">
        <ele>566</ele>
        <time>2013-09-04T06:58:35Z</time>
      </trkpt>
      <trkpt lat="45.33864" lon="5.66207">
        <ele>566</ele>
        <time>2013-09-04T06:58:48Z</time>
      </trkpt>
      <trkpt lat="45.33824" lon="5.66183">
        <ele>564</ele>
        <time>2013-09-04T06:58:54Z</time>
      </trkpt>
      <trkpt lat="45.33777" lon="5.66172">
        <ele>562</ele>
        <time>2013-09-04T06:59:00Z</time>
      </trkpt>
      <trkpt lat="45.33746" lon="5.66146">
        <ele>562</ele>
        <time>2013-09-04T06:59:05Z</time>
      </trkpt>
      <trkpt lat="45.33746" lon="5.66145">
        <ele>562</ele>
        <time>2013-09-04T06:59:05Z</time>
      </trkpt>
      <trkpt lat="45.3367" lon="5.66016">
        <ele>570</ele>
        <time>2013-09-04T06:59:40Z</time>
      </trkpt>
      <trkpt lat="45.33652" lon="5.65993">
        <ele>571</ele>
        <time>2013-09-04T06:59:47Z</time>
      </trkpt>
      <trkpt lat="45.33615" lon="5.6597">
        <ele>573</ele>
        <time>2013-09-04T06:59:58Z</time>
      </trkpt>
      <trkpt lat="45.33471" lon="5.65924">
        <ele>583</ele>
        <time>2013-09-04T07:00:39Z</time>
      </trkpt>
      <trkpt lat="45.33345" lon="5.65913">
        <ele>584</ele>
        <time>2013-09-04T07:00:59Z</time>
      </trkpt>
      <trkpt lat="45.33299" lon="5.659">
        <ele>586</ele>
        <time>2013-09-04T07:01:11Z</time>
      </trkpt>
      <trkpt lat="45.33175" lon="5.65845">
        <ele>593</ele>
        <time>2013-09-04T07:01:44Z</time>
      </trkpt>
      <trkpt lat="45.33092" lon="5.65837">
        <ele>591</ele>
        <time>2013-09-04T07:01:55Z</time>
      </trkpt>
      <trkpt lat="45.33027" lon="5.65813">
        <ele>591</ele>
        <time>2013-09-04T07:02:04Z</time>
      </trkpt>
      <trkpt lat="45.32956" lon="5.65826">
        <ele>588</ele>
        <time>2013-09-04T07:02:13Z</time>
      </trkpt>
      <trkpt lat="45.32938" lon="5.65824">
        <ele>587</ele>
        <time>2013-09-04T07:02:16Z</time>
      </trkpt>
      <trkpt lat="45.32923" lon="5.65812">
        <ele>587</ele>
        <time>2013-09-04T07:02:18Z</time>
      </trkpt>
      <trkpt lat="45.32901" lon="5.65774">
        <ele>585</ele>
        <time>2013-09-04T07:02:23Z</time>
      </trkpt>
      <trkpt lat="45.32889" lon="5.65761">
        <ele>584</ele>
        <time>2013-09-04T07:02:25Z</time>
      </trkpt>
      <trkpt lat="45.3288" lon="5.6576">
        <ele>583</ele>
        <time>2013-09-04T07:02:26Z</time>
      </trkpt>
      <trkpt lat="45.32784" lon="5.65692">
        <ele>578</ele>
        <time>2013-09-04T07:02:40Z</time>
      </trkpt>
      <trkpt lat="45.32753" lon="5.65683">
        <ele>574</ele>
        <time>2013-09-04T07:02:45Z</time>
      </trkpt>
      <trkpt lat="45.32665" lon="5.65673">
        <ele>565</ele>
        <time>2013-09-04T07:02:56Z</time>
      </trkpt>
      <trkpt lat="45.32487" lon="5.6559">
        <ele>551</ele>
        <time>2013-09-04T07:03:21Z</time>
      </trkpt>
      <trkpt lat="45.32422" lon="5.65535">
        <ele>546</ele>
        <time>2013-09-04T07:03:32Z</time>
      </trkpt>
      <trkpt lat="45.32379" lon="5.65513">
        <ele>544</ele>
        <time>2013-09-04T07:03:38Z</time>
      </trkpt>
      <trkpt lat="45.32332" lon="5.65457">
        <ele>544</ele>
        <time>2013-09-04T07:03:47Z</time>
      </trkpt>
      <trkpt lat="45.32246" lon="5.65401">
        <ele>545</ele>
        <time>2013-09-04T07:04:01Z</time>
      </trkpt>
      <trkpt lat="45.32194" lon="5.65382">
        <ele>539</ele>
        <time>2013-09-04T07:04:08Z</time>
      </trkpt>
      <trkpt lat="45.32068" lon="5.65356">
        <ele>526</ele>
        <time>2013-09-04T07:04:25Z</time>
      </trkpt>
      <trkpt lat="45.31986" lon="5.65327">
        <ele>520</ele>
        <time>2013-09-04T07:04:36Z</time>
      </trkpt>
      <trkpt lat="45.31985" lon="5.65327">
        <ele>519</ele>
        <time>2013-09-04T07:04:36Z</time>
      </trkpt>
      <trkpt lat="45.31948" lon="5.65309">
        <ele>517</ele>
        <time>2013-09-04T07:04:42Z</time>
      </trkpt>
      <trkpt lat="45.31816" lon="5.65277">
        <ele>511</ele>
        <time>2013-09-04T07:05:00Z</time>
      </trkpt>
      <trkpt lat="45.31658" lon="5.65168">
        <ele>498</ele>
        <time>2013-09-04T07:05:23Z</time>
      </trkpt>
      <trkpt lat="45.31609" lon="5.65145">
        <ele>497</ele>
        <time>2013-09-04T07:05:30Z</time>
      </trkpt>
      <trkpt lat="45.31535" lon="5.65087">
        <ele>496</ele>
        <time>2013-09-04T07:05:41Z</time>
      </trkpt>
      <trkpt lat="45.31436" lon="5.65022">
        <ele>487</ele>
        <time>2013-09-04T07:05:56Z</time>
      </trkpt>
      <trkpt lat="45.31408" lon="5.64986">
        <ele>488</ele>
        <time>2013-09-04T07:06:04Z</time>
      </trkpt>
      <trkpt lat="45.31392" lon="5.64944">
        <ele>489</ele>
        <time>2013-09-04T07:06:11Z</time>
      </trkpt>
      <trkpt lat="45.31335" lon="5.6485">
        <ele>492</ele>
        <time>2013-09-04T07:06:29Z</time>
      </trkpt>
      <trkpt lat="45.31325" lon="5.6484">
        <ele>491</ele>
        <time>2013-09-04T07:06:31Z</time>
      </trkpt>
      <trkpt lat="45.31271" lon="5.64823">
        <ele>487</ele>
        <time>2013-09-04T07:06:38Z</time>
      </trkpt>
      <trkpt lat="45.31241" lon="5.64808">
        <ele>485</ele>
        <time>2013-09-04T07:06:42Z</time>
      </trkpt>
      <trkpt lat="45.31181" lon="5.64756">
        <ele>478</ele>
        <time>2013-09-04T07:06:52Z</time>
      </trkpt>
      <trkpt lat="45.31155" lon="5.64728">
        <ele>476</ele>
        <time>2013-09-04T07:06:56Z</time>
      </trkpt>
      <trkpt lat="45.3106" lon="5.64553">
        <ele>467</ele>
        <time>2013-09-04T07:07:17Z</time>
      </trkpt>
      <trkpt lat="45.31015" lon="5.64394">
        <ele>463</ele>
        <time>2013-09-04T07:07:33Z</time>
      </trkpt>
      <trkpt lat="45.30997" lon="5.6437">
        <ele>458</ele>
        <time>2013-09-04T07:07:36Z</time>
      </trkpt>
      <trkpt lat="45.3095" lon="5.64334">
        <ele>447</ele>
        <time>2013-09-04T07:07:43Z</time>
      </trkpt>
      <trkpt lat="45.30931" lon="5.64311">
        <ele>443</ele>
        <time>2013-09-04T07:07:47Z</time>
      </trkpt>
      <trkpt lat="45.30921" lon="5.64286">
        <ele>442</ele>
        <time>2013-09-04T07:07:49Z</time>
      </trkpt>
      <trkpt lat="45.3092" lon="5.64248">
        <ele>442</ele>
        <time>2013-09-04T07:07:53Z</time>
      </trkpt>
      <trkpt lat="45.30925" lon="5.64223">
        <ele>442</ele>
        <time>2013-09-04T07:07:55Z</time>
      </trkpt>
      <trkpt lat="45.30954" lon="5.6416">
        <ele>442</ele>
        <time>2013-09-04T07:08:02Z</time>
      </trkpt>
      <trkpt lat="45.30978" lon="5.64125">
        <ele>440</ele>
        <time>2013-09-04T07:08:07Z</time>
      </trkpt>
      <trkpt lat="45.30985" lon="5.64106">
        <ele>439</ele>
        <time>2013-09-04T07:08:09Z</time>
      </trkpt>
      <trkpt lat="45.30985" lon="5.64073">
        <ele>437</ele>
        <time>2013-09-04T07:08:12Z</time>
      </trkpt>
      <trkpt lat="45.30972" lon="5.64033">
        <ele>436</ele>
        <time>2013-09-04T07:08:16Z</time>
      </trkpt>
      <trkpt lat="45.30912" lon="5.6397">
        <ele>425</ele>
        <time>2013-09-04T07:08:26Z</time>
      </trkpt>
      <trkpt lat="45.30823" lon="5.63828">
        <ele>407</ele>
        <time>2013-09-04T07:08:44Z</time>
      </trkpt>
      <trkpt lat="45.30793" lon="5.63772">
        <ele>402</ele>
        <time>2013-09-04T07:08:51Z</time>
      </trkpt>
      <trkpt lat="45.30759" lon="5.63744">
        <ele>399</ele>
        <time>2013-09-04T07:08:56Z</time>
      </trkpt>
      <trkpt lat="45.3066" lon="5.6369">
        <ele>390</ele>
        <time>2013-09-04T07:09:10Z</time>
      </trkpt>
      <trkpt lat="45.3065" lon="5.63679">
        <ele>389</ele>
        <time>2013-09-04T07:09:12Z</time>
      </trkpt>
      <trkpt lat="45.30639" lon="5.63647">
        <ele>387</ele>
        <time>2013-09-04T07:09:15Z</time>
      </trkpt>
      <trkpt lat="45.30626" lon="5.63632">
        <ele>386</ele>
        <time>2013-09-04T07:09:17Z</time>
      </trkpt>
      <trkpt lat="45.30612" lon="5.63626">
        <ele>385</ele>
        <time>2013-09-04T07:09:19Z</time>
      </trkpt>
      <trkpt lat="45.30564" lon="5.63626">
        <ele>383</ele>
        <time>2013-09-04T07:09:26Z</time>
      </trkpt>
      <trkpt lat="45.30522" lon="5.63599">
        <ele>376</ele>
        <time>2013-09-04T07:09:32Z</time>
      </trkpt>
      <trkpt lat="45.30503" lon="5.63594">
        <ele>373</ele>
        <time>2013-09-04T07:09:34Z</time>
      </trkpt>
      <trkpt lat="45.30445" lon="5.63599">
        <ele>366</ele>
        <time>2013-09-04T07:09:42Z</time>
      </trkpt>
      <trkpt lat="45.30422" lon="5.63585">
        <ele>365</ele>
        <time>2013-09-04T07:09:46Z</time>
      </trkpt>
      <trkpt lat="45.30379" lon="5.6354">
        <ele>364</ele>
        <time>2013-09-04T07:09:53Z</time>
      </trkpt>
      <trkpt lat="45.30359" lon="5.63532">
        <ele>364</ele>
        <time>2013-09-04T07:09:55Z</time>
      </trkpt>
      <trkpt lat="45.30332" lon="5.63531">
        <ele>359</ele>
        <time>2013-09-04T07:09:59Z</time>
      </trkpt>
      <trkpt lat="45.30257" lon="5.63539">
        <ele>346</ele>
        <time>2013-09-04T07:10:09Z</time>
      </trkpt>
      <trkpt lat="45.30115" lon="5.63499">
        <ele>325</ele>
        <time>2013-09-04T07:10:28Z</time>
      </trkpt>
      <trkpt lat="45.30082" lon="5.63476">
        <ele>325</ele>
        <time>2013-09-04T07:10:35Z</time>
      </trkpt>
      <trkpt lat="45.30072" lon="5.63481">
        <ele>325</ele>
        <time>2013-09-04T07:10:36Z</time>
      </trkpt>
      <trkpt lat="45.3007" lon="5.6349">
        <ele>325</ele>
        <time>2013-09-04T07:10:38Z</time>
      </trkpt>
      <trkpt lat="45.30076" lon="5.63499">
        <ele>325</ele>
        <time>2013-09-04T07:10:39Z</time>
      </trkpt>
      <trkpt lat="45.30142" lon="5.63539">
        <ele>326</ele>
        <time>2013-09-04T07:10:51Z</time>
      </trkpt>
      <trkpt lat="45.30204" lon="5.63601">
        <ele>328</ele>
        <time>2013-09-04T07:11:04Z</time>
      </trkpt>
      <trkpt lat="45.30255" lon="5.63613">
        <ele>325</ele>
        <time>2013-09-04T07:11:11Z</time>
      </trkpt>
      <trkpt lat="45.30272" lon="5.63624">
        <ele>324</ele>
        <time>2013-09-04T07:11:13Z</time>
      </trkpt>
      <trkpt lat="45.30278" lon="5.63635">
        <ele>323</ele>
        <time>2013-09-04T07:11:14Z</time>
      </trkpt>
      <trkpt lat="45.30286" lon="5.63678">
        <ele>322</ele>
        <time>2013-09-04T07:11:19Z</time>
      </trkpt>
      <trkpt lat="45.30315" lon="5.63733">
        <ele>317</ele>
        <time>2013-09-04T07:11:25Z</time>
      </trkpt>
      <trkpt lat="45.30323" lon="5.63781">
        <ele>313</ele>
        <time>2013-09-04T07:11:30Z</time>
      </trkpt>
      <trkpt lat="45.30327" lon="5.63851">
        <ele>309</ele>
        <time>2013-09-04T07:11:36Z</time>
      </trkpt>
      <trkpt lat="45.30338" lon="5.63866">
        <ele>308</ele>
        <time>2013-09-04T07:11:38Z</time>
      </trkpt>
      <trkpt lat="45.30364" lon="5.63879">
        <ele>306</ele>
        <time>2013-09-04T07:11:42Z</time>
      </trkpt>
      <trkpt lat="45.30369" lon="5.63886">
        <ele>305</ele>
        <time>2013-09-04T07:11:43Z</time>
      </trkpt>
      <trkpt lat="45.30369" lon="5.63904">
        <ele>305</ele>
        <time>2013-09-04T07:11:45Z</time>
      </trkpt>
      <trkpt lat="45.3036" lon="5.63914">
        <ele>304</ele>
        <time>2013-09-04T07:11:46Z</time>
      </trkpt>
      <trkpt lat="45.30346" lon="5.6391">
        <ele>303</ele>
        <time>2013-09-04T07:11:48Z</time>
      </trkpt>
      <trkpt lat="45.30307" lon="5.63875">
        <ele>300</ele>
        <time>2013-09-04T07:11:54Z</time>
      </trkpt>
      <trkpt lat="45.30254" lon="5.63851">
        <ele>297</ele>
        <time>2013-09-04T07:12:02Z</time>
      </trkpt>
      <trkpt lat="45.30169" lon="5.63822">
        <ele>292</ele>
        <time>2013-09-04T07:12:13Z</time>
      </trkpt>
      <trkpt lat="45.30027" lon="5.63798">
        <ele>276</ele>
        <time>2013-09-04T07:12:32Z</time>
      </trkpt>
      <trkpt lat="45.29952" lon="5.6381">
        <ele>270</ele>
        <time>2013-09-04T07:12:43Z</time>
      </trkpt>
      <trkpt lat="45.29902" lon="5.63802">
        <ele>266</ele>
        <time>2013-09-04T07:12:49Z</time>
      </trkpt>
      <trkpt lat="45.29877" lon="5.63787">
        <ele>263</ele>
        <time>2013-09-04T07:12:53Z</time>
      </trkpt>
      <trkpt lat="45.29843" lon="5.63727">
        <ele>259</ele>
        <time>2013-09-04T07:13:00Z</time>
      </trkpt>
      <trkpt lat="45.29843" lon="5.63726">
        <ele>258</ele>
        <time>2013-09-04T07:13:00Z</time>
      </trkpt>
      <trkpt lat="45.29808" lon="5.63653">
        <ele>253</ele>
        <time>2013-09-04T07:13:09Z</time>
      </trkpt>
      <trkpt lat="45.2981" lon="5.63643">
        <ele>253</ele>
        <time>2013-09-04T07:13:10Z</time>
      </trkpt>
      <trkpt lat="45.29807" lon="5.63635">
        <ele>252</ele>
        <time>2013-09-04T07:13:10Z</time>
      </trkpt>
      <trkpt lat="45.29798" lon="5.63632">
        <ele>252</ele>
        <time>2013-09-04T07:13:12Z</time>
      </trkpt>
      <trkpt lat="45.2979" lon="5.63643">
        <ele>251</ele>
        <time>2013-09-04T07:13:13Z</time>
      </trkpt>
      <trkpt lat="45.29777" lon="5.63638">
        <ele>250</ele>
        <time>2013-09-04T07:13:15Z</time>
      </trkpt>
      <trkpt lat="45.29729" lon="5.63563">
        <ele>245</ele>
        <time>2013-09-04T07:13:24Z</time>
      </trkpt>
      <trkpt lat="45.29708" lon="5.63541">
        <ele>244</ele>
        <time>2013-09-04T07:13:28Z</time>
      </trkpt>
      <trkpt lat="45.29694" lon="5.63536">
        <ele>243</ele>
        <time>2013-09-04T07:13:30Z</time>
      </trkpt>
      <trkpt lat="45.29667" lon="5.63492">
        <ele>240</ele>
        <time>2013-09-04T07:13:35Z</time>
      </trkpt>
      <trkpt lat="45.29481" lon="5.63358">
        <ele>227</ele>
        <time>2013-09-04T07:14:03Z</time>
      </trkpt>
      <trkpt lat="45.29347" lon="5.63185">
        <ele>216</ele>
        <time>2013-09-04T07:14:27Z</time>
      </trkpt>
      <trkpt lat="45.29291" lon="5.63091">
        <ele>214</ele>
        <time>2013-09-04T07:14:39Z</time>
      </trkpt>
      <trkpt lat="45.29024" lon="5.63653">
        <ele>205</ele>
        <time>2013-09-04T07:15:43Z</time>
      </trkpt>
      <trkpt lat="45.29024" lon="5.63653">
        <ele>205</ele>
        <time>2013-09-04T07:15:44Z</time>
      </trkpt>
      <trkpt lat="45.28793" lon="5.64141">
        <ele>199</ele>
        <time>2013-09-04T07:16:39Z</time>
      </trkpt>
      <trkpt lat="45.2874" lon="5.64221">
        <ele>198</ele>
        <time>2013-09-04T07:16:49Z</time>
      </trkpt>
      <trkpt lat="45.28697" lon="5.64265">
        <ele>198</ele>
        <time>2013-09-04T07:16:56Z</time>
      </trkpt>
      <trkpt lat="45.28667" lon="5.64288">
        <ele>197</ele>
        <time>2013-09-04T07:17:01Z</time>
      </trkpt>
      <trkpt lat="45.28511" lon="5.64386">
        <ele>196</ele>
        <time>2013-09-04T07:17:24Z</time>
      </trkpt>
      <trkpt lat="45.27492" lon="5.64981">
        <ele>202</ele>
        <time>2013-09-04T07:20:05Z</time>
      </trkpt>
      <trkpt lat="45.27504" lon="5.64937">
        <ele>200</ele>
        <time>2013-09-04T07:20:10Z</time>
      </trkpt>
      <trkpt lat="45.27518" lon="5.64856">
        <ele>199</ele>
        <time>2013-09-04T07:20:18Z</time>
      </trkpt>
      <trkpt lat="45.27518" lon="5.64856">
        <ele>199</ele>
        <time>2013-09-04T07:20:19Z</time>
      </trkpt>
      <trkpt lat="45.27537" lon="5.64731">
        <ele>198</ele>
        <time>2013-09-04T07:20:31Z</time>
      </trkpt>
      <trkpt lat="45.27521" lon="5.64684">
        <ele>196</ele>
        <time>2013-09-04T07:20:35Z</time>
      </trkpt>
      <trkpt lat="45.27519" lon="5.64644">
        <ele>196</ele>
        <time>2013-09-04T07:20:39Z</time>
      </trkpt>
      <trkpt lat="45.27523" lon="5.64627">
        <ele>195</ele>
        <time>2013-09-04T07:20:41Z</time>
      </trkpt>
      <trkpt lat="45.2756" lon="5.6455">
        <ele>194</ele>
        <time>2013-09-04T07:20:50Z</time>
      </trkpt>
      <trkpt lat="45.27565" lon="5.64491">
        <ele>193</ele>
        <time>2013-09-04T07:20:55Z</time>
      </trkpt>
      <trkpt lat="45.27553" lon="5.64418">
        <ele>193</ele>
        <time>2013-09-04T07:21:02Z</time>
      </trkpt>
      <trkpt lat="45.27502" lon="5.6418">
        <ele>192</ele>
        <time>2013-09-04T07:21:26Z</time>
      </trkpt>
      <trkpt lat="45.27382" lon="5.63549">
        <ele>196</ele>
        <time>2013-09-04T07:22:37Z</time>
      </trkpt>
      <trkpt lat="45.27355" lon="5.63389">
        <ele>196</ele>
        <time>2013-09-04T07:22:52Z</time>
      </trkpt>
      <trkpt lat="45.27315" lon="5.63042">
        <ele>194</ele>
        <time>2013-09-04T07:23:25Z</time>
      </trkpt>
      <trkpt lat="45.27306" lon="5.6294">
        <ele>194</ele>
        <time>2013-09-04T07:23:35Z</time>
      </trkpt>
    </trkseg>
  </trk>
</gpx>